<?xml version="1.0" encoding="UTF-8" standalone="no" ?>
<gpx xmlns="http://www.topografix.com/GPX/1/1" xmlns:xsi="http://www.w3.org/2001/XMLSchema-instance" xsi:schemaLocation="http://www.topografix.com/GPX/1/1 http://www.topografix.com/GPX/1/1/gpx.xsd" version="1.1" creator="VisuGPX - https://www.visugpx.com">
  <metadata>
    <name>Sortie Ravel 12/12/2010</name>
    <desc><![CDATA[Sortie dans les bois de Ravel à partir de Seychalles]]></desc>
  </metadata>
  <trk>
    <name><![CDATA[2010-12-12T08:35:03Z]]></name>
    <trkseg>
      <trkpt lat="45.8089" lon="3.33849">
        <ele>319.7756348</ele>
        <time>2010-12-12T08:35:04Z</time>
      </trkpt>
      <trkpt lat="45.80887" lon="3.33852">
        <ele>319.7756348</ele>
        <time>2010-12-12T08:35:06Z</time>
      </trkpt>
      <trkpt lat="45.80873" lon="3.33857">
        <ele>319.7756348</ele>
        <time>2010-12-12T08:35:13Z</time>
      </trkpt>
      <trkpt lat="45.80863" lon="3.33857">
        <ele>319.2950439</ele>
        <time>2010-12-12T08:35:18Z</time>
      </trkpt>
      <trkpt lat="45.80848" lon="3.3386">
        <ele>318.8143311</ele>
        <time>2010-12-12T08:35:24Z</time>
      </trkpt>
      <trkpt lat="45.80824" lon="3.33865">
        <ele>319.2950439</ele>
        <time>2010-12-12T08:35:32Z</time>
      </trkpt>
      <trkpt lat="45.80792" lon="3.33873">
        <ele>318.8143311</ele>
        <time>2010-12-12T08:35:42Z</time>
      </trkpt>
      <trkpt lat="45.80772" lon="3.33877">
        <ele>318.3336182</ele>
        <time>2010-12-12T08:35:48Z</time>
      </trkpt>
      <trkpt lat="45.80768" lon="3.33877">
        <ele>318.3336182</ele>
        <time>2010-12-12T08:35:49Z</time>
      </trkpt>
      <trkpt lat="45.80761" lon="3.33879">
        <ele>319.2950439</ele>
        <time>2010-12-12T08:35:51Z</time>
      </trkpt>
      <trkpt lat="45.80736" lon="3.33884">
        <ele>319.7756348</ele>
        <time>2010-12-12T08:35:58Z</time>
      </trkpt>
      <trkpt lat="45.80732" lon="3.33885">
        <ele>319.7756348</ele>
        <time>2010-12-12T08:35:59Z</time>
      </trkpt>
      <trkpt lat="45.80702" lon="3.33894">
        <ele>319.2950439</ele>
        <time>2010-12-12T08:36:07Z</time>
      </trkpt>
      <trkpt lat="45.80694" lon="3.3391">
        <ele>318.8143311</ele>
        <time>2010-12-12T08:36:11Z</time>
      </trkpt>
      <trkpt lat="45.80691" lon="3.33959">
        <ele>317.8530273</ele>
        <time>2010-12-12T08:36:20Z</time>
      </trkpt>
      <trkpt lat="45.80687" lon="3.34014">
        <ele>317.8530273</ele>
        <time>2010-12-12T08:36:30Z</time>
      </trkpt>
      <trkpt lat="45.80685" lon="3.34053">
        <ele>316.8917236</ele>
        <time>2010-12-12T08:36:37Z</time>
      </trkpt>
      <trkpt lat="45.8068" lon="3.34086">
        <ele>317.3724365</ele>
        <time>2010-12-12T08:36:43Z</time>
      </trkpt>
      <trkpt lat="45.80673" lon="3.34114">
        <ele>316.8917236</ele>
        <time>2010-12-12T08:36:48Z</time>
      </trkpt>
      <trkpt lat="45.80662" lon="3.34139">
        <ele>316.4110107</ele>
        <time>2010-12-12T08:36:53Z</time>
      </trkpt>
      <trkpt lat="45.80659" lon="3.34143">
        <ele>316.4110107</ele>
        <time>2010-12-12T08:36:54Z</time>
      </trkpt>
      <trkpt lat="45.80638" lon="3.34174">
        <ele>315.9304199</ele>
        <time>2010-12-12T08:37:01Z</time>
      </trkpt>
      <trkpt lat="45.80627" lon="3.34191">
        <ele>316.4110107</ele>
        <time>2010-12-12T08:37:05Z</time>
      </trkpt>
      <trkpt lat="45.80612" lon="3.34199">
        <ele>315.4498291</ele>
        <time>2010-12-12T08:37:09Z</time>
      </trkpt>
      <trkpt lat="45.80606" lon="3.34193">
        <ele>315.4498291</ele>
        <time>2010-12-12T08:37:11Z</time>
      </trkpt>
      <trkpt lat="45.80584" lon="3.34173">
        <ele>314.9691162</ele>
        <time>2010-12-12T08:37:18Z</time>
      </trkpt>
      <trkpt lat="45.80552" lon="3.34165">
        <ele>315.9304199</ele>
        <time>2010-12-12T08:37:26Z</time>
      </trkpt>
      <trkpt lat="45.80524" lon="3.34159">
        <ele>315.4498291</ele>
        <time>2010-12-12T08:37:33Z</time>
      </trkpt>
      <trkpt lat="45.80496" lon="3.34152">
        <ele>314.9691162</ele>
        <time>2010-12-12T08:37:40Z</time>
      </trkpt>
      <trkpt lat="45.80468" lon="3.34145">
        <ele>315.4498291</ele>
        <time>2010-12-12T08:37:47Z</time>
      </trkpt>
      <trkpt lat="45.80437" lon="3.34136">
        <ele>316.4110107</ele>
        <time>2010-12-12T08:37:55Z</time>
      </trkpt>
      <trkpt lat="45.804" lon="3.34126">
        <ele>314.4884033</ele>
        <time>2010-12-12T08:38:04Z</time>
      </trkpt>
      <trkpt lat="45.80367" lon="3.34117">
        <ele>315.9304199</ele>
        <time>2010-12-12T08:38:12Z</time>
      </trkpt>
      <trkpt lat="45.80359" lon="3.34114">
        <ele>316.4110107</ele>
        <time>2010-12-12T08:38:14Z</time>
      </trkpt>
      <trkpt lat="45.80323" lon="3.34093">
        <ele>315.4498291</ele>
        <time>2010-12-12T08:38:23Z</time>
      </trkpt>
      <trkpt lat="45.80315" lon="3.34088">
        <ele>315.9304199</ele>
        <time>2010-12-12T08:38:25Z</time>
      </trkpt>
      <trkpt lat="45.80274" lon="3.34058">
        <ele>317.3724365</ele>
        <time>2010-12-12T08:38:36Z</time>
      </trkpt>
      <trkpt lat="45.80246" lon="3.34039">
        <ele>316.8917236</ele>
        <time>2010-12-12T08:38:43Z</time>
      </trkpt>
      <trkpt lat="45.80233" lon="3.34034">
        <ele>316.8917236</ele>
        <time>2010-12-12T08:38:46Z</time>
      </trkpt>
      <trkpt lat="45.80195" lon="3.34024">
        <ele>316.8917236</ele>
        <time>2010-12-12T08:38:55Z</time>
      </trkpt>
      <trkpt lat="45.80147" lon="3.34011">
        <ele>315.9304199</ele>
        <time>2010-12-12T08:39:06Z</time>
      </trkpt>
      <trkpt lat="45.80109" lon="3.34">
        <ele>316.4110107</ele>
        <time>2010-12-12T08:39:15Z</time>
      </trkpt>
      <trkpt lat="45.80073" lon="3.3399">
        <ele>316.4110107</ele>
        <time>2010-12-12T08:39:24Z</time>
      </trkpt>
      <trkpt lat="45.80036" lon="3.33979">
        <ele>316.8917236</ele>
        <time>2010-12-12T08:39:33Z</time>
      </trkpt>
      <trkpt lat="45.79995" lon="3.33968">
        <ele>317.8530273</ele>
        <time>2010-12-12T08:39:43Z</time>
      </trkpt>
      <trkpt lat="45.79963" lon="3.3396">
        <ele>317.3724365</ele>
        <time>2010-12-12T08:39:51Z</time>
      </trkpt>
      <trkpt lat="45.79952" lon="3.33961">
        <ele>316.8917236</ele>
        <time>2010-12-12T08:39:54Z</time>
      </trkpt>
      <trkpt lat="45.79944" lon="3.33965">
        <ele>317.3724365</ele>
        <time>2010-12-12T08:39:56Z</time>
      </trkpt>
      <trkpt lat="45.79916" lon="3.33992">
        <ele>317.3724365</ele>
        <time>2010-12-12T08:40:04Z</time>
      </trkpt>
      <trkpt lat="45.79888" lon="3.34024">
        <ele>317.3724365</ele>
        <time>2010-12-12T08:40:12Z</time>
      </trkpt>
      <trkpt lat="45.7985" lon="3.34073">
        <ele>317.3724365</ele>
        <time>2010-12-12T08:40:23Z</time>
      </trkpt>
      <trkpt lat="45.79813" lon="3.34133">
        <ele>317.8530273</ele>
        <time>2010-12-12T08:40:35Z</time>
      </trkpt>
      <trkpt lat="45.79785" lon="3.34182">
        <ele>319.2950439</ele>
        <time>2010-12-12T08:40:45Z</time>
      </trkpt>
      <trkpt lat="45.79783" lon="3.34187">
        <ele>318.8143311</ele>
        <time>2010-12-12T08:40:46Z</time>
      </trkpt>
      <trkpt lat="45.7978" lon="3.34191">
        <ele>318.3336182</ele>
        <time>2010-12-12T08:40:47Z</time>
      </trkpt>
      <trkpt lat="45.79778" lon="3.34196">
        <ele>318.8143311</ele>
        <time>2010-12-12T08:40:48Z</time>
      </trkpt>
      <trkpt lat="45.79764" lon="3.34225">
        <ele>318.8143311</ele>
        <time>2010-12-12T08:40:54Z</time>
      </trkpt>
      <trkpt lat="45.79756" lon="3.34241">
        <ele>318.3336182</ele>
        <time>2010-12-12T08:40:57Z</time>
      </trkpt>
      <trkpt lat="45.79753" lon="3.34246">
        <ele>317.8530273</ele>
        <time>2010-12-12T08:40:58Z</time>
      </trkpt>
      <trkpt lat="45.79737" lon="3.34281">
        <ele>317.3724365</ele>
        <time>2010-12-12T08:41:04Z</time>
      </trkpt>
      <trkpt lat="45.79712" lon="3.34329">
        <ele>317.8530273</ele>
        <time>2010-12-12T08:41:13Z</time>
      </trkpt>
      <trkpt lat="45.79688" lon="3.34373">
        <ele>318.3336182</ele>
        <time>2010-12-12T08:41:22Z</time>
      </trkpt>
      <trkpt lat="45.7966" lon="3.34425">
        <ele>318.3336182</ele>
        <time>2010-12-12T08:41:32Z</time>
      </trkpt>
      <trkpt lat="45.79643" lon="3.34456">
        <ele>318.8143311</ele>
        <time>2010-12-12T08:41:38Z</time>
      </trkpt>
      <trkpt lat="45.79618" lon="3.34502">
        <ele>318.8143311</ele>
        <time>2010-12-12T08:41:47Z</time>
      </trkpt>
      <trkpt lat="45.79595" lon="3.34546">
        <ele>319.2950439</ele>
        <time>2010-12-12T08:41:56Z</time>
      </trkpt>
      <trkpt lat="45.79587" lon="3.34562">
        <ele>319.7756348</ele>
        <time>2010-12-12T08:41:59Z</time>
      </trkpt>
      <trkpt lat="45.79568" lon="3.34595">
        <ele>318.8143311</ele>
        <time>2010-12-12T08:42:06Z</time>
      </trkpt>
      <trkpt lat="45.79551" lon="3.34628">
        <ele>318.8143311</ele>
        <time>2010-12-12T08:42:13Z</time>
      </trkpt>
      <trkpt lat="45.79527" lon="3.34671">
        <ele>318.3336182</ele>
        <time>2010-12-12T08:42:22Z</time>
      </trkpt>
      <trkpt lat="45.79519" lon="3.34685">
        <ele>318.8143311</ele>
        <time>2010-12-12T08:42:25Z</time>
      </trkpt>
      <trkpt lat="45.79509" lon="3.34698">
        <ele>319.2950439</ele>
        <time>2010-12-12T08:42:28Z</time>
      </trkpt>
      <trkpt lat="45.79501" lon="3.34705">
        <ele>318.3336182</ele>
        <time>2010-12-12T08:42:30Z</time>
      </trkpt>
      <trkpt lat="45.79481" lon="3.3472">
        <ele>318.8143311</ele>
        <time>2010-12-12T08:42:35Z</time>
      </trkpt>
      <trkpt lat="45.79477" lon="3.34723">
        <ele>318.8143311</ele>
        <time>2010-12-12T08:42:36Z</time>
      </trkpt>
      <trkpt lat="45.79437" lon="3.34755">
        <ele>318.8143311</ele>
        <time>2010-12-12T08:42:46Z</time>
      </trkpt>
      <trkpt lat="45.79433" lon="3.34758">
        <ele>319.2950439</ele>
        <time>2010-12-12T08:42:47Z</time>
      </trkpt>
      <trkpt lat="45.79417" lon="3.3477">
        <ele>318.3336182</ele>
        <time>2010-12-12T08:42:51Z</time>
      </trkpt>
      <trkpt lat="45.79405" lon="3.34779">
        <ele>318.3336182</ele>
        <time>2010-12-12T08:42:54Z</time>
      </trkpt>
      <trkpt lat="45.79393" lon="3.34788">
        <ele>318.8143311</ele>
        <time>2010-12-12T08:42:57Z</time>
      </trkpt>
      <trkpt lat="45.7939" lon="3.34791">
        <ele>319.2950439</ele>
        <time>2010-12-12T08:42:58Z</time>
      </trkpt>
      <trkpt lat="45.79373" lon="3.34808">
        <ele>319.2950439</ele>
        <time>2010-12-12T08:43:03Z</time>
      </trkpt>
      <trkpt lat="45.79376" lon="3.34848">
        <ele>318.3336182</ele>
        <time>2010-12-12T08:43:10Z</time>
      </trkpt>
      <trkpt lat="45.79378" lon="3.34873">
        <ele>318.3336182</ele>
        <time>2010-12-12T08:43:14Z</time>
      </trkpt>
      <trkpt lat="45.79379" lon="3.3488">
        <ele>317.8530273</ele>
        <time>2010-12-12T08:43:15Z</time>
      </trkpt>
      <trkpt lat="45.79381" lon="3.34893">
        <ele>318.3336182</ele>
        <time>2010-12-12T08:43:17Z</time>
      </trkpt>
      <trkpt lat="45.79383" lon="3.34919">
        <ele>317.3724365</ele>
        <time>2010-12-12T08:43:21Z</time>
      </trkpt>
      <trkpt lat="45.79383" lon="3.34958">
        <ele>317.3724365</ele>
        <time>2010-12-12T08:43:27Z</time>
      </trkpt>
      <trkpt lat="45.79393" lon="3.35019">
        <ele>317.8530273</ele>
        <time>2010-12-12T08:43:37Z</time>
      </trkpt>
      <trkpt lat="45.79401" lon="3.35062">
        <ele>318.3336182</ele>
        <time>2010-12-12T08:43:44Z</time>
      </trkpt>
      <trkpt lat="45.79417" lon="3.35113">
        <ele>318.8143311</ele>
        <time>2010-12-12T08:43:53Z</time>
      </trkpt>
      <trkpt lat="45.79429" lon="3.35152">
        <ele>319.2950439</ele>
        <time>2010-12-12T08:44:00Z</time>
      </trkpt>
      <trkpt lat="45.79434" lon="3.3517">
        <ele>319.2950439</ele>
        <time>2010-12-12T08:44:03Z</time>
      </trkpt>
      <trkpt lat="45.7944" lon="3.35214">
        <ele>319.7756348</ele>
        <time>2010-12-12T08:44:10Z</time>
      </trkpt>
      <trkpt lat="45.79441" lon="3.35233">
        <ele>319.7756348</ele>
        <time>2010-12-12T08:44:13Z</time>
      </trkpt>
      <trkpt lat="45.79442" lon="3.35268">
        <ele>319.7756348</ele>
        <time>2010-12-12T08:44:19Z</time>
      </trkpt>
      <trkpt lat="45.79447" lon="3.35326">
        <ele>319.7756348</ele>
        <time>2010-12-12T08:44:29Z</time>
      </trkpt>
      <trkpt lat="45.79451" lon="3.35354">
        <ele>320.2563477</ele>
        <time>2010-12-12T08:44:34Z</time>
      </trkpt>
      <trkpt lat="45.79452" lon="3.35365">
        <ele>319.7756348</ele>
        <time>2010-12-12T08:44:36Z</time>
      </trkpt>
      <trkpt lat="45.79453" lon="3.35371">
        <ele>319.7756348</ele>
        <time>2010-12-12T08:44:37Z</time>
      </trkpt>
      <trkpt lat="45.79454" lon="3.35377">
        <ele>319.7756348</ele>
        <time>2010-12-12T08:44:38Z</time>
      </trkpt>
      <trkpt lat="45.79463" lon="3.35439">
        <ele>321.2177734</ele>
        <time>2010-12-12T08:44:49Z</time>
      </trkpt>
      <trkpt lat="45.7947" lon="3.35494">
        <ele>322.659668</ele>
        <time>2010-12-12T08:44:59Z</time>
      </trkpt>
      <trkpt lat="45.79477" lon="3.35519">
        <ele>324.5822754</ele>
        <time>2010-12-12T08:45:04Z</time>
      </trkpt>
      <trkpt lat="45.79478" lon="3.35523">
        <ele>324.5822754</ele>
        <time>2010-12-12T08:45:05Z</time>
      </trkpt>
      <trkpt lat="45.79482" lon="3.35541">
        <ele>324.5822754</ele>
        <time>2010-12-12T08:45:10Z</time>
      </trkpt>
      <trkpt lat="45.79491" lon="3.35571">
        <ele>324.5822754</ele>
        <time>2010-12-12T08:45:18Z</time>
      </trkpt>
      <trkpt lat="45.79501" lon="3.35607">
        <ele>323.6209717</ele>
        <time>2010-12-12T08:45:26Z</time>
      </trkpt>
      <trkpt lat="45.79509" lon="3.35636">
        <ele>322.659668</ele>
        <time>2010-12-12T08:45:33Z</time>
      </trkpt>
      <trkpt lat="45.79513" lon="3.35653">
        <ele>322.659668</ele>
        <time>2010-12-12T08:45:38Z</time>
      </trkpt>
      <trkpt lat="45.7952" lon="3.35686">
        <ele>321.6983643</ele>
        <time>2010-12-12T08:45:46Z</time>
      </trkpt>
      <trkpt lat="45.79527" lon="3.35714">
        <ele>320.7370605</ele>
        <time>2010-12-12T08:45:53Z</time>
      </trkpt>
      <trkpt lat="45.79535" lon="3.35747">
        <ele>320.7370605</ele>
        <time>2010-12-12T08:46:01Z</time>
      </trkpt>
      <trkpt lat="45.7954" lon="3.3577">
        <ele>321.6983643</ele>
        <time>2010-12-12T08:46:07Z</time>
      </trkpt>
      <trkpt lat="45.79546" lon="3.35797">
        <ele>322.1789551</ele>
        <time>2010-12-12T08:46:15Z</time>
      </trkpt>
      <trkpt lat="45.79551" lon="3.35816">
        <ele>322.1789551</ele>
        <time>2010-12-12T08:46:21Z</time>
      </trkpt>
      <trkpt lat="45.79561" lon="3.35854">
        <ele>322.659668</ele>
        <time>2010-12-12T08:46:31Z</time>
      </trkpt>
      <trkpt lat="45.79567" lon="3.35889">
        <ele>323.6209717</ele>
        <time>2010-12-12T08:46:40Z</time>
      </trkpt>
      <trkpt lat="45.79574" lon="3.3592">
        <ele>325.0629883</ele>
        <time>2010-12-12T08:46:48Z</time>
      </trkpt>
      <trkpt lat="45.79578" lon="3.35945">
        <ele>324.5822754</ele>
        <time>2010-12-12T08:46:54Z</time>
      </trkpt>
      <trkpt lat="45.79585" lon="3.35987">
        <ele>323.6209717</ele>
        <time>2010-12-12T08:47:03Z</time>
      </trkpt>
      <trkpt lat="45.79591" lon="3.36036">
        <ele>324.1015625</ele>
        <time>2010-12-12T08:47:13Z</time>
      </trkpt>
      <trkpt lat="45.796" lon="3.36083">
        <ele>322.659668</ele>
        <time>2010-12-12T08:47:23Z</time>
      </trkpt>
      <trkpt lat="45.79608" lon="3.36127">
        <ele>323.1403809</ele>
        <time>2010-12-12T08:47:32Z</time>
      </trkpt>
      <trkpt lat="45.79619" lon="3.36187">
        <ele>322.659668</ele>
        <time>2010-12-12T08:47:45Z</time>
      </trkpt>
      <trkpt lat="45.79622" lon="3.36212">
        <ele>323.6209717</ele>
        <time>2010-12-12T08:47:52Z</time>
      </trkpt>
      <trkpt lat="45.79629" lon="3.36244">
        <ele>324.1015625</ele>
        <time>2010-12-12T08:48:00Z</time>
      </trkpt>
      <trkpt lat="45.79635" lon="3.3627">
        <ele>324.1015625</ele>
        <time>2010-12-12T08:48:06Z</time>
      </trkpt>
      <trkpt lat="45.79637" lon="3.36296">
        <ele>323.6209717</ele>
        <time>2010-12-12T08:48:12Z</time>
      </trkpt>
      <trkpt lat="45.79638" lon="3.36311">
        <ele>323.1403809</ele>
        <time>2010-12-12T08:48:16Z</time>
      </trkpt>
      <trkpt lat="45.79635" lon="3.36338">
        <ele>322.1789551</ele>
        <time>2010-12-12T08:48:22Z</time>
      </trkpt>
      <trkpt lat="45.79633" lon="3.36362">
        <ele>320.2563477</ele>
        <time>2010-12-12T08:48:28Z</time>
      </trkpt>
      <trkpt lat="45.79634" lon="3.36387">
        <ele>320.2563477</ele>
        <time>2010-12-12T08:48:35Z</time>
      </trkpt>
      <trkpt lat="45.79634" lon="3.36405">
        <ele>319.7756348</ele>
        <time>2010-12-12T08:48:40Z</time>
      </trkpt>
      <trkpt lat="45.79631" lon="3.36415">
        <ele>320.2563477</ele>
        <time>2010-12-12T08:48:44Z</time>
      </trkpt>
      <trkpt lat="45.7963" lon="3.3643">
        <ele>319.2950439</ele>
        <time>2010-12-12T08:48:48Z</time>
      </trkpt>
      <trkpt lat="45.79625" lon="3.36451">
        <ele>319.7756348</ele>
        <time>2010-12-12T08:48:54Z</time>
      </trkpt>
      <trkpt lat="45.79603" lon="3.36459">
        <ele>320.2563477</ele>
        <time>2010-12-12T08:49:01Z</time>
      </trkpt>
      <trkpt lat="45.79585" lon="3.36475">
        <ele>320.2563477</ele>
        <time>2010-12-12T08:49:07Z</time>
      </trkpt>
      <trkpt lat="45.79576" lon="3.36489">
        <ele>320.7370605</ele>
        <time>2010-12-12T08:49:12Z</time>
      </trkpt>
      <trkpt lat="45.79576" lon="3.36494">
        <ele>321.2177734</ele>
        <time>2010-12-12T08:49:16Z</time>
      </trkpt>
      <trkpt lat="45.79576" lon="3.36494">
        <ele>320.7370605</ele>
        <time>2010-12-12T08:49:21Z</time>
      </trkpt>
      <trkpt lat="45.79586" lon="3.3651">
        <ele>320.7370605</ele>
        <time>2010-12-12T08:49:28Z</time>
      </trkpt>
      <trkpt lat="45.7959" lon="3.36514">
        <ele>320.7370605</ele>
        <time>2010-12-12T08:49:30Z</time>
      </trkpt>
      <trkpt lat="45.79591" lon="3.36525">
        <ele>321.6983643</ele>
        <time>2010-12-12T08:49:34Z</time>
      </trkpt>
      <trkpt lat="45.79586" lon="3.36541">
        <ele>319.2950439</ele>
        <time>2010-12-12T08:49:39Z</time>
      </trkpt>
      <trkpt lat="45.79583" lon="3.36562">
        <ele>318.8143311</ele>
        <time>2010-12-12T08:49:46Z</time>
      </trkpt>
      <trkpt lat="45.79578" lon="3.36583">
        <ele>318.3336182</ele>
        <time>2010-12-12T08:49:51Z</time>
      </trkpt>
      <trkpt lat="45.79569" lon="3.36604">
        <ele>318.3336182</ele>
        <time>2010-12-12T08:49:57Z</time>
      </trkpt>
      <trkpt lat="45.79559" lon="3.36625">
        <ele>318.8143311</ele>
        <time>2010-12-12T08:50:03Z</time>
      </trkpt>
      <trkpt lat="45.79553" lon="3.36634">
        <ele>319.2950439</ele>
        <time>2010-12-12T08:50:06Z</time>
      </trkpt>
      <trkpt lat="45.79541" lon="3.36657">
        <ele>319.2950439</ele>
        <time>2010-12-12T08:50:13Z</time>
      </trkpt>
      <trkpt lat="45.79528" lon="3.3668">
        <ele>319.7756348</ele>
        <time>2010-12-12T08:50:19Z</time>
      </trkpt>
      <trkpt lat="45.79518" lon="3.36697">
        <ele>319.7756348</ele>
        <time>2010-12-12T08:50:24Z</time>
      </trkpt>
      <trkpt lat="45.79507" lon="3.36717">
        <ele>320.2563477</ele>
        <time>2010-12-12T08:50:30Z</time>
      </trkpt>
      <trkpt lat="45.79498" lon="3.36736">
        <ele>319.7756348</ele>
        <time>2010-12-12T08:50:35Z</time>
      </trkpt>
      <trkpt lat="45.79485" lon="3.36769">
        <ele>319.2950439</ele>
        <time>2010-12-12T08:50:43Z</time>
      </trkpt>
      <trkpt lat="45.79471" lon="3.368">
        <ele>319.7756348</ele>
        <time>2010-12-12T08:50:51Z</time>
      </trkpt>
      <trkpt lat="45.79459" lon="3.36828">
        <ele>318.8143311</ele>
        <time>2010-12-12T08:50:58Z</time>
      </trkpt>
      <trkpt lat="45.79447" lon="3.36858">
        <ele>319.2950439</ele>
        <time>2010-12-12T08:51:06Z</time>
      </trkpt>
      <trkpt lat="45.79433" lon="3.36891">
        <ele>319.7756348</ele>
        <time>2010-12-12T08:51:15Z</time>
      </trkpt>
      <trkpt lat="45.79422" lon="3.36913">
        <ele>319.2950439</ele>
        <time>2010-12-12T08:51:21Z</time>
      </trkpt>
      <trkpt lat="45.79398" lon="3.36939">
        <ele>319.7756348</ele>
        <time>2010-12-12T08:51:29Z</time>
      </trkpt>
      <trkpt lat="45.79377" lon="3.36967">
        <ele>319.7756348</ele>
        <time>2010-12-12T08:51:37Z</time>
      </trkpt>
      <trkpt lat="45.79361" lon="3.36994">
        <ele>320.2563477</ele>
        <time>2010-12-12T08:51:44Z</time>
      </trkpt>
      <trkpt lat="45.79344" lon="3.3702">
        <ele>320.2563477</ele>
        <time>2010-12-12T08:51:51Z</time>
      </trkpt>
      <trkpt lat="45.79331" lon="3.37041">
        <ele>319.7756348</ele>
        <time>2010-12-12T08:51:57Z</time>
      </trkpt>
      <trkpt lat="45.79319" lon="3.37054">
        <ele>319.7756348</ele>
        <time>2010-12-12T08:52:02Z</time>
      </trkpt>
      <trkpt lat="45.79299" lon="3.3707">
        <ele>319.7756348</ele>
        <time>2010-12-12T08:52:10Z</time>
      </trkpt>
      <trkpt lat="45.79284" lon="3.37083">
        <ele>320.2563477</ele>
        <time>2010-12-12T08:52:17Z</time>
      </trkpt>
      <trkpt lat="45.79265" lon="3.37102">
        <ele>320.2563477</ele>
        <time>2010-12-12T08:52:25Z</time>
      </trkpt>
      <trkpt lat="45.79247" lon="3.37121">
        <ele>319.7756348</ele>
        <time>2010-12-12T08:52:33Z</time>
      </trkpt>
      <trkpt lat="45.79233" lon="3.37133">
        <ele>320.2563477</ele>
        <time>2010-12-12T08:52:39Z</time>
      </trkpt>
      <trkpt lat="45.79222" lon="3.37143">
        <ele>319.7756348</ele>
        <time>2010-12-12T08:52:44Z</time>
      </trkpt>
      <trkpt lat="45.7921" lon="3.37156">
        <ele>319.7756348</ele>
        <time>2010-12-12T08:52:50Z</time>
      </trkpt>
      <trkpt lat="45.79196" lon="3.37172">
        <ele>319.2950439</ele>
        <time>2010-12-12T08:52:57Z</time>
      </trkpt>
      <trkpt lat="45.79183" lon="3.37183">
        <ele>319.7756348</ele>
        <time>2010-12-12T08:53:03Z</time>
      </trkpt>
      <trkpt lat="45.79173" lon="3.37194">
        <ele>319.7756348</ele>
        <time>2010-12-12T08:53:10Z</time>
      </trkpt>
      <trkpt lat="45.79174" lon="3.37196">
        <ele>320.2563477</ele>
        <time>2010-12-12T08:53:16Z</time>
      </trkpt>
      <trkpt lat="45.79174" lon="3.37196">
        <ele>319.7756348</ele>
        <time>2010-12-12T08:53:20Z</time>
      </trkpt>
      <trkpt lat="45.79174" lon="3.37196">
        <ele>319.7756348</ele>
        <time>2010-12-12T08:53:24Z</time>
      </trkpt>
      <trkpt lat="45.79175" lon="3.37196">
        <ele>319.2950439</ele>
        <time>2010-12-12T08:53:29Z</time>
      </trkpt>
      <trkpt lat="45.79175" lon="3.37196">
        <ele>320.2563477</ele>
        <time>2010-12-12T08:53:36Z</time>
      </trkpt>
      <trkpt lat="45.79175" lon="3.37196">
        <ele>319.7756348</ele>
        <time>2010-12-12T08:53:40Z</time>
      </trkpt>
      <trkpt lat="45.79175" lon="3.37196">
        <ele>320.2563477</ele>
        <time>2010-12-12T08:53:44Z</time>
      </trkpt>
      <trkpt lat="45.79174" lon="3.37196">
        <ele>320.2563477</ele>
        <time>2010-12-12T08:53:45Z</time>
      </trkpt>
      <trkpt lat="45.79174" lon="3.37196">
        <ele>320.2563477</ele>
        <time>2010-12-12T08:53:54Z</time>
      </trkpt>
      <trkpt lat="45.79174" lon="3.37195">
        <ele>320.2563477</ele>
        <time>2010-12-12T08:54:05Z</time>
      </trkpt>
      <trkpt lat="45.79174" lon="3.37196">
        <ele>320.2563477</ele>
        <time>2010-12-12T08:54:16Z</time>
      </trkpt>
      <trkpt lat="45.79174" lon="3.37196">
        <ele>320.7370605</ele>
        <time>2010-12-12T08:54:18Z</time>
      </trkpt>
      <trkpt lat="45.79174" lon="3.37196">
        <ele>320.7370605</ele>
        <time>2010-12-12T08:54:19Z</time>
      </trkpt>
      <trkpt lat="45.79174" lon="3.37196">
        <ele>320.2563477</ele>
        <time>2010-12-12T08:54:24Z</time>
      </trkpt>
      <trkpt lat="45.79174" lon="3.37196">
        <ele>320.7370605</ele>
        <time>2010-12-12T08:54:26Z</time>
      </trkpt>
      <trkpt lat="45.79174" lon="3.37196">
        <ele>320.2563477</ele>
        <time>2010-12-12T08:54:27Z</time>
      </trkpt>
      <trkpt lat="45.79174" lon="3.37197">
        <ele>320.7370605</ele>
        <time>2010-12-12T08:54:31Z</time>
      </trkpt>
      <trkpt lat="45.79175" lon="3.37199">
        <ele>320.7370605</ele>
        <time>2010-12-12T08:54:41Z</time>
      </trkpt>
      <trkpt lat="45.79174" lon="3.37199">
        <ele>320.7370605</ele>
        <time>2010-12-12T08:54:43Z</time>
      </trkpt>
      <trkpt lat="45.79174" lon="3.372">
        <ele>320.7370605</ele>
        <time>2010-12-12T08:54:45Z</time>
      </trkpt>
      <trkpt lat="45.79174" lon="3.372">
        <ele>320.7370605</ele>
        <time>2010-12-12T08:54:46Z</time>
      </trkpt>
      <trkpt lat="45.79174" lon="3.372">
        <ele>320.7370605</ele>
        <time>2010-12-12T08:54:47Z</time>
      </trkpt>
      <trkpt lat="45.79174" lon="3.37199">
        <ele>320.7370605</ele>
        <time>2010-12-12T08:55:08Z</time>
      </trkpt>
      <trkpt lat="45.79174" lon="3.37199">
        <ele>321.2177734</ele>
        <time>2010-12-12T08:55:10Z</time>
      </trkpt>
      <trkpt lat="45.79174" lon="3.37199">
        <ele>320.7370605</ele>
        <time>2010-12-12T08:55:12Z</time>
      </trkpt>
      <trkpt lat="45.79174" lon="3.37199">
        <ele>320.7370605</ele>
        <time>2010-12-12T08:55:13Z</time>
      </trkpt>
      <trkpt lat="45.79174" lon="3.37199">
        <ele>320.7370605</ele>
        <time>2010-12-12T08:55:14Z</time>
      </trkpt>
      <trkpt lat="45.79174" lon="3.37198">
        <ele>320.7370605</ele>
        <time>2010-12-12T08:55:26Z</time>
      </trkpt>
      <trkpt lat="45.79173" lon="3.37198">
        <ele>320.7370605</ele>
        <time>2010-12-12T08:56:14Z</time>
      </trkpt>
      <trkpt lat="45.79173" lon="3.37198">
        <ele>320.7370605</ele>
        <time>2010-12-12T08:56:18Z</time>
      </trkpt>
      <trkpt lat="45.79173" lon="3.37198">
        <ele>320.7370605</ele>
        <time>2010-12-12T08:56:20Z</time>
      </trkpt>
      <trkpt lat="45.7917" lon="3.37202">
        <ele>321.2177734</ele>
        <time>2010-12-12T08:56:27Z</time>
      </trkpt>
      <trkpt lat="45.79168" lon="3.37202">
        <ele>320.7370605</ele>
        <time>2010-12-12T08:56:28Z</time>
      </trkpt>
      <trkpt lat="45.79164" lon="3.37211">
        <ele>320.7370605</ele>
        <time>2010-12-12T08:56:32Z</time>
      </trkpt>
      <trkpt lat="45.79155" lon="3.3723">
        <ele>320.7370605</ele>
        <time>2010-12-12T08:56:39Z</time>
      </trkpt>
      <trkpt lat="45.79151" lon="3.37242">
        <ele>321.2177734</ele>
        <time>2010-12-12T08:56:43Z</time>
      </trkpt>
      <trkpt lat="45.7915" lon="3.37244">
        <ele>321.6983643</ele>
        <time>2010-12-12T08:56:44Z</time>
      </trkpt>
      <trkpt lat="45.79145" lon="3.37256">
        <ele>320.7370605</ele>
        <time>2010-12-12T08:56:49Z</time>
      </trkpt>
      <trkpt lat="45.79141" lon="3.37264">
        <ele>321.6983643</ele>
        <time>2010-12-12T08:56:52Z</time>
      </trkpt>
      <trkpt lat="45.79139" lon="3.37272">
        <ele>321.6983643</ele>
        <time>2010-12-12T08:56:55Z</time>
      </trkpt>
      <trkpt lat="45.79138" lon="3.37275">
        <ele>321.6983643</ele>
        <time>2010-12-12T08:56:56Z</time>
      </trkpt>
      <trkpt lat="45.79131" lon="3.37296">
        <ele>320.7370605</ele>
        <time>2010-12-12T08:57:03Z</time>
      </trkpt>
      <trkpt lat="45.79122" lon="3.37323">
        <ele>321.2177734</ele>
        <time>2010-12-12T08:57:11Z</time>
      </trkpt>
      <trkpt lat="45.79117" lon="3.37339">
        <ele>321.2177734</ele>
        <time>2010-12-12T08:57:16Z</time>
      </trkpt>
      <trkpt lat="45.79112" lon="3.37361">
        <ele>320.7370605</ele>
        <time>2010-12-12T08:57:23Z</time>
      </trkpt>
      <trkpt lat="45.79108" lon="3.3739">
        <ele>321.2177734</ele>
        <time>2010-12-12T08:57:32Z</time>
      </trkpt>
      <trkpt lat="45.79103" lon="3.37412">
        <ele>321.2177734</ele>
        <time>2010-12-12T08:57:39Z</time>
      </trkpt>
      <trkpt lat="45.79099" lon="3.37429">
        <ele>321.2177734</ele>
        <time>2010-12-12T08:57:44Z</time>
      </trkpt>
      <trkpt lat="45.79095" lon="3.37454">
        <ele>321.2177734</ele>
        <time>2010-12-12T08:57:51Z</time>
      </trkpt>
      <trkpt lat="45.79095" lon="3.37475">
        <ele>321.2177734</ele>
        <time>2010-12-12T08:57:56Z</time>
      </trkpt>
      <trkpt lat="45.79101" lon="3.37508">
        <ele>321.2177734</ele>
        <time>2010-12-12T08:58:04Z</time>
      </trkpt>
      <trkpt lat="45.79102" lon="3.37511">
        <ele>321.2177734</ele>
        <time>2010-12-12T08:58:05Z</time>
      </trkpt>
      <trkpt lat="45.79111" lon="3.37513">
        <ele>321.2177734</ele>
        <time>2010-12-12T08:58:09Z</time>
      </trkpt>
      <trkpt lat="45.79126" lon="3.37514">
        <ele>320.7370605</ele>
        <time>2010-12-12T08:58:16Z</time>
      </trkpt>
      <trkpt lat="45.79131" lon="3.37515">
        <ele>320.7370605</ele>
        <time>2010-12-12T08:58:18Z</time>
      </trkpt>
      <trkpt lat="45.79136" lon="3.37517">
        <ele>321.2177734</ele>
        <time>2010-12-12T08:58:20Z</time>
      </trkpt>
      <trkpt lat="45.79147" lon="3.37525">
        <ele>321.2177734</ele>
        <time>2010-12-12T08:58:25Z</time>
      </trkpt>
      <trkpt lat="45.79163" lon="3.37542">
        <ele>321.2177734</ele>
        <time>2010-12-12T08:58:33Z</time>
      </trkpt>
      <trkpt lat="45.79183" lon="3.3756">
        <ele>321.2177734</ele>
        <time>2010-12-12T08:58:41Z</time>
      </trkpt>
      <trkpt lat="45.792" lon="3.37577">
        <ele>321.2177734</ele>
        <time>2010-12-12T08:58:48Z</time>
      </trkpt>
      <trkpt lat="45.79222" lon="3.37609">
        <ele>320.7370605</ele>
        <time>2010-12-12T08:58:57Z</time>
      </trkpt>
      <trkpt lat="45.79243" lon="3.37645">
        <ele>320.2563477</ele>
        <time>2010-12-12T08:59:06Z</time>
      </trkpt>
      <trkpt lat="45.79259" lon="3.37672">
        <ele>320.2563477</ele>
        <time>2010-12-12T08:59:13Z</time>
      </trkpt>
      <trkpt lat="45.79272" lon="3.37697">
        <ele>320.2563477</ele>
        <time>2010-12-12T08:59:19Z</time>
      </trkpt>
      <trkpt lat="45.79274" lon="3.37701">
        <ele>320.2563477</ele>
        <time>2010-12-12T08:59:20Z</time>
      </trkpt>
      <trkpt lat="45.79288" lon="3.37741">
        <ele>320.2563477</ele>
        <time>2010-12-12T08:59:29Z</time>
      </trkpt>
      <trkpt lat="45.79304" lon="3.37774">
        <ele>320.7370605</ele>
        <time>2010-12-12T08:59:37Z</time>
      </trkpt>
      <trkpt lat="45.79317" lon="3.37795">
        <ele>320.7370605</ele>
        <time>2010-12-12T08:59:42Z</time>
      </trkpt>
      <trkpt lat="45.79338" lon="3.3783">
        <ele>320.7370605</ele>
        <time>2010-12-12T08:59:50Z</time>
      </trkpt>
      <trkpt lat="45.79363" lon="3.3787">
        <ele>320.7370605</ele>
        <time>2010-12-12T08:59:59Z</time>
      </trkpt>
      <trkpt lat="45.79365" lon="3.37875">
        <ele>320.7370605</ele>
        <time>2010-12-12T09:00:00Z</time>
      </trkpt>
      <trkpt lat="45.79393" lon="3.37929">
        <ele>320.7370605</ele>
        <time>2010-12-12T09:00:11Z</time>
      </trkpt>
      <trkpt lat="45.79421" lon="3.37985">
        <ele>320.2563477</ele>
        <time>2010-12-12T09:00:22Z</time>
      </trkpt>
      <trkpt lat="45.79441" lon="3.38027">
        <ele>320.7370605</ele>
        <time>2010-12-12T09:00:30Z</time>
      </trkpt>
      <trkpt lat="45.79474" lon="3.38095">
        <ele>320.7370605</ele>
        <time>2010-12-12T09:00:43Z</time>
      </trkpt>
      <trkpt lat="45.79484" lon="3.38115">
        <ele>320.2563477</ele>
        <time>2010-12-12T09:00:47Z</time>
      </trkpt>
      <trkpt lat="45.79515" lon="3.38167">
        <ele>321.2177734</ele>
        <time>2010-12-12T09:00:58Z</time>
      </trkpt>
      <trkpt lat="45.79521" lon="3.38177">
        <ele>320.7370605</ele>
        <time>2010-12-12T09:01:00Z</time>
      </trkpt>
      <trkpt lat="45.79545" lon="3.38214">
        <ele>321.2177734</ele>
        <time>2010-12-12T09:01:08Z</time>
      </trkpt>
      <trkpt lat="45.7957" lon="3.38253">
        <ele>320.7370605</ele>
        <time>2010-12-12T09:01:16Z</time>
      </trkpt>
      <trkpt lat="45.79596" lon="3.38298">
        <ele>321.2177734</ele>
        <time>2010-12-12T09:01:25Z</time>
      </trkpt>
      <trkpt lat="45.79608" lon="3.38324">
        <ele>320.7370605</ele>
        <time>2010-12-12T09:01:30Z</time>
      </trkpt>
      <trkpt lat="45.7964" lon="3.38377">
        <ele>320.7370605</ele>
        <time>2010-12-12T09:01:41Z</time>
      </trkpt>
      <trkpt lat="45.79652" lon="3.38395">
        <ele>320.2563477</ele>
        <time>2010-12-12T09:01:45Z</time>
      </trkpt>
      <trkpt lat="45.79678" lon="3.38432">
        <ele>319.7756348</ele>
        <time>2010-12-12T09:01:53Z</time>
      </trkpt>
      <trkpt lat="45.79683" lon="3.38441">
        <ele>319.7756348</ele>
        <time>2010-12-12T09:01:55Z</time>
      </trkpt>
      <trkpt lat="45.79714" lon="3.38485">
        <ele>320.2563477</ele>
        <time>2010-12-12T09:02:05Z</time>
      </trkpt>
      <trkpt lat="45.79723" lon="3.38498">
        <ele>320.7370605</ele>
        <time>2010-12-12T09:02:08Z</time>
      </trkpt>
      <trkpt lat="45.79748" lon="3.38534">
        <ele>320.7370605</ele>
        <time>2010-12-12T09:02:17Z</time>
      </trkpt>
      <trkpt lat="45.79751" lon="3.38539">
        <ele>320.7370605</ele>
        <time>2010-12-12T09:02:18Z</time>
      </trkpt>
      <trkpt lat="45.79755" lon="3.38568">
        <ele>320.7370605</ele>
        <time>2010-12-12T09:02:23Z</time>
      </trkpt>
      <trkpt lat="45.79752" lon="3.38611">
        <ele>320.7370605</ele>
        <time>2010-12-12T09:02:30Z</time>
      </trkpt>
      <trkpt lat="45.79756" lon="3.38654">
        <ele>321.2177734</ele>
        <time>2010-12-12T09:02:37Z</time>
      </trkpt>
      <trkpt lat="45.79762" lon="3.38689">
        <ele>321.2177734</ele>
        <time>2010-12-12T09:02:43Z</time>
      </trkpt>
      <trkpt lat="45.79771" lon="3.38743">
        <ele>320.7370605</ele>
        <time>2010-12-12T09:02:52Z</time>
      </trkpt>
      <trkpt lat="45.79784" lon="3.38794">
        <ele>321.2177734</ele>
        <time>2010-12-12T09:03:01Z</time>
      </trkpt>
      <trkpt lat="45.79797" lon="3.38826">
        <ele>322.1789551</ele>
        <time>2010-12-12T09:03:08Z</time>
      </trkpt>
      <trkpt lat="45.79803" lon="3.38836">
        <ele>321.6983643</ele>
        <time>2010-12-12T09:03:11Z</time>
      </trkpt>
      <trkpt lat="45.79815" lon="3.38838">
        <ele>322.1789551</ele>
        <time>2010-12-12T09:03:15Z</time>
      </trkpt>
      <trkpt lat="45.79847" lon="3.38831">
        <ele>321.6983643</ele>
        <time>2010-12-12T09:03:23Z</time>
      </trkpt>
      <trkpt lat="45.79884" lon="3.38823">
        <ele>321.6983643</ele>
        <time>2010-12-12T09:03:32Z</time>
      </trkpt>
      <trkpt lat="45.79922" lon="3.38816">
        <ele>321.6983643</ele>
        <time>2010-12-12T09:03:41Z</time>
      </trkpt>
      <trkpt lat="45.79964" lon="3.38808">
        <ele>321.6983643</ele>
        <time>2010-12-12T09:03:51Z</time>
      </trkpt>
      <trkpt lat="45.79995" lon="3.38804">
        <ele>322.1789551</ele>
        <time>2010-12-12T09:03:58Z</time>
      </trkpt>
      <trkpt lat="45.79999" lon="3.38803">
        <ele>322.1789551</ele>
        <time>2010-12-12T09:03:59Z</time>
      </trkpt>
      <trkpt lat="45.80012" lon="3.38802">
        <ele>322.1789551</ele>
        <time>2010-12-12T09:04:02Z</time>
      </trkpt>
      <trkpt lat="45.80036" lon="3.38799">
        <ele>322.659668</ele>
        <time>2010-12-12T09:04:08Z</time>
      </trkpt>
      <trkpt lat="45.80066" lon="3.38794">
        <ele>322.659668</ele>
        <time>2010-12-12T09:04:15Z</time>
      </trkpt>
      <trkpt lat="45.80103" lon="3.38788">
        <ele>323.1403809</ele>
        <time>2010-12-12T09:04:24Z</time>
      </trkpt>
      <trkpt lat="45.80148" lon="3.38782">
        <ele>323.1403809</ele>
        <time>2010-12-12T09:04:35Z</time>
      </trkpt>
      <trkpt lat="45.80184" lon="3.38777">
        <ele>323.6209717</ele>
        <time>2010-12-12T09:04:44Z</time>
      </trkpt>
      <trkpt lat="45.80213" lon="3.38773">
        <ele>324.1015625</ele>
        <time>2010-12-12T09:04:51Z</time>
      </trkpt>
      <trkpt lat="45.80248" lon="3.38767">
        <ele>326.0241699</ele>
        <time>2010-12-12T09:05:00Z</time>
      </trkpt>
      <trkpt lat="45.80252" lon="3.38767">
        <ele>326.5048828</ele>
        <time>2010-12-12T09:05:01Z</time>
      </trkpt>
      <trkpt lat="45.8029" lon="3.38761">
        <ele>326.9855957</ele>
        <time>2010-12-12T09:05:11Z</time>
      </trkpt>
      <trkpt lat="45.80299" lon="3.38761">
        <ele>326.5048828</ele>
        <time>2010-12-12T09:05:14Z</time>
      </trkpt>
      <trkpt lat="45.80303" lon="3.38774">
        <ele>326.9855957</ele>
        <time>2010-12-12T09:05:18Z</time>
      </trkpt>
      <trkpt lat="45.80301" lon="3.38817">
        <ele>326.0241699</ele>
        <time>2010-12-12T09:05:26Z</time>
      </trkpt>
      <trkpt lat="45.803" lon="3.38852">
        <ele>326.5048828</ele>
        <time>2010-12-12T09:05:32Z</time>
      </trkpt>
      <trkpt lat="45.80302" lon="3.38883">
        <ele>326.5048828</ele>
        <time>2010-12-12T09:05:37Z</time>
      </trkpt>
      <trkpt lat="45.80307" lon="3.3892">
        <ele>326.0241699</ele>
        <time>2010-12-12T09:05:43Z</time>
      </trkpt>
      <trkpt lat="45.80317" lon="3.3897">
        <ele>326.5048828</ele>
        <time>2010-12-12T09:05:51Z</time>
      </trkpt>
      <trkpt lat="45.80322" lon="3.39008">
        <ele>327.4661865</ele>
        <time>2010-12-12T09:05:58Z</time>
      </trkpt>
      <trkpt lat="45.80325" lon="3.39027">
        <ele>327.9467773</ele>
        <time>2010-12-12T09:06:03Z</time>
      </trkpt>
      <trkpt lat="45.80328" lon="3.39054">
        <ele>328.4276123</ele>
        <time>2010-12-12T09:06:10Z</time>
      </trkpt>
      <trkpt lat="45.8033" lon="3.39069">
        <ele>328.4276123</ele>
        <time>2010-12-12T09:06:16Z</time>
      </trkpt>
      <trkpt lat="45.8033" lon="3.39072">
        <ele>328.4276123</ele>
        <time>2010-12-12T09:06:19Z</time>
      </trkpt>
      <trkpt lat="45.80327" lon="3.39069">
        <ele>328.4276123</ele>
        <time>2010-12-12T09:06:24Z</time>
      </trkpt>
      <trkpt lat="45.8033" lon="3.39068">
        <ele>328.4276123</ele>
        <time>2010-12-12T09:06:28Z</time>
      </trkpt>
      <trkpt lat="45.80331" lon="3.39071">
        <ele>328.4276123</ele>
        <time>2010-12-12T09:06:33Z</time>
      </trkpt>
      <trkpt lat="45.80332" lon="3.39071">
        <ele>328.4276123</ele>
        <time>2010-12-12T09:06:42Z</time>
      </trkpt>
      <trkpt lat="45.80332" lon="3.39071">
        <ele>328.4276123</ele>
        <time>2010-12-12T09:06:46Z</time>
      </trkpt>
      <trkpt lat="45.80332" lon="3.39071">
        <ele>328.9083252</ele>
        <time>2010-12-12T09:06:52Z</time>
      </trkpt>
      <trkpt lat="45.80332" lon="3.39071">
        <ele>327.9467773</ele>
        <time>2010-12-12T09:06:53Z</time>
      </trkpt>
      <trkpt lat="45.80332" lon="3.39072">
        <ele>328.4276123</ele>
        <time>2010-12-12T09:07:00Z</time>
      </trkpt>
      <trkpt lat="45.80334" lon="3.39073">
        <ele>328.9083252</ele>
        <time>2010-12-12T09:07:08Z</time>
      </trkpt>
      <trkpt lat="45.80344" lon="3.39073">
        <ele>328.4276123</ele>
        <time>2010-12-12T09:07:14Z</time>
      </trkpt>
      <trkpt lat="45.80347" lon="3.39074">
        <ele>329.388916</ele>
        <time>2010-12-12T09:07:15Z</time>
      </trkpt>
      <trkpt lat="45.80374" lon="3.3909">
        <ele>328.9083252</ele>
        <time>2010-12-12T09:07:24Z</time>
      </trkpt>
      <trkpt lat="45.80395" lon="3.39104">
        <ele>329.8695068</ele>
        <time>2010-12-12T09:07:31Z</time>
      </trkpt>
      <trkpt lat="45.80414" lon="3.39115">
        <ele>329.8695068</ele>
        <time>2010-12-12T09:07:37Z</time>
      </trkpt>
      <trkpt lat="45.8043" lon="3.39125">
        <ele>330.8309326</ele>
        <time>2010-12-12T09:07:42Z</time>
      </trkpt>
      <trkpt lat="45.80446" lon="3.39134">
        <ele>330.8309326</ele>
        <time>2010-12-12T09:07:47Z</time>
      </trkpt>
      <trkpt lat="45.80481" lon="3.39157">
        <ele>332.2728271</ele>
        <time>2010-12-12T09:07:58Z</time>
      </trkpt>
      <trkpt lat="45.80505" lon="3.39179">
        <ele>332.75354</ele>
        <time>2010-12-12T09:08:06Z</time>
      </trkpt>
      <trkpt lat="45.8052" lon="3.39206">
        <ele>333.2341309</ele>
        <time>2010-12-12T09:08:13Z</time>
      </trkpt>
      <trkpt lat="45.80527" lon="3.39222">
        <ele>334.1954346</ele>
        <time>2010-12-12T09:08:19Z</time>
      </trkpt>
      <trkpt lat="45.80529" lon="3.39228">
        <ele>334.1954346</ele>
        <time>2010-12-12T09:08:25Z</time>
      </trkpt>
      <trkpt lat="45.80529" lon="3.39227">
        <ele>334.1954346</ele>
        <time>2010-12-12T09:08:31Z</time>
      </trkpt>
      <trkpt lat="45.80528" lon="3.39227">
        <ele>333.7147217</ele>
        <time>2010-12-12T09:08:37Z</time>
      </trkpt>
      <trkpt lat="45.80529" lon="3.39225">
        <ele>333.2341309</ele>
        <time>2010-12-12T09:08:58Z</time>
      </trkpt>
      <trkpt lat="45.8053" lon="3.39223">
        <ele>333.2341309</ele>
        <time>2010-12-12T09:09:51Z</time>
      </trkpt>
      <trkpt lat="45.8053" lon="3.39223">
        <ele>333.7147217</ele>
        <time>2010-12-12T09:09:52Z</time>
      </trkpt>
      <trkpt lat="45.8053" lon="3.39223">
        <ele>333.2341309</ele>
        <time>2010-12-12T09:09:59Z</time>
      </trkpt>
      <trkpt lat="45.8053" lon="3.39223">
        <ele>333.7147217</ele>
        <time>2010-12-12T09:10:05Z</time>
      </trkpt>
      <trkpt lat="45.80531" lon="3.39223">
        <ele>333.7147217</ele>
        <time>2010-12-12T09:10:25Z</time>
      </trkpt>
      <trkpt lat="45.8053" lon="3.39223">
        <ele>334.6761475</ele>
        <time>2010-12-12T09:10:29Z</time>
      </trkpt>
      <trkpt lat="45.8053" lon="3.39223">
        <ele>334.1954346</ele>
        <time>2010-12-12T09:10:30Z</time>
      </trkpt>
      <trkpt lat="45.8053" lon="3.39223">
        <ele>334.6761475</ele>
        <time>2010-12-12T09:10:31Z</time>
      </trkpt>
      <trkpt lat="45.8053" lon="3.39223">
        <ele>334.6761475</ele>
        <time>2010-12-12T09:10:34Z</time>
      </trkpt>
      <trkpt lat="45.8053" lon="3.39223">
        <ele>335.1567383</ele>
        <time>2010-12-12T09:10:46Z</time>
      </trkpt>
      <trkpt lat="45.8053" lon="3.39223">
        <ele>334.1954346</ele>
        <time>2010-12-12T09:10:47Z</time>
      </trkpt>
      <trkpt lat="45.80529" lon="3.39224">
        <ele>334.6761475</ele>
        <time>2010-12-12T09:10:49Z</time>
      </trkpt>
      <trkpt lat="45.80529" lon="3.39224">
        <ele>334.6761475</ele>
        <time>2010-12-12T09:10:51Z</time>
      </trkpt>
      <trkpt lat="45.80529" lon="3.39224">
        <ele>334.6761475</ele>
        <time>2010-12-12T09:10:52Z</time>
      </trkpt>
      <trkpt lat="45.80529" lon="3.39224">
        <ele>334.6761475</ele>
        <time>2010-12-12T09:10:56Z</time>
      </trkpt>
      <trkpt lat="45.80529" lon="3.39225">
        <ele>334.6761475</ele>
        <time>2010-12-12T09:11:12Z</time>
      </trkpt>
      <trkpt lat="45.80532" lon="3.39235">
        <ele>335.1567383</ele>
        <time>2010-12-12T09:11:17Z</time>
      </trkpt>
      <trkpt lat="45.80537" lon="3.39251">
        <ele>335.1567383</ele>
        <time>2010-12-12T09:11:22Z</time>
      </trkpt>
      <trkpt lat="45.80542" lon="3.39272">
        <ele>335.1567383</ele>
        <time>2010-12-12T09:11:28Z</time>
      </trkpt>
      <trkpt lat="45.80545" lon="3.39283">
        <ele>335.6373291</ele>
        <time>2010-12-12T09:11:31Z</time>
      </trkpt>
      <trkpt lat="45.80551" lon="3.39307">
        <ele>336.598877</ele>
        <time>2010-12-12T09:11:37Z</time>
      </trkpt>
      <trkpt lat="45.80556" lon="3.39317">
        <ele>336.598877</ele>
        <time>2010-12-12T09:11:40Z</time>
      </trkpt>
      <trkpt lat="45.80558" lon="3.3932">
        <ele>337.0794678</ele>
        <time>2010-12-12T09:11:41Z</time>
      </trkpt>
      <trkpt lat="45.80574" lon="3.39334">
        <ele>338.0407715</ele>
        <time>2010-12-12T09:11:47Z</time>
      </trkpt>
      <trkpt lat="45.80582" lon="3.39345">
        <ele>339.482666</ele>
        <time>2010-12-12T09:11:50Z</time>
      </trkpt>
      <trkpt lat="45.80586" lon="3.39359">
        <ele>341.4052734</ele>
        <time>2010-12-12T09:11:53Z</time>
      </trkpt>
      <trkpt lat="45.80589" lon="3.39368">
        <ele>342.84729</ele>
        <time>2010-12-12T09:11:55Z</time>
      </trkpt>
      <trkpt lat="45.80588" lon="3.39383">
        <ele>344.2894287</ele>
        <time>2010-12-12T09:11:58Z</time>
      </trkpt>
      <trkpt lat="45.80587" lon="3.39393">
        <ele>345.7313232</ele>
        <time>2010-12-12T09:12:00Z</time>
      </trkpt>
      <trkpt lat="45.80587" lon="3.39398">
        <ele>346.2120361</ele>
        <time>2010-12-12T09:12:01Z</time>
      </trkpt>
      <trkpt lat="45.80586" lon="3.39403">
        <ele>345.7313232</ele>
        <time>2010-12-12T09:12:02Z</time>
      </trkpt>
      <trkpt lat="45.80584" lon="3.39419">
        <ele>347.6539307</ele>
        <time>2010-12-12T09:12:05Z</time>
      </trkpt>
      <trkpt lat="45.80577" lon="3.39448">
        <ele>350.057251</ele>
        <time>2010-12-12T09:12:12Z</time>
      </trkpt>
      <trkpt lat="45.80571" lon="3.3946">
        <ele>350.5378418</ele>
        <time>2010-12-12T09:12:18Z</time>
      </trkpt>
      <trkpt lat="45.80562" lon="3.39467">
        <ele>350.5378418</ele>
        <time>2010-12-12T09:12:24Z</time>
      </trkpt>
      <trkpt lat="45.80557" lon="3.39474">
        <ele>351.0184326</ele>
        <time>2010-12-12T09:12:30Z</time>
      </trkpt>
      <trkpt lat="45.80558" lon="3.39474">
        <ele>351.0184326</ele>
        <time>2010-12-12T09:12:39Z</time>
      </trkpt>
      <trkpt lat="45.8056" lon="3.39475">
        <ele>351.0184326</ele>
        <time>2010-12-12T09:12:46Z</time>
      </trkpt>
      <trkpt lat="45.80554" lon="3.39479">
        <ele>350.5378418</ele>
        <time>2010-12-12T09:12:57Z</time>
      </trkpt>
      <trkpt lat="45.80539" lon="3.39493">
        <ele>351.0184326</ele>
        <time>2010-12-12T09:13:04Z</time>
      </trkpt>
      <trkpt lat="45.80526" lon="3.39506">
        <ele>351.0184326</ele>
        <time>2010-12-12T09:13:10Z</time>
      </trkpt>
      <trkpt lat="45.80513" lon="3.39518">
        <ele>351.0184326</ele>
        <time>2010-12-12T09:13:16Z</time>
      </trkpt>
      <trkpt lat="45.80499" lon="3.3953">
        <ele>349.5765381</ele>
        <time>2010-12-12T09:13:22Z</time>
      </trkpt>
      <trkpt lat="45.80484" lon="3.39542">
        <ele>351.0184326</ele>
        <time>2010-12-12T09:13:29Z</time>
      </trkpt>
      <trkpt lat="45.80467" lon="3.39557">
        <ele>351.0184326</ele>
        <time>2010-12-12T09:13:37Z</time>
      </trkpt>
      <trkpt lat="45.8045" lon="3.39573">
        <ele>351.9798584</ele>
        <time>2010-12-12T09:13:45Z</time>
      </trkpt>
      <trkpt lat="45.80432" lon="3.39589">
        <ele>351.9798584</ele>
        <time>2010-12-12T09:13:53Z</time>
      </trkpt>
      <trkpt lat="45.80411" lon="3.39606">
        <ele>352.4605713</ele>
        <time>2010-12-12T09:14:02Z</time>
      </trkpt>
      <trkpt lat="45.80389" lon="3.39625">
        <ele>353.421875</ele>
        <time>2010-12-12T09:14:12Z</time>
      </trkpt>
      <trkpt lat="45.80378" lon="3.39638">
        <ele>353.9025879</ele>
        <time>2010-12-12T09:14:19Z</time>
      </trkpt>
      <trkpt lat="45.80377" lon="3.39639">
        <ele>354.3831787</ele>
        <time>2010-12-12T09:14:20Z</time>
      </trkpt>
      <trkpt lat="45.80376" lon="3.39642">
        <ele>354.3831787</ele>
        <time>2010-12-12T09:14:23Z</time>
      </trkpt>
      <trkpt lat="45.80375" lon="3.39647">
        <ele>355.3444824</ele>
        <time>2010-12-12T09:14:27Z</time>
      </trkpt>
      <trkpt lat="45.80377" lon="3.39646">
        <ele>355.3444824</ele>
        <time>2010-12-12T09:14:29Z</time>
      </trkpt>
      <trkpt lat="45.80374" lon="3.3964">
        <ele>354.3831787</ele>
        <time>2010-12-12T09:14:34Z</time>
      </trkpt>
      <trkpt lat="45.80376" lon="3.39635">
        <ele>354.3831787</ele>
        <time>2010-12-12T09:14:39Z</time>
      </trkpt>
      <trkpt lat="45.80377" lon="3.39637">
        <ele>354.8637695</ele>
        <time>2010-12-12T09:14:41Z</time>
      </trkpt>
      <trkpt lat="45.80376" lon="3.39644">
        <ele>354.8637695</ele>
        <time>2010-12-12T09:14:46Z</time>
      </trkpt>
      <trkpt lat="45.80376" lon="3.39644">
        <ele>354.8637695</ele>
        <time>2010-12-12T09:14:49Z</time>
      </trkpt>
      <trkpt lat="45.80374" lon="3.39645">
        <ele>355.3444824</ele>
        <time>2010-12-12T09:15:28Z</time>
      </trkpt>
      <trkpt lat="45.80374" lon="3.39644">
        <ele>354.8637695</ele>
        <time>2010-12-12T09:15:41Z</time>
      </trkpt>
      <trkpt lat="45.80374" lon="3.39644">
        <ele>355.3444824</ele>
        <time>2010-12-12T09:15:52Z</time>
      </trkpt>
      <trkpt lat="45.80374" lon="3.39643">
        <ele>355.3444824</ele>
        <time>2010-12-12T09:16:33Z</time>
      </trkpt>
      <trkpt lat="45.80374" lon="3.39644">
        <ele>355.3444824</ele>
        <time>2010-12-12T09:16:50Z</time>
      </trkpt>
      <trkpt lat="45.80375" lon="3.39644">
        <ele>355.3444824</ele>
        <time>2010-12-12T09:17:02Z</time>
      </trkpt>
      <trkpt lat="45.80375" lon="3.39644">
        <ele>354.8637695</ele>
        <time>2010-12-12T09:17:11Z</time>
      </trkpt>
      <trkpt lat="45.80375" lon="3.39644">
        <ele>355.3444824</ele>
        <time>2010-12-12T09:18:03Z</time>
      </trkpt>
      <trkpt lat="45.80374" lon="3.39644">
        <ele>354.8637695</ele>
        <time>2010-12-12T09:18:11Z</time>
      </trkpt>
      <trkpt lat="45.80373" lon="3.39652">
        <ele>355.3444824</ele>
        <time>2010-12-12T09:18:47Z</time>
      </trkpt>
      <trkpt lat="45.8037" lon="3.39674">
        <ele>356.3057861</ele>
        <time>2010-12-12T09:18:54Z</time>
      </trkpt>
      <trkpt lat="45.80367" lon="3.39692">
        <ele>357.2670898</ele>
        <time>2010-12-12T09:18:59Z</time>
      </trkpt>
      <trkpt lat="45.80365" lon="3.39699">
        <ele>357.7478027</ele>
        <time>2010-12-12T09:19:01Z</time>
      </trkpt>
      <trkpt lat="45.80362" lon="3.3971">
        <ele>358.2283936</ele>
        <time>2010-12-12T09:19:04Z</time>
      </trkpt>
      <trkpt lat="45.80358" lon="3.3972">
        <ele>358.7089844</ele>
        <time>2010-12-12T09:19:07Z</time>
      </trkpt>
      <trkpt lat="45.80355" lon="3.39725">
        <ele>360.151123</ele>
        <time>2010-12-12T09:19:09Z</time>
      </trkpt>
      <trkpt lat="45.80348" lon="3.39736">
        <ele>360.6317139</ele>
        <time>2010-12-12T09:19:13Z</time>
      </trkpt>
      <trkpt lat="45.80335" lon="3.39751">
        <ele>362.5543213</ele>
        <time>2010-12-12T09:19:20Z</time>
      </trkpt>
      <trkpt lat="45.80329" lon="3.39757">
        <ele>363.0350342</ele>
        <time>2010-12-12T09:19:23Z</time>
      </trkpt>
      <trkpt lat="45.80313" lon="3.39774">
        <ele>364.4769287</ele>
        <time>2010-12-12T09:19:32Z</time>
      </trkpt>
      <trkpt lat="45.80303" lon="3.39782">
        <ele>366.3995361</ele>
        <time>2010-12-12T09:19:37Z</time>
      </trkpt>
      <trkpt lat="45.80295" lon="3.39788">
        <ele>367.8415527</ele>
        <time>2010-12-12T09:19:41Z</time>
      </trkpt>
      <trkpt lat="45.80287" lon="3.39792">
        <ele>369.2836914</ele>
        <time>2010-12-12T09:19:45Z</time>
      </trkpt>
      <trkpt lat="45.80271" lon="3.39797">
        <ele>371.6868896</ele>
        <time>2010-12-12T09:19:53Z</time>
      </trkpt>
      <trkpt lat="45.80254" lon="3.39801">
        <ele>374.5708008</ele>
        <time>2010-12-12T09:20:02Z</time>
      </trkpt>
      <trkpt lat="45.80238" lon="3.39806">
        <ele>376.9742432</ele>
        <time>2010-12-12T09:20:10Z</time>
      </trkpt>
      <trkpt lat="45.80227" lon="3.3981">
        <ele>378.4161377</ele>
        <time>2010-12-12T09:20:15Z</time>
      </trkpt>
      <trkpt lat="45.80212" lon="3.39813">
        <ele>380.3387451</ele>
        <time>2010-12-12T09:20:23Z</time>
      </trkpt>
      <trkpt lat="45.80201" lon="3.39814">
        <ele>381.7806396</ele>
        <time>2010-12-12T09:20:29Z</time>
      </trkpt>
      <trkpt lat="45.80186" lon="3.39813">
        <ele>382.7420654</ele>
        <time>2010-12-12T09:20:36Z</time>
      </trkpt>
      <trkpt lat="45.80173" lon="3.39814">
        <ele>385.1453857</ele>
        <time>2010-12-12T09:20:43Z</time>
      </trkpt>
      <trkpt lat="45.8016" lon="3.39815">
        <ele>385.6259766</ele>
        <time>2010-12-12T09:20:50Z</time>
      </trkpt>
      <trkpt lat="45.80144" lon="3.39817">
        <ele>386.1066895</ele>
        <time>2010-12-12T09:20:58Z</time>
      </trkpt>
      <trkpt lat="45.80127" lon="3.39817">
        <ele>387.0679932</ele>
        <time>2010-12-12T09:21:06Z</time>
      </trkpt>
      <trkpt lat="45.80108" lon="3.39817">
        <ele>388.5100098</ele>
        <time>2010-12-12T09:21:14Z</time>
      </trkpt>
      <trkpt lat="45.80092" lon="3.39815">
        <ele>388.5100098</ele>
        <time>2010-12-12T09:21:21Z</time>
      </trkpt>
      <trkpt lat="45.80072" lon="3.39816">
        <ele>390.4326172</ele>
        <time>2010-12-12T09:21:29Z</time>
      </trkpt>
      <trkpt lat="45.80055" lon="3.39819">
        <ele>392.3553467</ele>
        <time>2010-12-12T09:21:36Z</time>
      </trkpt>
      <trkpt lat="45.80034" lon="3.39823">
        <ele>394.2779541</ele>
        <time>2010-12-12T09:21:45Z</time>
      </trkpt>
      <trkpt lat="45.80013" lon="3.39823">
        <ele>395.2391357</ele>
        <time>2010-12-12T09:21:53Z</time>
      </trkpt>
      <trkpt lat="45.7999" lon="3.39821">
        <ele>395.7198486</ele>
        <time>2010-12-12T09:22:02Z</time>
      </trkpt>
      <trkpt lat="45.79967" lon="3.39821">
        <ele>396.6811523</ele>
        <time>2010-12-12T09:22:10Z</time>
      </trkpt>
      <trkpt lat="45.79944" lon="3.39823">
        <ele>397.1617432</ele>
        <time>2010-12-12T09:22:18Z</time>
      </trkpt>
      <trkpt lat="45.79914" lon="3.3983">
        <ele>397.1617432</ele>
        <time>2010-12-12T09:22:28Z</time>
      </trkpt>
      <trkpt lat="45.799" lon="3.39833">
        <ele>397.6424561</ele>
        <time>2010-12-12T09:22:33Z</time>
      </trkpt>
      <trkpt lat="45.79879" lon="3.39845">
        <ele>399.0843506</ele>
        <time>2010-12-12T09:22:40Z</time>
      </trkpt>
      <trkpt lat="45.79867" lon="3.3986">
        <ele>400.0458984</ele>
        <time>2010-12-12T09:22:45Z</time>
      </trkpt>
      <trkpt lat="45.79856" lon="3.39871">
        <ele>401.487793</ele>
        <time>2010-12-12T09:22:49Z</time>
      </trkpt>
      <trkpt lat="45.79846" lon="3.39878">
        <ele>401.9685059</ele>
        <time>2010-12-12T09:22:53Z</time>
      </trkpt>
      <trkpt lat="45.79829" lon="3.39885">
        <ele>402.9296875</ele>
        <time>2010-12-12T09:22:59Z</time>
      </trkpt>
      <trkpt lat="45.79815" lon="3.39892">
        <ele>403.8911133</ele>
        <time>2010-12-12T09:23:06Z</time>
      </trkpt>
      <trkpt lat="45.79799" lon="3.399">
        <ele>404.3717041</ele>
        <time>2010-12-12T09:23:14Z</time>
      </trkpt>
      <trkpt lat="45.79782" lon="3.39908">
        <ele>405.3330078</ele>
        <time>2010-12-12T09:23:22Z</time>
      </trkpt>
      <trkpt lat="45.7976" lon="3.3992">
        <ele>405.8137207</ele>
        <time>2010-12-12T09:23:32Z</time>
      </trkpt>
      <trkpt lat="45.79744" lon="3.3993">
        <ele>406.2943115</ele>
        <time>2010-12-12T09:23:39Z</time>
      </trkpt>
      <trkpt lat="45.79728" lon="3.39942">
        <ele>407.2556152</ele>
        <time>2010-12-12T09:23:46Z</time>
      </trkpt>
      <trkpt lat="45.79706" lon="3.39958">
        <ele>408.6976318</ele>
        <time>2010-12-12T09:23:55Z</time>
      </trkpt>
      <trkpt lat="45.79682" lon="3.39972">
        <ele>409.6590576</ele>
        <time>2010-12-12T09:24:04Z</time>
      </trkpt>
      <trkpt lat="45.79664" lon="3.39985">
        <ele>410.6202393</ele>
        <time>2010-12-12T09:24:12Z</time>
      </trkpt>
      <trkpt lat="45.79659" lon="3.39988">
        <ele>410.6202393</ele>
        <time>2010-12-12T09:24:17Z</time>
      </trkpt>
      <trkpt lat="45.79655" lon="3.39991">
        <ele>410.6202393</ele>
        <time>2010-12-12T09:24:20Z</time>
      </trkpt>
      <trkpt lat="45.79651" lon="3.39994">
        <ele>411.1009521</ele>
        <time>2010-12-12T09:24:25Z</time>
      </trkpt>
      <trkpt lat="45.79651" lon="3.39994">
        <ele>411.581665</ele>
        <time>2010-12-12T09:24:31Z</time>
      </trkpt>
      <trkpt lat="45.79651" lon="3.39994">
        <ele>411.581665</ele>
        <time>2010-12-12T09:24:37Z</time>
      </trkpt>
      <trkpt lat="45.79651" lon="3.39995">
        <ele>411.1009521</ele>
        <time>2010-12-12T09:24:41Z</time>
      </trkpt>
      <trkpt lat="45.79651" lon="3.39995">
        <ele>411.581665</ele>
        <time>2010-12-12T09:24:44Z</time>
      </trkpt>
      <trkpt lat="45.7965" lon="3.39996">
        <ele>411.581665</ele>
        <time>2010-12-12T09:24:48Z</time>
      </trkpt>
      <trkpt lat="45.79649" lon="3.39997">
        <ele>411.581665</ele>
        <time>2010-12-12T09:25:04Z</time>
      </trkpt>
      <trkpt lat="45.79646" lon="3.39998">
        <ele>411.581665</ele>
        <time>2010-12-12T09:25:09Z</time>
      </trkpt>
      <trkpt lat="45.79646" lon="3.39998">
        <ele>411.581665</ele>
        <time>2010-12-12T09:25:17Z</time>
      </trkpt>
      <trkpt lat="45.79646" lon="3.39998">
        <ele>411.581665</ele>
        <time>2010-12-12T09:25:22Z</time>
      </trkpt>
      <trkpt lat="45.79646" lon="3.39998">
        <ele>411.581665</ele>
        <time>2010-12-12T09:25:45Z</time>
      </trkpt>
      <trkpt lat="45.79646" lon="3.39998">
        <ele>412.0622559</ele>
        <time>2010-12-12T09:25:55Z</time>
      </trkpt>
      <trkpt lat="45.79646" lon="3.39998">
        <ele>412.5428467</ele>
        <time>2010-12-12T09:26:03Z</time>
      </trkpt>
      <trkpt lat="45.79647" lon="3.39999">
        <ele>412.0622559</ele>
        <time>2010-12-12T09:26:14Z</time>
      </trkpt>
      <trkpt lat="45.79643" lon="3.40002">
        <ele>412.5428467</ele>
        <time>2010-12-12T09:26:18Z</time>
      </trkpt>
      <trkpt lat="45.7963" lon="3.40008">
        <ele>413.0235596</ele>
        <time>2010-12-12T09:26:24Z</time>
      </trkpt>
      <trkpt lat="45.79605" lon="3.40022">
        <ele>413.9848633</ele>
        <time>2010-12-12T09:26:34Z</time>
      </trkpt>
      <trkpt lat="45.79588" lon="3.40028">
        <ele>413.9848633</ele>
        <time>2010-12-12T09:26:41Z</time>
      </trkpt>
      <trkpt lat="45.79575" lon="3.40035">
        <ele>413.9848633</ele>
        <time>2010-12-12T09:26:47Z</time>
      </trkpt>
      <trkpt lat="45.79551" lon="3.40043">
        <ele>414.946167</ele>
        <time>2010-12-12T09:26:56Z</time>
      </trkpt>
      <trkpt lat="45.79536" lon="3.4005">
        <ele>414.946167</ele>
        <time>2010-12-12T09:27:02Z</time>
      </trkpt>
      <trkpt lat="45.79529" lon="3.40055">
        <ele>415.4268799</ele>
        <time>2010-12-12T09:27:05Z</time>
      </trkpt>
      <trkpt lat="45.79527" lon="3.40057">
        <ele>415.9074707</ele>
        <time>2010-12-12T09:27:06Z</time>
      </trkpt>
      <trkpt lat="45.79518" lon="3.40065">
        <ele>416.3881836</ele>
        <time>2010-12-12T09:27:10Z</time>
      </trkpt>
      <trkpt lat="45.79511" lon="3.40069">
        <ele>416.3881836</ele>
        <time>2010-12-12T09:27:13Z</time>
      </trkpt>
      <trkpt lat="45.79501" lon="3.40076">
        <ele>416.3881836</ele>
        <time>2010-12-12T09:27:17Z</time>
      </trkpt>
      <trkpt lat="45.79482" lon="3.40093">
        <ele>417.3496094</ele>
        <time>2010-12-12T09:27:25Z</time>
      </trkpt>
      <trkpt lat="45.79462" lon="3.4011">
        <ele>417.3496094</ele>
        <time>2010-12-12T09:27:33Z</time>
      </trkpt>
      <trkpt lat="45.79443" lon="3.40126">
        <ele>417.8302002</ele>
        <time>2010-12-12T09:27:40Z</time>
      </trkpt>
      <trkpt lat="45.79418" lon="3.40148">
        <ele>419.2722168</ele>
        <time>2010-12-12T09:27:49Z</time>
      </trkpt>
      <trkpt lat="45.794" lon="3.40173">
        <ele>420.7141113</ele>
        <time>2010-12-12T09:27:57Z</time>
      </trkpt>
      <trkpt lat="45.79382" lon="3.40194">
        <ele>420.2333984</ele>
        <time>2010-12-12T09:28:04Z</time>
      </trkpt>
      <trkpt lat="45.79358" lon="3.40209">
        <ele>419.2722168</ele>
        <time>2010-12-12T09:28:11Z</time>
      </trkpt>
      <trkpt lat="45.79335" lon="3.40228">
        <ele>419.2722168</ele>
        <time>2010-12-12T09:28:18Z</time>
      </trkpt>
      <trkpt lat="45.7931" lon="3.40248">
        <ele>420.2333984</ele>
        <time>2010-12-12T09:28:26Z</time>
      </trkpt>
      <trkpt lat="45.79293" lon="3.40261">
        <ele>420.7141113</ele>
        <time>2010-12-12T09:28:32Z</time>
      </trkpt>
      <trkpt lat="45.79272" lon="3.40278">
        <ele>422.1560059</ele>
        <time>2010-12-12T09:28:39Z</time>
      </trkpt>
      <trkpt lat="45.79239" lon="3.40306">
        <ele>423.5980225</ele>
        <time>2010-12-12T09:28:50Z</time>
      </trkpt>
      <trkpt lat="45.79219" lon="3.40326">
        <ele>424.0787354</ele>
        <time>2010-12-12T09:28:57Z</time>
      </trkpt>
      <trkpt lat="45.79193" lon="3.4035">
        <ele>426.9627686</ele>
        <time>2010-12-12T09:29:04Z</time>
      </trkpt>
      <trkpt lat="45.79183" lon="3.40358">
        <ele>428.4046631</ele>
        <time>2010-12-12T09:29:07Z</time>
      </trkpt>
      <trkpt lat="45.79175" lon="3.40368">
        <ele>428.885376</ele>
        <time>2010-12-12T09:29:11Z</time>
      </trkpt>
      <trkpt lat="45.79154" lon="3.40378">
        <ele>429.8465576</ele>
        <time>2010-12-12T09:29:18Z</time>
      </trkpt>
      <trkpt lat="45.7913" lon="3.4039">
        <ele>430.8079834</ele>
        <time>2010-12-12T09:29:26Z</time>
      </trkpt>
      <trkpt lat="45.79113" lon="3.4041">
        <ele>431.2885742</ele>
        <time>2010-12-12T09:29:32Z</time>
      </trkpt>
      <trkpt lat="45.79106" lon="3.40422">
        <ele>433.2113037</ele>
        <time>2010-12-12T09:29:35Z</time>
      </trkpt>
      <trkpt lat="45.79093" lon="3.4043">
        <ele>433.6918945</ele>
        <time>2010-12-12T09:29:41Z</time>
      </trkpt>
      <trkpt lat="45.79081" lon="3.40437">
        <ele>433.6918945</ele>
        <time>2010-12-12T09:29:47Z</time>
      </trkpt>
      <trkpt lat="45.79069" lon="3.40444">
        <ele>433.6918945</ele>
        <time>2010-12-12T09:29:52Z</time>
      </trkpt>
      <trkpt lat="45.79063" lon="3.40459">
        <ele>434.1726074</ele>
        <time>2010-12-12T09:29:57Z</time>
      </trkpt>
      <trkpt lat="45.79064" lon="3.40479">
        <ele>436.0952148</ele>
        <time>2010-12-12T09:30:02Z</time>
      </trkpt>
      <trkpt lat="45.79062" lon="3.4051">
        <ele>437.0565186</ele>
        <time>2010-12-12T09:30:10Z</time>
      </trkpt>
      <trkpt lat="45.7906" lon="3.40537">
        <ele>439.4597168</ele>
        <time>2010-12-12T09:30:17Z</time>
      </trkpt>
      <trkpt lat="45.79057" lon="3.40572">
        <ele>440.9018555</ele>
        <time>2010-12-12T09:30:26Z</time>
      </trkpt>
      <trkpt lat="45.79055" lon="3.40602">
        <ele>441.8631592</ele>
        <time>2010-12-12T09:30:34Z</time>
      </trkpt>
      <trkpt lat="45.7905" lon="3.40618">
        <ele>441.8631592</ele>
        <time>2010-12-12T09:30:39Z</time>
      </trkpt>
      <trkpt lat="45.79032" lon="3.4062">
        <ele>442.3438721</ele>
        <time>2010-12-12T09:30:45Z</time>
      </trkpt>
      <trkpt lat="45.79006" lon="3.40613">
        <ele>441.8631592</ele>
        <time>2010-12-12T09:30:52Z</time>
      </trkpt>
      <trkpt lat="45.78976" lon="3.40601">
        <ele>441.3824463</ele>
        <time>2010-12-12T09:30:59Z</time>
      </trkpt>
      <trkpt lat="45.78963" lon="3.40598">
        <ele>441.8631592</ele>
        <time>2010-12-12T09:31:02Z</time>
      </trkpt>
      <trkpt lat="45.78937" lon="3.40604">
        <ele>441.8631592</ele>
        <time>2010-12-12T09:31:08Z</time>
      </trkpt>
      <trkpt lat="45.78933" lon="3.40605">
        <ele>442.3438721</ele>
        <time>2010-12-12T09:31:09Z</time>
      </trkpt>
      <trkpt lat="45.78921" lon="3.40608">
        <ele>442.8244629</ele>
        <time>2010-12-12T09:31:12Z</time>
      </trkpt>
      <trkpt lat="45.78893" lon="3.40604">
        <ele>445.708374</ele>
        <time>2010-12-12T09:31:18Z</time>
      </trkpt>
      <trkpt lat="45.78874" lon="3.406">
        <ele>446.1890869</ele>
        <time>2010-12-12T09:31:22Z</time>
      </trkpt>
      <trkpt lat="45.7887" lon="3.406">
        <ele>447.1502686</ele>
        <time>2010-12-12T09:31:23Z</time>
      </trkpt>
      <trkpt lat="45.78852" lon="3.40596">
        <ele>448.5924072</ele>
        <time>2010-12-12T09:31:27Z</time>
      </trkpt>
      <trkpt lat="45.78844" lon="3.40592">
        <ele>449.5537109</ele>
        <time>2010-12-12T09:31:29Z</time>
      </trkpt>
      <trkpt lat="45.78818" lon="3.40577">
        <ele>451.9570313</ele>
        <time>2010-12-12T09:31:35Z</time>
      </trkpt>
      <trkpt lat="45.78814" lon="3.40574">
        <ele>451.9570313</ele>
        <time>2010-12-12T09:31:36Z</time>
      </trkpt>
      <trkpt lat="45.78802" lon="3.40561">
        <ele>453.3989258</ele>
        <time>2010-12-12T09:31:40Z</time>
      </trkpt>
      <trkpt lat="45.78794" lon="3.40551">
        <ele>454.3602295</ele>
        <time>2010-12-12T09:31:45Z</time>
      </trkpt>
      <trkpt lat="45.78782" lon="3.40538">
        <ele>454.3602295</ele>
        <time>2010-12-12T09:31:51Z</time>
      </trkpt>
      <trkpt lat="45.78776" lon="3.40534">
        <ele>454.3602295</ele>
        <time>2010-12-12T09:31:54Z</time>
      </trkpt>
      <trkpt lat="45.78774" lon="3.4053">
        <ele>454.8408203</ele>
        <time>2010-12-12T09:31:57Z</time>
      </trkpt>
      <trkpt lat="45.78775" lon="3.4054">
        <ele>454.8408203</ele>
        <time>2010-12-12T09:32:02Z</time>
      </trkpt>
      <trkpt lat="45.78769" lon="3.40549">
        <ele>455.3215332</ele>
        <time>2010-12-12T09:32:06Z</time>
      </trkpt>
      <trkpt lat="45.7876" lon="3.40573">
        <ele>457.2442627</ele>
        <time>2010-12-12T09:32:14Z</time>
      </trkpt>
      <trkpt lat="45.78755" lon="3.40581">
        <ele>458.6861572</ele>
        <time>2010-12-12T09:32:17Z</time>
      </trkpt>
      <trkpt lat="45.7875" lon="3.40596">
        <ele>459.647583</ele>
        <time>2010-12-12T09:32:22Z</time>
      </trkpt>
      <trkpt lat="45.78748" lon="3.40618">
        <ele>460.1281738</ele>
        <time>2010-12-12T09:32:28Z</time>
      </trkpt>
      <trkpt lat="45.78745" lon="3.40631">
        <ele>460.6087646</ele>
        <time>2010-12-12T09:32:34Z</time>
      </trkpt>
      <trkpt lat="45.78744" lon="3.40642">
        <ele>459.1668701</ele>
        <time>2010-12-12T09:32:40Z</time>
      </trkpt>
      <trkpt lat="45.78744" lon="3.4064">
        <ele>460.1281738</ele>
        <time>2010-12-12T09:32:45Z</time>
      </trkpt>
      <trkpt lat="45.78744" lon="3.40639">
        <ele>460.6087646</ele>
        <time>2010-12-12T09:32:46Z</time>
      </trkpt>
      <trkpt lat="45.78743" lon="3.40629">
        <ele>461.0894775</ele>
        <time>2010-12-12T09:32:51Z</time>
      </trkpt>
      <trkpt lat="45.78734" lon="3.40617">
        <ele>461.5701904</ele>
        <time>2010-12-12T09:32:57Z</time>
      </trkpt>
      <trkpt lat="45.78727" lon="3.40609">
        <ele>462.0507813</ele>
        <time>2010-12-12T09:33:01Z</time>
      </trkpt>
      <trkpt lat="45.78719" lon="3.4061">
        <ele>463.012085</ele>
        <time>2010-12-12T09:33:06Z</time>
      </trkpt>
      <trkpt lat="45.7871" lon="3.4061">
        <ele>463.4927979</ele>
        <time>2010-12-12T09:33:10Z</time>
      </trkpt>
      <trkpt lat="45.78707" lon="3.40607">
        <ele>463.9733887</ele>
        <time>2010-12-12T09:33:12Z</time>
      </trkpt>
      <trkpt lat="45.78698" lon="3.40601">
        <ele>464.4541016</ele>
        <time>2010-12-12T09:33:17Z</time>
      </trkpt>
      <trkpt lat="45.78698" lon="3.40599">
        <ele>464.4541016</ele>
        <time>2010-12-12T09:33:18Z</time>
      </trkpt>
      <trkpt lat="45.7869" lon="3.40593">
        <ele>464.4541016</ele>
        <time>2010-12-12T09:33:24Z</time>
      </trkpt>
      <trkpt lat="45.78685" lon="3.40594">
        <ele>463.9733887</ele>
        <time>2010-12-12T09:33:26Z</time>
      </trkpt>
      <trkpt lat="45.78674" lon="3.406">
        <ele>466.8574219</ele>
        <time>2010-12-12T09:33:32Z</time>
      </trkpt>
      <trkpt lat="45.78661" lon="3.40598">
        <ele>467.8187256</ele>
        <time>2010-12-12T09:33:39Z</time>
      </trkpt>
      <trkpt lat="45.78654" lon="3.406">
        <ele>467.8187256</ele>
        <time>2010-12-12T09:33:45Z</time>
      </trkpt>
      <trkpt lat="45.78646" lon="3.40599">
        <ele>468.2993164</ele>
        <time>2010-12-12T09:33:51Z</time>
      </trkpt>
      <trkpt lat="45.78635" lon="3.40594">
        <ele>468.7800293</ele>
        <time>2010-12-12T09:33:57Z</time>
      </trkpt>
      <trkpt lat="45.78624" lon="3.40584">
        <ele>468.7800293</ele>
        <time>2010-12-12T09:34:03Z</time>
      </trkpt>
      <trkpt lat="45.78614" lon="3.40576">
        <ele>468.7800293</ele>
        <time>2010-12-12T09:34:07Z</time>
      </trkpt>
      <trkpt lat="45.78604" lon="3.40573">
        <ele>469.741333</ele>
        <time>2010-12-12T09:34:11Z</time>
      </trkpt>
      <trkpt lat="45.78592" lon="3.40571">
        <ele>470.2219238</ele>
        <time>2010-12-12T09:34:16Z</time>
      </trkpt>
      <trkpt lat="45.78578" lon="3.40572">
        <ele>471.6639404</ele>
        <time>2010-12-12T09:34:22Z</time>
      </trkpt>
      <trkpt lat="45.78559" lon="3.40576">
        <ele>472.1446533</ele>
        <time>2010-12-12T09:34:29Z</time>
      </trkpt>
      <trkpt lat="45.78546" lon="3.40578">
        <ele>473.1060791</ele>
        <time>2010-12-12T09:34:34Z</time>
      </trkpt>
      <trkpt lat="45.78532" lon="3.40577">
        <ele>474.5479736</ele>
        <time>2010-12-12T09:34:39Z</time>
      </trkpt>
      <trkpt lat="45.78518" lon="3.4058">
        <ele>474.5479736</ele>
        <time>2010-12-12T09:34:44Z</time>
      </trkpt>
      <trkpt lat="45.78505" lon="3.40581">
        <ele>475.5092773</ele>
        <time>2010-12-12T09:34:50Z</time>
      </trkpt>
      <trkpt lat="45.78501" lon="3.40582">
        <ele>475.5092773</ele>
        <time>2010-12-12T09:34:55Z</time>
      </trkpt>
      <trkpt lat="45.785" lon="3.40582">
        <ele>475.9898682</ele>
        <time>2010-12-12T09:35:00Z</time>
      </trkpt>
      <trkpt lat="45.78498" lon="3.40582">
        <ele>475.5092773</ele>
        <time>2010-12-12T09:35:04Z</time>
      </trkpt>
      <trkpt lat="45.78494" lon="3.40584">
        <ele>475.9898682</ele>
        <time>2010-12-12T09:35:12Z</time>
      </trkpt>
      <trkpt lat="45.78494" lon="3.40584">
        <ele>475.5092773</ele>
        <time>2010-12-12T09:35:15Z</time>
      </trkpt>
      <trkpt lat="45.78493" lon="3.40584">
        <ele>475.9898682</ele>
        <time>2010-12-12T09:35:25Z</time>
      </trkpt>
      <trkpt lat="45.78493" lon="3.40585">
        <ele>476.4705811</ele>
        <time>2010-12-12T09:35:31Z</time>
      </trkpt>
      <trkpt lat="45.78494" lon="3.40584">
        <ele>475.9898682</ele>
        <time>2010-12-12T09:35:37Z</time>
      </trkpt>
      <trkpt lat="45.78494" lon="3.40582">
        <ele>475.9898682</ele>
        <time>2010-12-12T09:35:43Z</time>
      </trkpt>
      <trkpt lat="45.78494" lon="3.40582">
        <ele>475.5092773</ele>
        <time>2010-12-12T09:35:50Z</time>
      </trkpt>
      <trkpt lat="45.78494" lon="3.40581">
        <ele>475.9898682</ele>
        <time>2010-12-12T09:36:07Z</time>
      </trkpt>
      <trkpt lat="45.78494" lon="3.40581">
        <ele>475.5092773</ele>
        <time>2010-12-12T09:36:23Z</time>
      </trkpt>
      <trkpt lat="45.78495" lon="3.4058">
        <ele>475.5092773</ele>
        <time>2010-12-12T09:36:28Z</time>
      </trkpt>
      <trkpt lat="45.78496" lon="3.4058">
        <ele>475.5092773</ele>
        <time>2010-12-12T09:36:31Z</time>
      </trkpt>
      <trkpt lat="45.78497" lon="3.40581">
        <ele>475.0286865</ele>
        <time>2010-12-12T09:36:32Z</time>
      </trkpt>
      <trkpt lat="45.78499" lon="3.4058">
        <ele>475.5092773</ele>
        <time>2010-12-12T09:36:35Z</time>
      </trkpt>
      <trkpt lat="45.78502" lon="3.40588">
        <ele>475.5092773</ele>
        <time>2010-12-12T09:36:41Z</time>
      </trkpt>
      <trkpt lat="45.78498" lon="3.40591">
        <ele>475.9898682</ele>
        <time>2010-12-12T09:36:44Z</time>
      </trkpt>
      <trkpt lat="45.78491" lon="3.4059">
        <ele>475.9898682</ele>
        <time>2010-12-12T09:36:49Z</time>
      </trkpt>
      <trkpt lat="45.78486" lon="3.40598">
        <ele>476.4705811</ele>
        <time>2010-12-12T09:36:53Z</time>
      </trkpt>
      <trkpt lat="45.78484" lon="3.40614">
        <ele>476.4705811</ele>
        <time>2010-12-12T09:36:58Z</time>
      </trkpt>
      <trkpt lat="45.78479" lon="3.4063">
        <ele>476.4705811</ele>
        <time>2010-12-12T09:37:03Z</time>
      </trkpt>
      <trkpt lat="45.78475" lon="3.40647">
        <ele>475.9898682</ele>
        <time>2010-12-12T09:37:09Z</time>
      </trkpt>
      <trkpt lat="45.78467" lon="3.40662">
        <ele>475.9898682</ele>
        <time>2010-12-12T09:37:15Z</time>
      </trkpt>
      <trkpt lat="45.78465" lon="3.40666">
        <ele>475.9898682</ele>
        <time>2010-12-12T09:37:17Z</time>
      </trkpt>
      <trkpt lat="45.78458" lon="3.40674">
        <ele>475.9898682</ele>
        <time>2010-12-12T09:37:23Z</time>
      </trkpt>
      <trkpt lat="45.78454" lon="3.40683">
        <ele>475.0286865</ele>
        <time>2010-12-12T09:37:26Z</time>
      </trkpt>
      <trkpt lat="45.78447" lon="3.40699">
        <ele>474.5479736</ele>
        <time>2010-12-12T09:37:31Z</time>
      </trkpt>
      <trkpt lat="45.78439" lon="3.40707">
        <ele>474.0672607</ele>
        <time>2010-12-12T09:37:35Z</time>
      </trkpt>
      <trkpt lat="45.78429" lon="3.40712">
        <ele>474.0672607</ele>
        <time>2010-12-12T09:37:40Z</time>
      </trkpt>
      <trkpt lat="45.78426" lon="3.40714">
        <ele>473.1060791</ele>
        <time>2010-12-12T09:37:41Z</time>
      </trkpt>
      <trkpt lat="45.78407" lon="3.40721">
        <ele>473.1060791</ele>
        <time>2010-12-12T09:37:48Z</time>
      </trkpt>
      <trkpt lat="45.78394" lon="3.4072">
        <ele>472.6253662</ele>
        <time>2010-12-12T09:37:52Z</time>
      </trkpt>
      <trkpt lat="45.78377" lon="3.40719">
        <ele>472.6253662</ele>
        <time>2010-12-12T09:37:57Z</time>
      </trkpt>
      <trkpt lat="45.78356" lon="3.40715">
        <ele>472.6253662</ele>
        <time>2010-12-12T09:38:03Z</time>
      </trkpt>
      <trkpt lat="45.78339" lon="3.40718">
        <ele>473.1060791</ele>
        <time>2010-12-12T09:38:08Z</time>
      </trkpt>
      <trkpt lat="45.78327" lon="3.40716">
        <ele>474.0672607</ele>
        <time>2010-12-12T09:38:13Z</time>
      </trkpt>
      <trkpt lat="45.78316" lon="3.40711">
        <ele>475.0286865</ele>
        <time>2010-12-12T09:38:17Z</time>
      </trkpt>
      <trkpt lat="45.78307" lon="3.40706">
        <ele>475.9898682</ele>
        <time>2010-12-12T09:38:21Z</time>
      </trkpt>
      <trkpt lat="45.78302" lon="3.40704">
        <ele>476.4705811</ele>
        <time>2010-12-12T09:38:23Z</time>
      </trkpt>
      <trkpt lat="45.78286" lon="3.40698">
        <ele>477.4318848</ele>
        <time>2010-12-12T09:38:29Z</time>
      </trkpt>
      <trkpt lat="45.78267" lon="3.4069">
        <ele>477.9124756</ele>
        <time>2010-12-12T09:38:36Z</time>
      </trkpt>
      <trkpt lat="45.78257" lon="3.40684">
        <ele>478.8739014</ele>
        <time>2010-12-12T09:38:40Z</time>
      </trkpt>
      <trkpt lat="45.78252" lon="3.40672">
        <ele>480.315918</ele>
        <time>2010-12-12T09:38:44Z</time>
      </trkpt>
      <trkpt lat="45.78242" lon="3.4067">
        <ele>480.315918</ele>
        <time>2010-12-12T09:38:49Z</time>
      </trkpt>
      <trkpt lat="45.78239" lon="3.40671">
        <ele>480.315918</ele>
        <time>2010-12-12T09:38:50Z</time>
      </trkpt>
      <trkpt lat="45.78216" lon="3.40667">
        <ele>479.835083</ele>
        <time>2010-12-12T09:38:59Z</time>
      </trkpt>
      <trkpt lat="45.78202" lon="3.4066">
        <ele>480.315918</ele>
        <time>2010-12-12T09:39:05Z</time>
      </trkpt>
      <trkpt lat="45.78195" lon="3.40659">
        <ele>480.315918</ele>
        <time>2010-12-12T09:39:08Z</time>
      </trkpt>
      <trkpt lat="45.78188" lon="3.40669">
        <ele>479.3544922</ele>
        <time>2010-12-12T09:39:12Z</time>
      </trkpt>
      <trkpt lat="45.78178" lon="3.40673">
        <ele>478.8739014</ele>
        <time>2010-12-12T09:39:16Z</time>
      </trkpt>
      <trkpt lat="45.78165" lon="3.40672">
        <ele>477.9124756</ele>
        <time>2010-12-12T09:39:20Z</time>
      </trkpt>
      <trkpt lat="45.7815" lon="3.40659">
        <ele>478.3931885</ele>
        <time>2010-12-12T09:39:25Z</time>
      </trkpt>
      <trkpt lat="45.78137" lon="3.40661">
        <ele>477.4318848</ele>
        <time>2010-12-12T09:39:29Z</time>
      </trkpt>
      <trkpt lat="45.78125" lon="3.40661">
        <ele>476.9512939</ele>
        <time>2010-12-12T09:39:33Z</time>
      </trkpt>
      <trkpt lat="45.78113" lon="3.4066">
        <ele>475.9898682</ele>
        <time>2010-12-12T09:39:37Z</time>
      </trkpt>
      <trkpt lat="45.78108" lon="3.40659">
        <ele>475.9898682</ele>
        <time>2010-12-12T09:39:39Z</time>
      </trkpt>
      <trkpt lat="45.78103" lon="3.40661">
        <ele>475.5092773</ele>
        <time>2010-12-12T09:39:42Z</time>
      </trkpt>
      <trkpt lat="45.78101" lon="3.4066">
        <ele>475.0286865</ele>
        <time>2010-12-12T09:39:46Z</time>
      </trkpt>
      <trkpt lat="45.78099" lon="3.4066">
        <ele>475.5092773</ele>
        <time>2010-12-12T09:39:59Z</time>
      </trkpt>
      <trkpt lat="45.78097" lon="3.40659">
        <ele>475.0286865</ele>
        <time>2010-12-12T09:40:17Z</time>
      </trkpt>
      <trkpt lat="45.78097" lon="3.40658">
        <ele>475.0286865</ele>
        <time>2010-12-12T09:40:21Z</time>
      </trkpt>
      <trkpt lat="45.78097" lon="3.40658">
        <ele>475.0286865</ele>
        <time>2010-12-12T09:40:22Z</time>
      </trkpt>
      <trkpt lat="45.78097" lon="3.40658">
        <ele>475.5092773</ele>
        <time>2010-12-12T09:40:29Z</time>
      </trkpt>
      <trkpt lat="45.78096" lon="3.40659">
        <ele>475.0286865</ele>
        <time>2010-12-12T09:40:48Z</time>
      </trkpt>
      <trkpt lat="45.78095" lon="3.40659">
        <ele>475.0286865</ele>
        <time>2010-12-12T09:40:53Z</time>
      </trkpt>
      <trkpt lat="45.78088" lon="3.40658">
        <ele>474.5479736</ele>
        <time>2010-12-12T09:40:58Z</time>
      </trkpt>
      <trkpt lat="45.78076" lon="3.40649">
        <ele>473.1060791</ele>
        <time>2010-12-12T09:41:03Z</time>
      </trkpt>
      <trkpt lat="45.78064" lon="3.40639">
        <ele>473.5866699</ele>
        <time>2010-12-12T09:41:07Z</time>
      </trkpt>
      <trkpt lat="45.78061" lon="3.40617">
        <ele>474.5479736</ele>
        <time>2010-12-12T09:41:12Z</time>
      </trkpt>
      <trkpt lat="45.7806" lon="3.40608">
        <ele>474.5479736</ele>
        <time>2010-12-12T09:41:14Z</time>
      </trkpt>
      <trkpt lat="45.78061" lon="3.40598">
        <ele>475.5092773</ele>
        <time>2010-12-12T09:41:16Z</time>
      </trkpt>
      <trkpt lat="45.78062" lon="3.40589">
        <ele>477.4318848</ele>
        <time>2010-12-12T09:41:18Z</time>
      </trkpt>
      <trkpt lat="45.78064" lon="3.40585">
        <ele>476.9512939</ele>
        <time>2010-12-12T09:41:19Z</time>
      </trkpt>
      <trkpt lat="45.78067" lon="3.40573">
        <ele>478.3931885</ele>
        <time>2010-12-12T09:41:22Z</time>
      </trkpt>
      <trkpt lat="45.78067" lon="3.40569">
        <ele>477.9124756</ele>
        <time>2010-12-12T09:41:23Z</time>
      </trkpt>
      <trkpt lat="45.78064" lon="3.40538">
        <ele>479.3544922</ele>
        <time>2010-12-12T09:41:30Z</time>
      </trkpt>
      <trkpt lat="45.78068" lon="3.4052">
        <ele>479.835083</ele>
        <time>2010-12-12T09:41:35Z</time>
      </trkpt>
      <trkpt lat="45.78065" lon="3.405">
        <ele>480.315918</ele>
        <time>2010-12-12T09:41:40Z</time>
      </trkpt>
      <trkpt lat="45.78054" lon="3.40493">
        <ele>479.3544922</ele>
        <time>2010-12-12T09:41:44Z</time>
      </trkpt>
      <trkpt lat="45.78037" lon="3.40493">
        <ele>479.835083</ele>
        <time>2010-12-12T09:41:50Z</time>
      </trkpt>
      <trkpt lat="45.78018" lon="3.40496">
        <ele>478.3931885</ele>
        <time>2010-12-12T09:41:55Z</time>
      </trkpt>
      <trkpt lat="45.77997" lon="3.40484">
        <ele>477.9124756</ele>
        <time>2010-12-12T09:42:00Z</time>
      </trkpt>
      <trkpt lat="45.77976" lon="3.40465">
        <ele>477.4318848</ele>
        <time>2010-12-12T09:42:06Z</time>
      </trkpt>
      <trkpt lat="45.77942" lon="3.40452">
        <ele>477.4318848</ele>
        <time>2010-12-12T09:42:14Z</time>
      </trkpt>
      <trkpt lat="45.77926" lon="3.40448">
        <ele>477.4318848</ele>
        <time>2010-12-12T09:42:18Z</time>
      </trkpt>
      <trkpt lat="45.77922" lon="3.40447">
        <ele>477.9124756</ele>
        <time>2010-12-12T09:42:19Z</time>
      </trkpt>
      <trkpt lat="45.77901" lon="3.40439">
        <ele>477.4318848</ele>
        <time>2010-12-12T09:42:24Z</time>
      </trkpt>
      <trkpt lat="45.77887" lon="3.40433">
        <ele>476.9512939</ele>
        <time>2010-12-12T09:42:27Z</time>
      </trkpt>
      <trkpt lat="45.77866" lon="3.40433">
        <ele>475.5092773</ele>
        <time>2010-12-12T09:42:31Z</time>
      </trkpt>
      <trkpt lat="45.77848" lon="3.40438">
        <ele>474.0672607</ele>
        <time>2010-12-12T09:42:34Z</time>
      </trkpt>
      <trkpt lat="45.77821" lon="3.40444">
        <ele>474.0672607</ele>
        <time>2010-12-12T09:42:39Z</time>
      </trkpt>
      <trkpt lat="45.77804" lon="3.40454">
        <ele>473.5866699</ele>
        <time>2010-12-12T09:42:43Z</time>
      </trkpt>
      <trkpt lat="45.77794" lon="3.40466">
        <ele>473.5866699</ele>
        <time>2010-12-12T09:42:46Z</time>
      </trkpt>
      <trkpt lat="45.77777" lon="3.40487">
        <ele>472.1446533</ele>
        <time>2010-12-12T09:42:52Z</time>
      </trkpt>
      <trkpt lat="45.77766" lon="3.40497">
        <ele>471.6639404</ele>
        <time>2010-12-12T09:42:55Z</time>
      </trkpt>
      <trkpt lat="45.7774" lon="3.40524">
        <ele>468.2993164</ele>
        <time>2010-12-12T09:43:02Z</time>
      </trkpt>
      <trkpt lat="45.77722" lon="3.40542">
        <ele>466.376709</ele>
        <time>2010-12-12T09:43:07Z</time>
      </trkpt>
      <trkpt lat="45.77717" lon="3.40548">
        <ele>465.4155273</ele>
        <time>2010-12-12T09:43:09Z</time>
      </trkpt>
      <trkpt lat="45.77714" lon="3.4055">
        <ele>465.4155273</ele>
        <time>2010-12-12T09:43:10Z</time>
      </trkpt>
      <trkpt lat="45.77708" lon="3.40559">
        <ele>463.012085</ele>
        <time>2010-12-12T09:43:13Z</time>
      </trkpt>
      <trkpt lat="45.77704" lon="3.40567">
        <ele>462.0507813</ele>
        <time>2010-12-12T09:43:15Z</time>
      </trkpt>
      <trkpt lat="45.77707" lon="3.40586">
        <ele>459.647583</ele>
        <time>2010-12-12T09:43:19Z</time>
      </trkpt>
      <trkpt lat="45.77726" lon="3.40615">
        <ele>459.1668701</ele>
        <time>2010-12-12T09:43:27Z</time>
      </trkpt>
      <trkpt lat="45.77737" lon="3.40628">
        <ele>457.7249756</ele>
        <time>2010-12-12T09:43:31Z</time>
      </trkpt>
      <trkpt lat="45.77749" lon="3.4064">
        <ele>455.8022461</ele>
        <time>2010-12-12T09:43:35Z</time>
      </trkpt>
      <trkpt lat="45.77761" lon="3.40653">
        <ele>452.4376221</ele>
        <time>2010-12-12T09:43:39Z</time>
      </trkpt>
      <trkpt lat="45.77764" lon="3.40657">
        <ele>452.4376221</ele>
        <time>2010-12-12T09:43:40Z</time>
      </trkpt>
      <trkpt lat="45.77772" lon="3.40666">
        <ele>450.5150146</ele>
        <time>2010-12-12T09:43:42Z</time>
      </trkpt>
      <trkpt lat="45.77785" lon="3.40686">
        <ele>450.0344238</ele>
        <time>2010-12-12T09:43:46Z</time>
      </trkpt>
      <trkpt lat="45.77792" lon="3.40695">
        <ele>449.5537109</ele>
        <time>2010-12-12T09:43:48Z</time>
      </trkpt>
      <trkpt lat="45.7781" lon="3.40717">
        <ele>446.6696777</ele>
        <time>2010-12-12T09:43:53Z</time>
      </trkpt>
      <trkpt lat="45.7782" lon="3.40729">
        <ele>445.2276611</ele>
        <time>2010-12-12T09:43:56Z</time>
      </trkpt>
      <trkpt lat="45.77827" lon="3.40741">
        <ele>444.2664795</ele>
        <time>2010-12-12T09:44:00Z</time>
      </trkpt>
      <trkpt lat="45.77824" lon="3.40757">
        <ele>442.3438721</ele>
        <time>2010-12-12T09:44:05Z</time>
      </trkpt>
      <trkpt lat="45.77817" lon="3.40781">
        <ele>439.9404297</ele>
        <time>2010-12-12T09:44:11Z</time>
      </trkpt>
      <trkpt lat="45.77811" lon="3.40803">
        <ele>437.0565186</ele>
        <time>2010-12-12T09:44:16Z</time>
      </trkpt>
      <trkpt lat="45.77811" lon="3.40807">
        <ele>436.5759277</ele>
        <time>2010-12-12T09:44:17Z</time>
      </trkpt>
      <trkpt lat="45.77805" lon="3.40831">
        <ele>433.6918945</ele>
        <time>2010-12-12T09:44:22Z</time>
      </trkpt>
      <trkpt lat="45.77798" lon="3.40857">
        <ele>431.2885742</ele>
        <time>2010-12-12T09:44:27Z</time>
      </trkpt>
      <trkpt lat="45.77798" lon="3.40876">
        <ele>429.3659668</ele>
        <time>2010-12-12T09:44:31Z</time>
      </trkpt>
      <trkpt lat="45.77796" lon="3.40891">
        <ele>427.4433594</ele>
        <time>2010-12-12T09:44:34Z</time>
      </trkpt>
      <trkpt lat="45.77796" lon="3.40895">
        <ele>426.9627686</ele>
        <time>2010-12-12T09:44:35Z</time>
      </trkpt>
      <trkpt lat="45.77793" lon="3.40911">
        <ele>425.520752</ele>
        <time>2010-12-12T09:44:38Z</time>
      </trkpt>
      <trkpt lat="45.77791" lon="3.40927">
        <ele>424.0787354</ele>
        <time>2010-12-12T09:44:42Z</time>
      </trkpt>
      <trkpt lat="45.77785" lon="3.40934">
        <ele>422.1560059</ele>
        <time>2010-12-12T09:44:45Z</time>
      </trkpt>
      <trkpt lat="45.77776" lon="3.40932">
        <ele>420.7141113</ele>
        <time>2010-12-12T09:44:48Z</time>
      </trkpt>
      <trkpt lat="45.77757" lon="3.40923">
        <ele>419.7528076</ele>
        <time>2010-12-12T09:44:54Z</time>
      </trkpt>
      <trkpt lat="45.7773" lon="3.40909">
        <ele>419.2722168</ele>
        <time>2010-12-12T09:45:03Z</time>
      </trkpt>
      <trkpt lat="45.77717" lon="3.40904">
        <ele>417.8302002</ele>
        <time>2010-12-12T09:45:07Z</time>
      </trkpt>
      <trkpt lat="45.7771" lon="3.40902">
        <ele>417.8302002</ele>
        <time>2010-12-12T09:45:09Z</time>
      </trkpt>
      <trkpt lat="45.77696" lon="3.40901">
        <ele>417.3496094</ele>
        <time>2010-12-12T09:45:14Z</time>
      </trkpt>
      <trkpt lat="45.77683" lon="3.409">
        <ele>416.8688965</ele>
        <time>2010-12-12T09:45:19Z</time>
      </trkpt>
      <trkpt lat="45.77669" lon="3.40901">
        <ele>415.4268799</ele>
        <time>2010-12-12T09:45:25Z</time>
      </trkpt>
      <trkpt lat="45.77654" lon="3.40902">
        <ele>413.9848633</ele>
        <time>2010-12-12T09:45:32Z</time>
      </trkpt>
      <trkpt lat="45.77644" lon="3.40899">
        <ele>413.5042725</ele>
        <time>2010-12-12T09:45:38Z</time>
      </trkpt>
      <trkpt lat="45.77642" lon="3.40899">
        <ele>413.5042725</ele>
        <time>2010-12-12T09:45:42Z</time>
      </trkpt>
      <trkpt lat="45.77642" lon="3.40899">
        <ele>413.0235596</ele>
        <time>2010-12-12T09:45:49Z</time>
      </trkpt>
      <trkpt lat="45.77641" lon="3.40899">
        <ele>413.0235596</ele>
        <time>2010-12-12T09:45:58Z</time>
      </trkpt>
      <trkpt lat="45.7764" lon="3.40899">
        <ele>413.9848633</ele>
        <time>2010-12-12T09:46:27Z</time>
      </trkpt>
      <trkpt lat="45.7764" lon="3.40899">
        <ele>413.5042725</ele>
        <time>2010-12-12T09:46:32Z</time>
      </trkpt>
      <trkpt lat="45.7764" lon="3.40899">
        <ele>413.9848633</ele>
        <time>2010-12-12T09:46:38Z</time>
      </trkpt>
      <trkpt lat="45.77637" lon="3.40898">
        <ele>413.5042725</ele>
        <time>2010-12-12T09:46:45Z</time>
      </trkpt>
      <trkpt lat="45.77629" lon="3.40894">
        <ele>413.5042725</ele>
        <time>2010-12-12T09:46:49Z</time>
      </trkpt>
      <trkpt lat="45.77616" lon="3.40885">
        <ele>413.0235596</ele>
        <time>2010-12-12T09:46:55Z</time>
      </trkpt>
      <trkpt lat="45.77605" lon="3.40872">
        <ele>411.1009521</ele>
        <time>2010-12-12T09:47:00Z</time>
      </trkpt>
      <trkpt lat="45.77589" lon="3.40859">
        <ele>410.6202393</ele>
        <time>2010-12-12T09:47:06Z</time>
      </trkpt>
      <trkpt lat="45.77571" lon="3.40854">
        <ele>409.6590576</ele>
        <time>2010-12-12T09:47:11Z</time>
      </trkpt>
      <trkpt lat="45.77556" lon="3.40864">
        <ele>407.2556152</ele>
        <time>2010-12-12T09:47:15Z</time>
      </trkpt>
      <trkpt lat="45.77544" lon="3.40874">
        <ele>407.7363281</ele>
        <time>2010-12-12T09:47:19Z</time>
      </trkpt>
      <trkpt lat="45.77521" lon="3.40874">
        <ele>406.7749023</ele>
        <time>2010-12-12T09:47:26Z</time>
      </trkpt>
      <trkpt lat="45.77496" lon="3.40875">
        <ele>404.8522949</ele>
        <time>2010-12-12T09:47:33Z</time>
      </trkpt>
      <trkpt lat="45.77492" lon="3.40875">
        <ele>404.8522949</ele>
        <time>2010-12-12T09:47:34Z</time>
      </trkpt>
      <trkpt lat="45.77484" lon="3.40876">
        <ele>404.3717041</ele>
        <time>2010-12-12T09:47:38Z</time>
      </trkpt>
      <trkpt lat="45.77484" lon="3.40876">
        <ele>404.3717041</ele>
        <time>2010-12-12T09:47:42Z</time>
      </trkpt>
      <trkpt lat="45.77484" lon="3.40876">
        <ele>404.8522949</ele>
        <time>2010-12-12T09:47:45Z</time>
      </trkpt>
      <trkpt lat="45.77485" lon="3.40876">
        <ele>404.3717041</ele>
        <time>2010-12-12T09:47:46Z</time>
      </trkpt>
      <trkpt lat="45.77478" lon="3.40876">
        <ele>404.3717041</ele>
        <time>2010-12-12T09:48:00Z</time>
      </trkpt>
      <trkpt lat="45.77471" lon="3.40877">
        <ele>404.3717041</ele>
        <time>2010-12-12T09:48:04Z</time>
      </trkpt>
      <trkpt lat="45.7747" lon="3.40877">
        <ele>404.3717041</ele>
        <time>2010-12-12T09:48:09Z</time>
      </trkpt>
      <trkpt lat="45.77467" lon="3.40877">
        <ele>404.3717041</ele>
        <time>2010-12-12T09:48:17Z</time>
      </trkpt>
      <trkpt lat="45.77454" lon="3.40865">
        <ele>403.4104004</ele>
        <time>2010-12-12T09:48:24Z</time>
      </trkpt>
      <trkpt lat="45.77452" lon="3.40859">
        <ele>403.4104004</ele>
        <time>2010-12-12T09:48:26Z</time>
      </trkpt>
      <trkpt lat="45.77448" lon="3.40854">
        <ele>403.8911133</ele>
        <time>2010-12-12T09:48:28Z</time>
      </trkpt>
      <trkpt lat="45.77447" lon="3.40851">
        <ele>403.4104004</ele>
        <time>2010-12-12T09:48:29Z</time>
      </trkpt>
      <trkpt lat="45.77438" lon="3.40835">
        <ele>402.9296875</ele>
        <time>2010-12-12T09:48:34Z</time>
      </trkpt>
      <trkpt lat="45.7743" lon="3.40825">
        <ele>402.9296875</ele>
        <time>2010-12-12T09:48:37Z</time>
      </trkpt>
      <trkpt lat="45.77424" lon="3.40822">
        <ele>402.4490967</ele>
        <time>2010-12-12T09:48:39Z</time>
      </trkpt>
      <trkpt lat="45.77413" lon="3.40823">
        <ele>401.9685059</ele>
        <time>2010-12-12T09:48:42Z</time>
      </trkpt>
      <trkpt lat="45.77398" lon="3.40821">
        <ele>400.5264893</ele>
        <time>2010-12-12T09:48:45Z</time>
      </trkpt>
      <trkpt lat="45.77386" lon="3.40809">
        <ele>400.0458984</ele>
        <time>2010-12-12T09:48:48Z</time>
      </trkpt>
      <trkpt lat="45.77374" lon="3.40785">
        <ele>398.6037598</ele>
        <time>2010-12-12T09:48:53Z</time>
      </trkpt>
      <trkpt lat="45.77373" lon="3.40777">
        <ele>397.1617432</ele>
        <time>2010-12-12T09:48:55Z</time>
      </trkpt>
      <trkpt lat="45.77374" lon="3.40762">
        <ele>393.7972412</ele>
        <time>2010-12-12T09:48:58Z</time>
      </trkpt>
      <trkpt lat="45.77381" lon="3.40739">
        <ele>391.3937988</ele>
        <time>2010-12-12T09:49:02Z</time>
      </trkpt>
      <trkpt lat="45.77386" lon="3.40729">
        <ele>390.4326172</ele>
        <time>2010-12-12T09:49:04Z</time>
      </trkpt>
      <trkpt lat="45.77388" lon="3.40724">
        <ele>390.4326172</ele>
        <time>2010-12-12T09:49:05Z</time>
      </trkpt>
      <trkpt lat="45.77397" lon="3.40702">
        <ele>387.548584</ele>
        <time>2010-12-12T09:49:09Z</time>
      </trkpt>
      <trkpt lat="45.77399" lon="3.40696">
        <ele>386.5874023</ele>
        <time>2010-12-12T09:49:10Z</time>
      </trkpt>
      <trkpt lat="45.77411" lon="3.40673">
        <ele>384.184082</ele>
        <time>2010-12-12T09:49:14Z</time>
      </trkpt>
      <trkpt lat="45.77417" lon="3.40663">
        <ele>383.2226563</ele>
        <time>2010-12-12T09:49:16Z</time>
      </trkpt>
      <trkpt lat="45.77415" lon="3.4064">
        <ele>382.2613525</ele>
        <time>2010-12-12T09:49:20Z</time>
      </trkpt>
      <trkpt lat="45.77412" lon="3.40599">
        <ele>380.819458</ele>
        <time>2010-12-12T09:49:26Z</time>
      </trkpt>
      <trkpt lat="45.77409" lon="3.40559">
        <ele>380.3387451</ele>
        <time>2010-12-12T09:49:32Z</time>
      </trkpt>
      <trkpt lat="45.77409" lon="3.40529">
        <ele>380.819458</ele>
        <time>2010-12-12T09:49:37Z</time>
      </trkpt>
      <trkpt lat="45.7742" lon="3.40496">
        <ele>379.3774414</ele>
        <time>2010-12-12T09:49:43Z</time>
      </trkpt>
      <trkpt lat="45.77424" lon="3.40485">
        <ele>378.8968506</ele>
        <time>2010-12-12T09:49:45Z</time>
      </trkpt>
      <trkpt lat="45.77429" lon="3.40454">
        <ele>378.4161377</ele>
        <time>2010-12-12T09:49:50Z</time>
      </trkpt>
      <trkpt lat="45.77433" lon="3.40432">
        <ele>376.4935303</ele>
        <time>2010-12-12T09:49:53Z</time>
      </trkpt>
      <trkpt lat="45.77443" lon="3.40397">
        <ele>376.0128174</ele>
        <time>2010-12-12T09:49:58Z</time>
      </trkpt>
      <trkpt lat="45.77445" lon="3.40369">
        <ele>375.5321045</ele>
        <time>2010-12-12T09:50:02Z</time>
      </trkpt>
      <trkpt lat="45.77442" lon="3.40341">
        <ele>375.0515137</ele>
        <time>2010-12-12T09:50:06Z</time>
      </trkpt>
      <trkpt lat="45.77443" lon="3.40314">
        <ele>374.5708008</ele>
        <time>2010-12-12T09:50:10Z</time>
      </trkpt>
      <trkpt lat="45.77449" lon="3.40286">
        <ele>372.6481934</ele>
        <time>2010-12-12T09:50:14Z</time>
      </trkpt>
      <trkpt lat="45.77451" lon="3.40278">
        <ele>372.1674805</ele>
        <time>2010-12-12T09:50:15Z</time>
      </trkpt>
      <trkpt lat="45.77462" lon="3.40249">
        <ele>371.2062988</ele>
        <time>2010-12-12T09:50:19Z</time>
      </trkpt>
      <trkpt lat="45.7747" lon="3.40228">
        <ele>370.7255859</ele>
        <time>2010-12-12T09:50:22Z</time>
      </trkpt>
      <trkpt lat="45.77479" lon="3.40195">
        <ele>371.2062988</ele>
        <time>2010-12-12T09:50:27Z</time>
      </trkpt>
      <trkpt lat="45.77487" lon="3.4016">
        <ele>370.7255859</ele>
        <time>2010-12-12T09:50:32Z</time>
      </trkpt>
      <trkpt lat="45.77489" lon="3.40153">
        <ele>370.7255859</ele>
        <time>2010-12-12T09:50:33Z</time>
      </trkpt>
      <trkpt lat="45.7749" lon="3.4009">
        <ele>370.7255859</ele>
        <time>2010-12-12T09:50:42Z</time>
      </trkpt>
      <trkpt lat="45.77489" lon="3.40077">
        <ele>370.7255859</ele>
        <time>2010-12-12T09:50:44Z</time>
      </trkpt>
      <trkpt lat="45.77491" lon="3.40063">
        <ele>370.244873</ele>
        <time>2010-12-12T09:50:46Z</time>
      </trkpt>
      <trkpt lat="45.77497" lon="3.40036">
        <ele>368.8029785</ele>
        <time>2010-12-12T09:50:50Z</time>
      </trkpt>
      <trkpt lat="45.77514" lon="3.40001">
        <ele>367.3609619</ele>
        <time>2010-12-12T09:50:56Z</time>
      </trkpt>
      <trkpt lat="45.7753" lon="3.39977">
        <ele>365.9189453</ele>
        <time>2010-12-12T09:51:01Z</time>
      </trkpt>
      <trkpt lat="45.7755" lon="3.3995">
        <ele>363.5157471</ele>
        <time>2010-12-12T09:51:07Z</time>
      </trkpt>
      <trkpt lat="45.77576" lon="3.39919">
        <ele>363.0350342</ele>
        <time>2010-12-12T09:51:14Z</time>
      </trkpt>
      <trkpt lat="45.77585" lon="3.39907">
        <ele>361.5931396</ele>
        <time>2010-12-12T09:51:17Z</time>
      </trkpt>
      <trkpt lat="45.77601" lon="3.39886">
        <ele>359.6704102</ele>
        <time>2010-12-12T09:51:21Z</time>
      </trkpt>
      <trkpt lat="45.77612" lon="3.3986">
        <ele>355.3444824</ele>
        <time>2010-12-12T09:51:25Z</time>
      </trkpt>
      <trkpt lat="45.77616" lon="3.39843">
        <ele>354.3831787</ele>
        <time>2010-12-12T09:51:27Z</time>
      </trkpt>
      <trkpt lat="45.77623" lon="3.39819">
        <ele>352.4605713</ele>
        <time>2010-12-12T09:51:30Z</time>
      </trkpt>
      <trkpt lat="45.77642" lon="3.39787">
        <ele>350.5378418</ele>
        <time>2010-12-12T09:51:35Z</time>
      </trkpt>
      <trkpt lat="45.7766" lon="3.3977">
        <ele>349.0958252</ele>
        <time>2010-12-12T09:51:39Z</time>
      </trkpt>
      <trkpt lat="45.77692" lon="3.39746">
        <ele>348.1346436</ele>
        <time>2010-12-12T09:51:45Z</time>
      </trkpt>
      <trkpt lat="45.77696" lon="3.39741">
        <ele>348.6152344</ele>
        <time>2010-12-12T09:51:47Z</time>
      </trkpt>
      <trkpt lat="45.77694" lon="3.39726">
        <ele>346.692627</ele>
        <time>2010-12-12T09:51:51Z</time>
      </trkpt>
      <trkpt lat="45.77689" lon="3.39704">
        <ele>344.7700195</ele>
        <time>2010-12-12T09:51:55Z</time>
      </trkpt>
      <trkpt lat="45.77686" lon="3.39691">
        <ele>343.3278809</ele>
        <time>2010-12-12T09:51:57Z</time>
      </trkpt>
      <trkpt lat="45.7768" lon="3.39673">
        <ele>342.3666992</ele>
        <time>2010-12-12T09:52:01Z</time>
      </trkpt>
      <trkpt lat="45.77677" lon="3.39666">
        <ele>341.8859863</ele>
        <time>2010-12-12T09:52:04Z</time>
      </trkpt>
      <trkpt lat="45.77664" lon="3.39669">
        <ele>340.9246826</ele>
        <time>2010-12-12T09:52:09Z</time>
      </trkpt>
      <trkpt lat="45.77634" lon="3.39686">
        <ele>339.0020752</ele>
        <time>2010-12-12T09:52:17Z</time>
      </trkpt>
      <trkpt lat="45.77592" lon="3.3971">
        <ele>338.0407715</ele>
        <time>2010-12-12T09:52:26Z</time>
      </trkpt>
      <trkpt lat="45.77549" lon="3.39729">
        <ele>338.0407715</ele>
        <time>2010-12-12T09:52:35Z</time>
      </trkpt>
      <trkpt lat="45.7753" lon="3.39735">
        <ele>337.5600586</ele>
        <time>2010-12-12T09:52:39Z</time>
      </trkpt>
      <trkpt lat="45.77498" lon="3.39743">
        <ele>336.598877</ele>
        <time>2010-12-12T09:52:46Z</time>
      </trkpt>
      <trkpt lat="45.77493" lon="3.39744">
        <ele>337.0794678</ele>
        <time>2010-12-12T09:52:47Z</time>
      </trkpt>
      <trkpt lat="45.77475" lon="3.39741">
        <ele>336.1181641</ele>
        <time>2010-12-12T09:52:51Z</time>
      </trkpt>
      <trkpt lat="45.77454" lon="3.39747">
        <ele>335.6373291</ele>
        <time>2010-12-12T09:52:56Z</time>
      </trkpt>
      <trkpt lat="45.77451" lon="3.39752">
        <ele>336.1181641</ele>
        <time>2010-12-12T09:52:57Z</time>
      </trkpt>
      <trkpt lat="45.77439" lon="3.39773">
        <ele>336.1181641</ele>
        <time>2010-12-12T09:53:01Z</time>
      </trkpt>
      <trkpt lat="45.77406" lon="3.39808">
        <ele>335.6373291</ele>
        <time>2010-12-12T09:53:09Z</time>
      </trkpt>
      <trkpt lat="45.77388" lon="3.39827">
        <ele>336.1181641</ele>
        <time>2010-12-12T09:53:13Z</time>
      </trkpt>
      <trkpt lat="45.7738" lon="3.39836">
        <ele>335.6373291</ele>
        <time>2010-12-12T09:53:15Z</time>
      </trkpt>
      <trkpt lat="45.77346" lon="3.39878">
        <ele>336.1181641</ele>
        <time>2010-12-12T09:53:23Z</time>
      </trkpt>
      <trkpt lat="45.77329" lon="3.39915">
        <ele>336.1181641</ele>
        <time>2010-12-12T09:53:28Z</time>
      </trkpt>
      <trkpt lat="45.77319" lon="3.39936">
        <ele>336.598877</ele>
        <time>2010-12-12T09:53:31Z</time>
      </trkpt>
      <trkpt lat="45.7731" lon="3.39957">
        <ele>337.0794678</ele>
        <time>2010-12-12T09:53:34Z</time>
      </trkpt>
      <trkpt lat="45.77291" lon="3.39997">
        <ele>339.0020752</ele>
        <time>2010-12-12T09:53:40Z</time>
      </trkpt>
      <trkpt lat="45.77269" lon="3.40043">
        <ele>340.4440918</ele>
        <time>2010-12-12T09:53:47Z</time>
      </trkpt>
      <trkpt lat="45.77254" lon="3.40076">
        <ele>341.8859863</ele>
        <time>2010-12-12T09:53:52Z</time>
      </trkpt>
      <trkpt lat="45.77251" lon="3.40083">
        <ele>342.3666992</ele>
        <time>2010-12-12T09:53:53Z</time>
      </trkpt>
      <trkpt lat="45.77242" lon="3.40112">
        <ele>344.2894287</ele>
        <time>2010-12-12T09:53:57Z</time>
      </trkpt>
      <trkpt lat="45.77234" lon="3.40139">
        <ele>344.7700195</ele>
        <time>2010-12-12T09:54:01Z</time>
      </trkpt>
      <trkpt lat="45.77219" lon="3.40213">
        <ele>346.692627</ele>
        <time>2010-12-12T09:54:11Z</time>
      </trkpt>
      <trkpt lat="45.77208" lon="3.40278">
        <ele>348.6152344</ele>
        <time>2010-12-12T09:54:20Z</time>
      </trkpt>
      <trkpt lat="45.77197" lon="3.4034">
        <ele>350.057251</ele>
        <time>2010-12-12T09:54:29Z</time>
      </trkpt>
      <trkpt lat="45.77186" lon="3.40401">
        <ele>351.0184326</ele>
        <time>2010-12-12T09:54:38Z</time>
      </trkpt>
      <trkpt lat="45.77174" lon="3.40468">
        <ele>352.4605713</ele>
        <time>2010-12-12T09:54:48Z</time>
      </trkpt>
      <trkpt lat="45.77165" lon="3.40518">
        <ele>352.9411621</ele>
        <time>2010-12-12T09:54:55Z</time>
      </trkpt>
      <trkpt lat="45.77148" lon="3.40608">
        <ele>352.9411621</ele>
        <time>2010-12-12T09:55:07Z</time>
      </trkpt>
      <trkpt lat="45.77137" lon="3.4067">
        <ele>352.9411621</ele>
        <time>2010-12-12T09:55:15Z</time>
      </trkpt>
      <trkpt lat="45.77128" lon="3.40719">
        <ele>352.4605713</ele>
        <time>2010-12-12T09:55:21Z</time>
      </trkpt>
      <trkpt lat="45.77117" lon="3.40778">
        <ele>351.9798584</ele>
        <time>2010-12-12T09:55:28Z</time>
      </trkpt>
      <trkpt lat="45.77112" lon="3.40803">
        <ele>351.0184326</ele>
        <time>2010-12-12T09:55:31Z</time>
      </trkpt>
      <trkpt lat="45.77106" lon="3.40838">
        <ele>351.0184326</ele>
        <time>2010-12-12T09:55:35Z</time>
      </trkpt>
      <trkpt lat="45.77102" lon="3.409">
        <ele>349.5765381</ele>
        <time>2010-12-12T09:55:42Z</time>
      </trkpt>
      <trkpt lat="45.77102" lon="3.40919">
        <ele>349.0958252</ele>
        <time>2010-12-12T09:55:44Z</time>
      </trkpt>
      <trkpt lat="45.77099" lon="3.40946">
        <ele>349.0958252</ele>
        <time>2010-12-12T09:55:47Z</time>
      </trkpt>
      <trkpt lat="45.77096" lon="3.40972">
        <ele>349.0958252</ele>
        <time>2010-12-12T09:55:50Z</time>
      </trkpt>
      <trkpt lat="45.7709" lon="3.40987">
        <ele>348.6152344</ele>
        <time>2010-12-12T09:55:52Z</time>
      </trkpt>
      <trkpt lat="45.77077" lon="3.40996">
        <ele>348.6152344</ele>
        <time>2010-12-12T09:55:55Z</time>
      </trkpt>
      <trkpt lat="45.77054" lon="3.41011">
        <ele>348.6152344</ele>
        <time>2010-12-12T09:56:00Z</time>
      </trkpt>
      <trkpt lat="45.7705" lon="3.41024">
        <ele>348.6152344</ele>
        <time>2010-12-12T09:56:02Z</time>
      </trkpt>
      <trkpt lat="45.77042" lon="3.41087">
        <ele>348.1346436</ele>
        <time>2010-12-12T09:56:10Z</time>
      </trkpt>
      <trkpt lat="45.7704" lon="3.41104">
        <ele>347.6539307</ele>
        <time>2010-12-12T09:56:12Z</time>
      </trkpt>
      <trkpt lat="45.77034" lon="3.41127">
        <ele>347.6539307</ele>
        <time>2010-12-12T09:56:15Z</time>
      </trkpt>
      <trkpt lat="45.77012" lon="3.4117">
        <ele>346.2120361</ele>
        <time>2010-12-12T09:56:21Z</time>
      </trkpt>
      <trkpt lat="45.76989" lon="3.41211">
        <ele>346.692627</ele>
        <time>2010-12-12T09:56:27Z</time>
      </trkpt>
      <trkpt lat="45.7697" lon="3.41246">
        <ele>348.1346436</ele>
        <time>2010-12-12T09:56:32Z</time>
      </trkpt>
      <trkpt lat="45.76955" lon="3.41273">
        <ele>348.6152344</ele>
        <time>2010-12-12T09:56:36Z</time>
      </trkpt>
      <trkpt lat="45.76943" lon="3.41292">
        <ele>348.6152344</ele>
        <time>2010-12-12T09:56:39Z</time>
      </trkpt>
      <trkpt lat="45.76935" lon="3.41303">
        <ele>349.0958252</ele>
        <time>2010-12-12T09:56:41Z</time>
      </trkpt>
      <trkpt lat="45.76898" lon="3.41344">
        <ele>349.0958252</ele>
        <time>2010-12-12T09:56:49Z</time>
      </trkpt>
      <trkpt lat="45.7685" lon="3.41394">
        <ele>349.5765381</ele>
        <time>2010-12-12T09:56:59Z</time>
      </trkpt>
      <trkpt lat="45.76802" lon="3.41443">
        <ele>350.057251</ele>
        <time>2010-12-12T09:57:09Z</time>
      </trkpt>
      <trkpt lat="45.76764" lon="3.41482">
        <ele>351.4991455</ele>
        <time>2010-12-12T09:57:17Z</time>
      </trkpt>
      <trkpt lat="45.76722" lon="3.41525">
        <ele>351.9798584</ele>
        <time>2010-12-12T09:57:26Z</time>
      </trkpt>
      <trkpt lat="45.76671" lon="3.41578">
        <ele>352.4605713</ele>
        <time>2010-12-12T09:57:37Z</time>
      </trkpt>
      <trkpt lat="45.76631" lon="3.4162">
        <ele>353.421875</ele>
        <time>2010-12-12T09:57:46Z</time>
      </trkpt>
      <trkpt lat="45.76622" lon="3.41629">
        <ele>354.3831787</ele>
        <time>2010-12-12T09:57:48Z</time>
      </trkpt>
      <trkpt lat="45.76583" lon="3.41669">
        <ele>354.8637695</ele>
        <time>2010-12-12T09:57:57Z</time>
      </trkpt>
      <trkpt lat="45.76552" lon="3.41702">
        <ele>354.8637695</ele>
        <time>2010-12-12T09:58:04Z</time>
      </trkpt>
      <trkpt lat="45.76512" lon="3.41744">
        <ele>352.9411621</ele>
        <time>2010-12-12T09:58:13Z</time>
      </trkpt>
      <trkpt lat="45.7649" lon="3.41767">
        <ele>351.9798584</ele>
        <time>2010-12-12T09:58:18Z</time>
      </trkpt>
      <trkpt lat="45.7646" lon="3.41795">
        <ele>351.4991455</ele>
        <time>2010-12-12T09:58:24Z</time>
      </trkpt>
      <trkpt lat="45.76444" lon="3.41806">
        <ele>351.4991455</ele>
        <time>2010-12-12T09:58:27Z</time>
      </trkpt>
      <trkpt lat="45.76428" lon="3.41816">
        <ele>351.0184326</ele>
        <time>2010-12-12T09:58:30Z</time>
      </trkpt>
      <trkpt lat="45.76419" lon="3.41821">
        <ele>351.0184326</ele>
        <time>2010-12-12T09:58:32Z</time>
      </trkpt>
      <trkpt lat="45.76414" lon="3.41823">
        <ele>350.5378418</ele>
        <time>2010-12-12T09:58:33Z</time>
      </trkpt>
      <trkpt lat="45.76396" lon="3.41826">
        <ele>351.4991455</ele>
        <time>2010-12-12T09:58:38Z</time>
      </trkpt>
      <trkpt lat="45.76393" lon="3.41825">
        <ele>351.9798584</ele>
        <time>2010-12-12T09:58:40Z</time>
      </trkpt>
      <trkpt lat="45.7638" lon="3.41823">
        <ele>351.4991455</ele>
        <time>2010-12-12T09:58:45Z</time>
      </trkpt>
      <trkpt lat="45.76366" lon="3.4183">
        <ele>352.4605713</ele>
        <time>2010-12-12T09:58:49Z</time>
      </trkpt>
      <trkpt lat="45.76356" lon="3.41836">
        <ele>352.4605713</ele>
        <time>2010-12-12T09:58:52Z</time>
      </trkpt>
      <trkpt lat="45.76346" lon="3.41841">
        <ele>352.4605713</ele>
        <time>2010-12-12T09:58:55Z</time>
      </trkpt>
      <trkpt lat="45.76342" lon="3.41842">
        <ele>351.4991455</ele>
        <time>2010-12-12T09:58:56Z</time>
      </trkpt>
      <trkpt lat="45.76339" lon="3.41843">
        <ele>351.4991455</ele>
        <time>2010-12-12T09:58:57Z</time>
      </trkpt>
      <trkpt lat="45.76316" lon="3.41856">
        <ele>351.9798584</ele>
        <time>2010-12-12T09:59:03Z</time>
      </trkpt>
      <trkpt lat="45.76298" lon="3.41863">
        <ele>352.4605713</ele>
        <time>2010-12-12T09:59:09Z</time>
      </trkpt>
      <trkpt lat="45.76283" lon="3.41868">
        <ele>351.9798584</ele>
        <time>2010-12-12T09:59:13Z</time>
      </trkpt>
      <trkpt lat="45.76255" lon="3.41867">
        <ele>351.9798584</ele>
        <time>2010-12-12T09:59:20Z</time>
      </trkpt>
      <trkpt lat="45.76236" lon="3.4186">
        <ele>351.4991455</ele>
        <time>2010-12-12T09:59:25Z</time>
      </trkpt>
      <trkpt lat="45.76227" lon="3.41852">
        <ele>351.9798584</ele>
        <time>2010-12-12T09:59:28Z</time>
      </trkpt>
      <trkpt lat="45.76227" lon="3.41835">
        <ele>351.4991455</ele>
        <time>2010-12-12T09:59:33Z</time>
      </trkpt>
      <trkpt lat="45.76233" lon="3.41822">
        <ele>351.4991455</ele>
        <time>2010-12-12T09:59:36Z</time>
      </trkpt>
      <trkpt lat="45.76254" lon="3.41801">
        <ele>351.4991455</ele>
        <time>2010-12-12T09:59:43Z</time>
      </trkpt>
      <trkpt lat="45.76267" lon="3.41782">
        <ele>353.421875</ele>
        <time>2010-12-12T09:59:48Z</time>
      </trkpt>
      <trkpt lat="45.7627" lon="3.41775">
        <ele>353.9025879</ele>
        <time>2010-12-12T09:59:50Z</time>
      </trkpt>
      <trkpt lat="45.76268" lon="3.41757">
        <ele>353.9025879</ele>
        <time>2010-12-12T09:59:56Z</time>
      </trkpt>
      <trkpt lat="45.76268" lon="3.41752">
        <ele>353.421875</ele>
        <time>2010-12-12T09:59:58Z</time>
      </trkpt>
      <trkpt lat="45.76273" lon="3.41736">
        <ele>353.421875</ele>
        <time>2010-12-12T10:00:03Z</time>
      </trkpt>
      <trkpt lat="45.7628" lon="3.41725">
        <ele>353.9025879</ele>
        <time>2010-12-12T10:00:08Z</time>
      </trkpt>
      <trkpt lat="45.76288" lon="3.41715">
        <ele>353.421875</ele>
        <time>2010-12-12T10:00:14Z</time>
      </trkpt>
      <trkpt lat="45.76296" lon="3.41713">
        <ele>352.4605713</ele>
        <time>2010-12-12T10:00:17Z</time>
      </trkpt>
      <trkpt lat="45.76302" lon="3.41701">
        <ele>352.4605713</ele>
        <time>2010-12-12T10:00:21Z</time>
      </trkpt>
      <trkpt lat="45.76307" lon="3.4169">
        <ele>351.4991455</ele>
        <time>2010-12-12T10:00:25Z</time>
      </trkpt>
      <trkpt lat="45.76308" lon="3.41688">
        <ele>351.9798584</ele>
        <time>2010-12-12T10:00:26Z</time>
      </trkpt>
      <trkpt lat="45.76313" lon="3.41679">
        <ele>351.9798584</ele>
        <time>2010-12-12T10:00:30Z</time>
      </trkpt>
      <trkpt lat="45.76322" lon="3.41667">
        <ele>352.9411621</ele>
        <time>2010-12-12T10:00:35Z</time>
      </trkpt>
      <trkpt lat="45.76328" lon="3.41658">
        <ele>354.3831787</ele>
        <time>2010-12-12T10:00:38Z</time>
      </trkpt>
      <trkpt lat="45.76329" lon="3.41655">
        <ele>356.3057861</ele>
        <time>2010-12-12T10:00:39Z</time>
      </trkpt>
      <trkpt lat="45.76332" lon="3.41649">
        <ele>356.786377</ele>
        <time>2010-12-12T10:00:42Z</time>
      </trkpt>
      <trkpt lat="45.76335" lon="3.41645">
        <ele>356.786377</ele>
        <time>2010-12-12T10:00:44Z</time>
      </trkpt>
      <trkpt lat="45.76337" lon="3.41642">
        <ele>357.2670898</ele>
        <time>2010-12-12T10:00:46Z</time>
      </trkpt>
      <trkpt lat="45.76347" lon="3.41637">
        <ele>356.786377</ele>
        <time>2010-12-12T10:00:51Z</time>
      </trkpt>
      <trkpt lat="45.76356" lon="3.41637">
        <ele>357.2670898</ele>
        <time>2010-12-12T10:00:56Z</time>
      </trkpt>
      <trkpt lat="45.76358" lon="3.41626">
        <ele>356.786377</ele>
        <time>2010-12-12T10:01:00Z</time>
      </trkpt>
      <trkpt lat="45.76357" lon="3.41616">
        <ele>356.786377</ele>
        <time>2010-12-12T10:01:03Z</time>
      </trkpt>
      <trkpt lat="45.76357" lon="3.41598">
        <ele>356.786377</ele>
        <time>2010-12-12T10:01:09Z</time>
      </trkpt>
      <trkpt lat="45.76356" lon="3.41587">
        <ele>357.2670898</ele>
        <time>2010-12-12T10:01:16Z</time>
      </trkpt>
      <trkpt lat="45.76355" lon="3.41581">
        <ele>356.786377</ele>
        <time>2010-12-12T10:01:22Z</time>
      </trkpt>
      <trkpt lat="45.76355" lon="3.41581">
        <ele>356.786377</ele>
        <time>2010-12-12T10:01:29Z</time>
      </trkpt>
      <trkpt lat="45.76355" lon="3.41581">
        <ele>356.786377</ele>
        <time>2010-12-12T10:01:33Z</time>
      </trkpt>
      <trkpt lat="45.76355" lon="3.4158">
        <ele>356.786377</ele>
        <time>2010-12-12T10:01:39Z</time>
      </trkpt>
      <trkpt lat="45.76355" lon="3.4158">
        <ele>356.786377</ele>
        <time>2010-12-12T10:01:40Z</time>
      </trkpt>
      <trkpt lat="45.76355" lon="3.41579">
        <ele>356.3057861</ele>
        <time>2010-12-12T10:01:51Z</time>
      </trkpt>
      <trkpt lat="45.76355" lon="3.41579">
        <ele>356.3057861</ele>
        <time>2010-12-12T10:01:58Z</time>
      </trkpt>
      <trkpt lat="45.76355" lon="3.41579">
        <ele>356.786377</ele>
        <time>2010-12-12T10:02:01Z</time>
      </trkpt>
      <trkpt lat="45.76355" lon="3.41579">
        <ele>356.3057861</ele>
        <time>2010-12-12T10:02:11Z</time>
      </trkpt>
      <trkpt lat="45.76355" lon="3.41579">
        <ele>355.8251953</ele>
        <time>2010-12-12T10:02:13Z</time>
      </trkpt>
      <trkpt lat="45.76355" lon="3.41579">
        <ele>355.8251953</ele>
        <time>2010-12-12T10:02:14Z</time>
      </trkpt>
      <trkpt lat="45.76355" lon="3.41579">
        <ele>356.3057861</ele>
        <time>2010-12-12T10:02:25Z</time>
      </trkpt>
      <trkpt lat="45.76355" lon="3.41579">
        <ele>356.3057861</ele>
        <time>2010-12-12T10:02:28Z</time>
      </trkpt>
      <trkpt lat="45.76355" lon="3.41579">
        <ele>356.3057861</ele>
        <time>2010-12-12T10:02:32Z</time>
      </trkpt>
      <trkpt lat="45.76355" lon="3.41579">
        <ele>356.786377</ele>
        <time>2010-12-12T10:02:33Z</time>
      </trkpt>
      <trkpt lat="45.76355" lon="3.41579">
        <ele>356.3057861</ele>
        <time>2010-12-12T10:02:34Z</time>
      </trkpt>
      <trkpt lat="45.76355" lon="3.41579">
        <ele>356.3057861</ele>
        <time>2010-12-12T10:02:40Z</time>
      </trkpt>
      <trkpt lat="45.76355" lon="3.41579">
        <ele>356.3057861</ele>
        <time>2010-12-12T10:02:43Z</time>
      </trkpt>
      <trkpt lat="45.76355" lon="3.41579">
        <ele>356.3057861</ele>
        <time>2010-12-12T10:02:46Z</time>
      </trkpt>
      <trkpt lat="45.76355" lon="3.41578">
        <ele>355.8251953</ele>
        <time>2010-12-12T10:02:58Z</time>
      </trkpt>
      <trkpt lat="45.76353" lon="3.41573">
        <ele>355.3444824</ele>
        <time>2010-12-12T10:03:01Z</time>
      </trkpt>
      <trkpt lat="45.76349" lon="3.4156">
        <ele>353.421875</ele>
        <time>2010-12-12T10:03:04Z</time>
      </trkpt>
      <trkpt lat="45.76336" lon="3.41534">
        <ele>351.9798584</ele>
        <time>2010-12-12T10:03:10Z</time>
      </trkpt>
      <trkpt lat="45.76332" lon="3.41519">
        <ele>351.9798584</ele>
        <time>2010-12-12T10:03:14Z</time>
      </trkpt>
      <trkpt lat="45.76332" lon="3.41514">
        <ele>351.9798584</ele>
        <time>2010-12-12T10:03:17Z</time>
      </trkpt>
      <trkpt lat="45.76332" lon="3.41515">
        <ele>351.9798584</ele>
        <time>2010-12-12T10:03:19Z</time>
      </trkpt>
      <trkpt lat="45.76332" lon="3.41515">
        <ele>351.9798584</ele>
        <time>2010-12-12T10:03:20Z</time>
      </trkpt>
      <trkpt lat="45.76332" lon="3.41515">
        <ele>352.4605713</ele>
        <time>2010-12-12T10:03:28Z</time>
      </trkpt>
      <trkpt lat="45.76331" lon="3.41518">
        <ele>352.4605713</ele>
        <time>2010-12-12T10:03:35Z</time>
      </trkpt>
      <trkpt lat="45.7633" lon="3.41519">
        <ele>352.4605713</ele>
        <time>2010-12-12T10:03:37Z</time>
      </trkpt>
      <trkpt lat="45.76329" lon="3.41523">
        <ele>351.9798584</ele>
        <time>2010-12-12T10:03:41Z</time>
      </trkpt>
      <trkpt lat="45.76329" lon="3.41523">
        <ele>352.4605713</ele>
        <time>2010-12-12T10:03:42Z</time>
      </trkpt>
      <trkpt lat="45.76329" lon="3.41523">
        <ele>352.4605713</ele>
        <time>2010-12-12T10:03:43Z</time>
      </trkpt>
      <trkpt lat="45.76328" lon="3.41523">
        <ele>351.9798584</ele>
        <time>2010-12-12T10:03:56Z</time>
      </trkpt>
      <trkpt lat="45.76325" lon="3.41526">
        <ele>351.9798584</ele>
        <time>2010-12-12T10:04:02Z</time>
      </trkpt>
      <trkpt lat="45.76325" lon="3.41527">
        <ele>352.4605713</ele>
        <time>2010-12-12T10:04:10Z</time>
      </trkpt>
      <trkpt lat="45.76324" lon="3.41527">
        <ele>352.9411621</ele>
        <time>2010-12-12T10:04:11Z</time>
      </trkpt>
      <trkpt lat="45.7632" lon="3.41532">
        <ele>352.4605713</ele>
        <time>2010-12-12T10:04:15Z</time>
      </trkpt>
      <trkpt lat="45.76318" lon="3.41532">
        <ele>352.9411621</ele>
        <time>2010-12-12T10:04:16Z</time>
      </trkpt>
      <trkpt lat="45.76316" lon="3.41532">
        <ele>352.9411621</ele>
        <time>2010-12-12T10:04:19Z</time>
      </trkpt>
      <trkpt lat="45.76307" lon="3.41529">
        <ele>353.9025879</ele>
        <time>2010-12-12T10:04:24Z</time>
      </trkpt>
      <trkpt lat="45.76304" lon="3.41529">
        <ele>356.3057861</ele>
        <time>2010-12-12T10:04:27Z</time>
      </trkpt>
      <trkpt lat="45.76303" lon="3.4153">
        <ele>355.8251953</ele>
        <time>2010-12-12T10:04:33Z</time>
      </trkpt>
      <trkpt lat="45.76303" lon="3.41531">
        <ele>355.8251953</ele>
        <time>2010-12-12T10:04:35Z</time>
      </trkpt>
      <trkpt lat="45.76302" lon="3.41533">
        <ele>355.8251953</ele>
        <time>2010-12-12T10:04:39Z</time>
      </trkpt>
      <trkpt lat="45.76301" lon="3.41534">
        <ele>355.8251953</ele>
        <time>2010-12-12T10:04:41Z</time>
      </trkpt>
      <trkpt lat="45.763" lon="3.41535">
        <ele>355.3444824</ele>
        <time>2010-12-12T10:04:44Z</time>
      </trkpt>
      <trkpt lat="45.76295" lon="3.41534">
        <ele>356.3057861</ele>
        <time>2010-12-12T10:04:50Z</time>
      </trkpt>
      <trkpt lat="45.76293" lon="3.41534">
        <ele>356.3057861</ele>
        <time>2010-12-12T10:04:53Z</time>
      </trkpt>
      <trkpt lat="45.76286" lon="3.41536">
        <ele>356.3057861</ele>
        <time>2010-12-12T10:04:58Z</time>
      </trkpt>
      <trkpt lat="45.76276" lon="3.41528">
        <ele>356.786377</ele>
        <time>2010-12-12T10:05:03Z</time>
      </trkpt>
      <trkpt lat="45.76275" lon="3.41526">
        <ele>355.8251953</ele>
        <time>2010-12-12T10:05:04Z</time>
      </trkpt>
      <trkpt lat="45.76269" lon="3.41516">
        <ele>356.3057861</ele>
        <time>2010-12-12T10:05:08Z</time>
      </trkpt>
      <trkpt lat="45.76268" lon="3.41502">
        <ele>356.3057861</ele>
        <time>2010-12-12T10:05:14Z</time>
      </trkpt>
      <trkpt lat="45.76271" lon="3.41487">
        <ele>355.8251953</ele>
        <time>2010-12-12T10:05:20Z</time>
      </trkpt>
      <trkpt lat="45.76266" lon="3.41485">
        <ele>355.3444824</ele>
        <time>2010-12-12T10:05:24Z</time>
      </trkpt>
      <trkpt lat="45.76266" lon="3.41484">
        <ele>354.3831787</ele>
        <time>2010-12-12T10:05:26Z</time>
      </trkpt>
      <trkpt lat="45.76264" lon="3.41484">
        <ele>355.8251953</ele>
        <time>2010-12-12T10:05:30Z</time>
      </trkpt>
      <trkpt lat="45.76261" lon="3.41486">
        <ele>356.786377</ele>
        <time>2010-12-12T10:05:34Z</time>
      </trkpt>
      <trkpt lat="45.7626" lon="3.41488">
        <ele>356.786377</ele>
        <time>2010-12-12T10:05:37Z</time>
      </trkpt>
      <trkpt lat="45.76258" lon="3.4149">
        <ele>355.8251953</ele>
        <time>2010-12-12T10:05:39Z</time>
      </trkpt>
      <trkpt lat="45.76252" lon="3.4149">
        <ele>355.8251953</ele>
        <time>2010-12-12T10:05:45Z</time>
      </trkpt>
      <trkpt lat="45.76248" lon="3.41491">
        <ele>355.8251953</ele>
        <time>2010-12-12T10:05:50Z</time>
      </trkpt>
      <trkpt lat="45.76237" lon="3.41486">
        <ele>355.8251953</ele>
        <time>2010-12-12T10:05:56Z</time>
      </trkpt>
      <trkpt lat="45.76233" lon="3.41483">
        <ele>356.3057861</ele>
        <time>2010-12-12T10:05:58Z</time>
      </trkpt>
      <trkpt lat="45.76225" lon="3.41478">
        <ele>355.8251953</ele>
        <time>2010-12-12T10:06:04Z</time>
      </trkpt>
      <trkpt lat="45.76221" lon="3.41482">
        <ele>356.3057861</ele>
        <time>2010-12-12T10:06:08Z</time>
      </trkpt>
      <trkpt lat="45.76214" lon="3.41493">
        <ele>357.2670898</ele>
        <time>2010-12-12T10:06:14Z</time>
      </trkpt>
      <trkpt lat="45.76206" lon="3.41491">
        <ele>356.3057861</ele>
        <time>2010-12-12T10:06:18Z</time>
      </trkpt>
      <trkpt lat="45.76204" lon="3.41492">
        <ele>355.8251953</ele>
        <time>2010-12-12T10:06:19Z</time>
      </trkpt>
      <trkpt lat="45.76203" lon="3.41494">
        <ele>355.8251953</ele>
        <time>2010-12-12T10:06:25Z</time>
      </trkpt>
      <trkpt lat="45.76203" lon="3.41494">
        <ele>355.8251953</ele>
        <time>2010-12-12T10:06:33Z</time>
      </trkpt>
      <trkpt lat="45.76202" lon="3.41497">
        <ele>355.8251953</ele>
        <time>2010-12-12T10:06:35Z</time>
      </trkpt>
      <trkpt lat="45.76197" lon="3.41502">
        <ele>356.3057861</ele>
        <time>2010-12-12T10:06:40Z</time>
      </trkpt>
      <trkpt lat="45.76189" lon="3.415">
        <ele>354.8637695</ele>
        <time>2010-12-12T10:06:44Z</time>
      </trkpt>
      <trkpt lat="45.76179" lon="3.41491">
        <ele>355.3444824</ele>
        <time>2010-12-12T10:06:48Z</time>
      </trkpt>
      <trkpt lat="45.76177" lon="3.41488">
        <ele>355.8251953</ele>
        <time>2010-12-12T10:06:49Z</time>
      </trkpt>
      <trkpt lat="45.76172" lon="3.41481">
        <ele>356.786377</ele>
        <time>2010-12-12T10:06:51Z</time>
      </trkpt>
      <trkpt lat="45.76159" lon="3.41477">
        <ele>357.2670898</ele>
        <time>2010-12-12T10:06:55Z</time>
      </trkpt>
      <trkpt lat="45.76157" lon="3.41477">
        <ele>357.7478027</ele>
        <time>2010-12-12T10:06:56Z</time>
      </trkpt>
      <trkpt lat="45.76153" lon="3.41475">
        <ele>358.2283936</ele>
        <time>2010-12-12T10:06:58Z</time>
      </trkpt>
      <trkpt lat="45.76146" lon="3.41474">
        <ele>358.2283936</ele>
        <time>2010-12-12T10:07:01Z</time>
      </trkpt>
      <trkpt lat="45.7614" lon="3.41473">
        <ele>357.7478027</ele>
        <time>2010-12-12T10:07:04Z</time>
      </trkpt>
      <trkpt lat="45.76129" lon="3.4147">
        <ele>357.7478027</ele>
        <time>2010-12-12T10:07:08Z</time>
      </trkpt>
      <trkpt lat="45.76123" lon="3.41474">
        <ele>358.2283936</ele>
        <time>2010-12-12T10:07:10Z</time>
      </trkpt>
      <trkpt lat="45.76108" lon="3.41491">
        <ele>357.7478027</ele>
        <time>2010-12-12T10:07:17Z</time>
      </trkpt>
      <trkpt lat="45.76098" lon="3.41515">
        <ele>359.1896973</ele>
        <time>2010-12-12T10:07:23Z</time>
      </trkpt>
      <trkpt lat="45.76095" lon="3.41532">
        <ele>359.1896973</ele>
        <time>2010-12-12T10:07:27Z</time>
      </trkpt>
      <trkpt lat="45.76082" lon="3.41535">
        <ele>360.151123</ele>
        <time>2010-12-12T10:07:32Z</time>
      </trkpt>
      <trkpt lat="45.76051" lon="3.41532">
        <ele>360.151123</ele>
        <time>2010-12-12T10:07:40Z</time>
      </trkpt>
      <trkpt lat="45.76035" lon="3.41531">
        <ele>360.6317139</ele>
        <time>2010-12-12T10:07:44Z</time>
      </trkpt>
      <trkpt lat="45.7601" lon="3.41532">
        <ele>361.1124268</ele>
        <time>2010-12-12T10:07:50Z</time>
      </trkpt>
      <trkpt lat="45.76007" lon="3.41534">
        <ele>360.6317139</ele>
        <time>2010-12-12T10:07:51Z</time>
      </trkpt>
      <trkpt lat="45.75986" lon="3.41551">
        <ele>361.1124268</ele>
        <time>2010-12-12T10:07:58Z</time>
      </trkpt>
      <trkpt lat="45.75982" lon="3.41556">
        <ele>361.1124268</ele>
        <time>2010-12-12T10:08:02Z</time>
      </trkpt>
      <trkpt lat="45.75981" lon="3.41556">
        <ele>361.1124268</ele>
        <time>2010-12-12T10:08:07Z</time>
      </trkpt>
      <trkpt lat="45.75979" lon="3.41556">
        <ele>361.1124268</ele>
        <time>2010-12-12T10:08:11Z</time>
      </trkpt>
      <trkpt lat="45.75976" lon="3.41561">
        <ele>361.1124268</ele>
        <time>2010-12-12T10:08:17Z</time>
      </trkpt>
      <trkpt lat="45.75976" lon="3.41562">
        <ele>361.1124268</ele>
        <time>2010-12-12T10:08:22Z</time>
      </trkpt>
      <trkpt lat="45.75975" lon="3.41563">
        <ele>361.1124268</ele>
        <time>2010-12-12T10:08:26Z</time>
      </trkpt>
      <trkpt lat="45.75975" lon="3.41579">
        <ele>360.6317139</ele>
        <time>2010-12-12T10:08:32Z</time>
      </trkpt>
      <trkpt lat="45.75972" lon="3.41598">
        <ele>360.6317139</ele>
        <time>2010-12-12T10:08:36Z</time>
      </trkpt>
      <trkpt lat="45.75971" lon="3.41607">
        <ele>360.6317139</ele>
        <time>2010-12-12T10:08:38Z</time>
      </trkpt>
      <trkpt lat="45.75969" lon="3.41633">
        <ele>360.151123</ele>
        <time>2010-12-12T10:08:44Z</time>
      </trkpt>
      <trkpt lat="45.75964" lon="3.41641">
        <ele>360.6317139</ele>
        <time>2010-12-12T10:08:47Z</time>
      </trkpt>
      <trkpt lat="45.75951" lon="3.41635">
        <ele>360.6317139</ele>
        <time>2010-12-12T10:08:52Z</time>
      </trkpt>
      <trkpt lat="45.75928" lon="3.41627">
        <ele>360.6317139</ele>
        <time>2010-12-12T10:09:00Z</time>
      </trkpt>
      <trkpt lat="45.75908" lon="3.41623">
        <ele>360.6317139</ele>
        <time>2010-12-12T10:09:06Z</time>
      </trkpt>
      <trkpt lat="45.75901" lon="3.41622">
        <ele>361.1124268</ele>
        <time>2010-12-12T10:09:08Z</time>
      </trkpt>
      <trkpt lat="45.75879" lon="3.41614">
        <ele>361.1124268</ele>
        <time>2010-12-12T10:09:14Z</time>
      </trkpt>
      <trkpt lat="45.7586" lon="3.41603">
        <ele>361.5931396</ele>
        <time>2010-12-12T10:09:19Z</time>
      </trkpt>
      <trkpt lat="45.75836" lon="3.41591">
        <ele>361.5931396</ele>
        <time>2010-12-12T10:09:25Z</time>
      </trkpt>
      <trkpt lat="45.75811" lon="3.41583">
        <ele>362.0737305</ele>
        <time>2010-12-12T10:09:31Z</time>
      </trkpt>
      <trkpt lat="45.75783" lon="3.41576">
        <ele>362.0737305</ele>
        <time>2010-12-12T10:09:38Z</time>
      </trkpt>
      <trkpt lat="45.75767" lon="3.41572">
        <ele>362.5543213</ele>
        <time>2010-12-12T10:09:42Z</time>
      </trkpt>
      <trkpt lat="45.75737" lon="3.41562">
        <ele>362.5543213</ele>
        <time>2010-12-12T10:09:49Z</time>
      </trkpt>
      <trkpt lat="45.75709" lon="3.41549">
        <ele>363.0350342</ele>
        <time>2010-12-12T10:09:56Z</time>
      </trkpt>
      <trkpt lat="45.75693" lon="3.41542">
        <ele>363.0350342</ele>
        <time>2010-12-12T10:10:00Z</time>
      </trkpt>
      <trkpt lat="45.75669" lon="3.41527">
        <ele>363.5157471</ele>
        <time>2010-12-12T10:10:06Z</time>
      </trkpt>
      <trkpt lat="45.75646" lon="3.41508">
        <ele>363.9963379</ele>
        <time>2010-12-12T10:10:12Z</time>
      </trkpt>
      <trkpt lat="45.75624" lon="3.41486">
        <ele>363.9963379</ele>
        <time>2010-12-12T10:10:18Z</time>
      </trkpt>
      <trkpt lat="45.75596" lon="3.41454">
        <ele>363.9963379</ele>
        <time>2010-12-12T10:10:26Z</time>
      </trkpt>
      <trkpt lat="45.75575" lon="3.4143">
        <ele>364.9576416</ele>
        <time>2010-12-12T10:10:32Z</time>
      </trkpt>
      <trkpt lat="45.75545" lon="3.41401">
        <ele>364.9576416</ele>
        <time>2010-12-12T10:10:40Z</time>
      </trkpt>
      <trkpt lat="45.75518" lon="3.41378">
        <ele>366.3995361</ele>
        <time>2010-12-12T10:10:47Z</time>
      </trkpt>
      <trkpt lat="45.75488" lon="3.41352">
        <ele>366.3995361</ele>
        <time>2010-12-12T10:10:55Z</time>
      </trkpt>
      <trkpt lat="45.75464" lon="3.41336">
        <ele>366.880249</ele>
        <time>2010-12-12T10:11:01Z</time>
      </trkpt>
      <trkpt lat="45.75435" lon="3.41323">
        <ele>368.3222656</ele>
        <time>2010-12-12T10:11:08Z</time>
      </trkpt>
      <trkpt lat="45.75395" lon="3.4131">
        <ele>368.8029785</ele>
        <time>2010-12-12T10:11:17Z</time>
      </trkpt>
      <trkpt lat="45.75378" lon="3.41303">
        <ele>369.2836914</ele>
        <time>2010-12-12T10:11:21Z</time>
      </trkpt>
      <trkpt lat="45.75356" lon="3.41284">
        <ele>369.7642822</ele>
        <time>2010-12-12T10:11:27Z</time>
      </trkpt>
      <trkpt lat="45.75337" lon="3.41261">
        <ele>369.7642822</ele>
        <time>2010-12-12T10:11:33Z</time>
      </trkpt>
      <trkpt lat="45.75323" lon="3.41245">
        <ele>370.244873</ele>
        <time>2010-12-12T10:11:37Z</time>
      </trkpt>
      <trkpt lat="45.75297" lon="3.41226">
        <ele>370.244873</ele>
        <time>2010-12-12T10:11:44Z</time>
      </trkpt>
      <trkpt lat="45.75272" lon="3.41205">
        <ele>370.7255859</ele>
        <time>2010-12-12T10:11:51Z</time>
      </trkpt>
      <trkpt lat="45.75256" lon="3.41193">
        <ele>372.6481934</ele>
        <time>2010-12-12T10:11:56Z</time>
      </trkpt>
      <trkpt lat="45.7525" lon="3.41193">
        <ele>372.6481934</ele>
        <time>2010-12-12T10:12:01Z</time>
      </trkpt>
      <trkpt lat="45.75249" lon="3.41192">
        <ele>372.6481934</ele>
        <time>2010-12-12T10:12:03Z</time>
      </trkpt>
      <trkpt lat="45.75249" lon="3.41193">
        <ele>372.6481934</ele>
        <time>2010-12-12T10:12:09Z</time>
      </trkpt>
      <trkpt lat="45.75249" lon="3.41193">
        <ele>372.6481934</ele>
        <time>2010-12-12T10:12:12Z</time>
      </trkpt>
      <trkpt lat="45.75249" lon="3.41193">
        <ele>372.6481934</ele>
        <time>2010-12-12T10:12:13Z</time>
      </trkpt>
      <trkpt lat="45.75249" lon="3.41192">
        <ele>372.1674805</ele>
        <time>2010-12-12T10:12:33Z</time>
      </trkpt>
      <trkpt lat="45.75248" lon="3.41192">
        <ele>372.6481934</ele>
        <time>2010-12-12T10:12:34Z</time>
      </trkpt>
      <trkpt lat="45.75237" lon="3.41186">
        <ele>372.1674805</ele>
        <time>2010-12-12T10:12:40Z</time>
      </trkpt>
      <trkpt lat="45.7523" lon="3.4118">
        <ele>372.6481934</ele>
        <time>2010-12-12T10:12:43Z</time>
      </trkpt>
      <trkpt lat="45.75217" lon="3.41176">
        <ele>372.1674805</ele>
        <time>2010-12-12T10:12:47Z</time>
      </trkpt>
      <trkpt lat="45.75199" lon="3.41169">
        <ele>372.6481934</ele>
        <time>2010-12-12T10:12:52Z</time>
      </trkpt>
      <trkpt lat="45.75184" lon="3.41165">
        <ele>372.6481934</ele>
        <time>2010-12-12T10:12:56Z</time>
      </trkpt>
      <trkpt lat="45.75172" lon="3.4116">
        <ele>373.1289063</ele>
        <time>2010-12-12T10:12:59Z</time>
      </trkpt>
      <trkpt lat="45.75143" lon="3.41144">
        <ele>373.1289063</ele>
        <time>2010-12-12T10:13:07Z</time>
      </trkpt>
      <trkpt lat="45.75131" lon="3.41131">
        <ele>374.0900879</ele>
        <time>2010-12-12T10:13:11Z</time>
      </trkpt>
      <trkpt lat="45.75108" lon="3.41112">
        <ele>374.5708008</ele>
        <time>2010-12-12T10:13:18Z</time>
      </trkpt>
      <trkpt lat="45.75096" lon="3.41105">
        <ele>374.5708008</ele>
        <time>2010-12-12T10:13:22Z</time>
      </trkpt>
      <trkpt lat="45.75067" lon="3.41094">
        <ele>376.4935303</ele>
        <time>2010-12-12T10:13:30Z</time>
      </trkpt>
      <trkpt lat="45.75049" lon="3.41086">
        <ele>376.9742432</ele>
        <time>2010-12-12T10:13:35Z</time>
      </trkpt>
      <trkpt lat="45.75039" lon="3.41081">
        <ele>378.4161377</ele>
        <time>2010-12-12T10:13:38Z</time>
      </trkpt>
      <trkpt lat="45.75023" lon="3.4107">
        <ele>379.3774414</ele>
        <time>2010-12-12T10:13:43Z</time>
      </trkpt>
      <trkpt lat="45.75007" lon="3.41053">
        <ele>380.819458</ele>
        <time>2010-12-12T10:13:49Z</time>
      </trkpt>
      <trkpt lat="45.7499" lon="3.41031">
        <ele>381.7806396</ele>
        <time>2010-12-12T10:13:56Z</time>
      </trkpt>
      <trkpt lat="45.7497" lon="3.41009">
        <ele>383.7032471</ele>
        <time>2010-12-12T10:14:04Z</time>
      </trkpt>
      <trkpt lat="45.7495" lon="3.41005">
        <ele>385.6259766</ele>
        <time>2010-12-12T10:14:11Z</time>
      </trkpt>
      <trkpt lat="45.74928" lon="3.40998">
        <ele>388.0292969</ele>
        <time>2010-12-12T10:14:19Z</time>
      </trkpt>
      <trkpt lat="45.74907" lon="3.40983">
        <ele>389.9519043</ele>
        <time>2010-12-12T10:14:28Z</time>
      </trkpt>
      <trkpt lat="45.74889" lon="3.40973">
        <ele>390.913208</ele>
        <time>2010-12-12T10:14:35Z</time>
      </trkpt>
      <trkpt lat="45.74884" lon="3.40971">
        <ele>391.8745117</ele>
        <time>2010-12-12T10:14:37Z</time>
      </trkpt>
      <trkpt lat="45.74864" lon="3.40969">
        <ele>393.7972412</ele>
        <time>2010-12-12T10:14:44Z</time>
      </trkpt>
      <trkpt lat="45.74845" lon="3.4097">
        <ele>396.6811523</ele>
        <time>2010-12-12T10:14:51Z</time>
      </trkpt>
      <trkpt lat="45.74821" lon="3.40974">
        <ele>397.6424561</ele>
        <time>2010-12-12T10:15:00Z</time>
      </trkpt>
      <trkpt lat="45.74803" lon="3.40971">
        <ele>399.5650635</ele>
        <time>2010-12-12T10:15:07Z</time>
      </trkpt>
      <trkpt lat="45.74777" lon="3.40964">
        <ele>402.9296875</ele>
        <time>2010-12-12T10:15:17Z</time>
      </trkpt>
      <trkpt lat="45.74772" lon="3.40963">
        <ele>403.8911133</ele>
        <time>2010-12-12T10:15:19Z</time>
      </trkpt>
      <trkpt lat="45.7475" lon="3.40958">
        <ele>406.7749023</ele>
        <time>2010-12-12T10:15:29Z</time>
      </trkpt>
      <trkpt lat="45.74735" lon="3.40959">
        <ele>407.7363281</ele>
        <time>2010-12-12T10:15:36Z</time>
      </trkpt>
      <trkpt lat="45.74715" lon="3.40963">
        <ele>409.6590576</ele>
        <time>2010-12-12T10:15:44Z</time>
      </trkpt>
      <trkpt lat="45.74697" lon="3.40965">
        <ele>412.0622559</ele>
        <time>2010-12-12T10:15:51Z</time>
      </trkpt>
      <trkpt lat="45.74684" lon="3.40961">
        <ele>412.5428467</ele>
        <time>2010-12-12T10:15:57Z</time>
      </trkpt>
      <trkpt lat="45.74668" lon="3.40957">
        <ele>414.4654541</ele>
        <time>2010-12-12T10:16:04Z</time>
      </trkpt>
      <trkpt lat="45.74658" lon="3.40954">
        <ele>415.4268799</ele>
        <time>2010-12-12T10:16:09Z</time>
      </trkpt>
      <trkpt lat="45.74646" lon="3.40949">
        <ele>416.3881836</ele>
        <time>2010-12-12T10:16:15Z</time>
      </trkpt>
      <trkpt lat="45.74634" lon="3.4094">
        <ele>418.310791</ele>
        <time>2010-12-12T10:16:21Z</time>
      </trkpt>
      <trkpt lat="45.74621" lon="3.4093">
        <ele>420.7141113</ele>
        <time>2010-12-12T10:16:28Z</time>
      </trkpt>
      <trkpt lat="45.74608" lon="3.40922">
        <ele>421.675415</ele>
        <time>2010-12-12T10:16:35Z</time>
      </trkpt>
      <trkpt lat="45.74599" lon="3.40919">
        <ele>423.5980225</ele>
        <time>2010-12-12T10:16:41Z</time>
      </trkpt>
      <trkpt lat="45.74589" lon="3.40916">
        <ele>425.520752</ele>
        <time>2010-12-12T10:16:48Z</time>
      </trkpt>
      <trkpt lat="45.7458" lon="3.40912">
        <ele>427.4433594</ele>
        <time>2010-12-12T10:16:55Z</time>
      </trkpt>
      <trkpt lat="45.74573" lon="3.4091">
        <ele>428.4046631</ele>
        <time>2010-12-12T10:17:00Z</time>
      </trkpt>
      <trkpt lat="45.74568" lon="3.40906">
        <ele>429.3659668</ele>
        <time>2010-12-12T10:17:05Z</time>
      </trkpt>
      <trkpt lat="45.74561" lon="3.40903">
        <ele>431.2885742</ele>
        <time>2010-12-12T10:17:10Z</time>
      </trkpt>
      <trkpt lat="45.7455" lon="3.40899">
        <ele>432.25</ele>
        <time>2010-12-12T10:17:17Z</time>
      </trkpt>
      <trkpt lat="45.74542" lon="3.40896">
        <ele>432.7307129</ele>
        <time>2010-12-12T10:17:22Z</time>
      </trkpt>
      <trkpt lat="45.7454" lon="3.40894">
        <ele>433.2113037</ele>
        <time>2010-12-12T10:17:24Z</time>
      </trkpt>
      <trkpt lat="45.74532" lon="3.40895">
        <ele>434.6533203</ele>
        <time>2010-12-12T10:17:30Z</time>
      </trkpt>
      <trkpt lat="45.74529" lon="3.40896">
        <ele>435.614502</ele>
        <time>2010-12-12T10:17:32Z</time>
      </trkpt>
      <trkpt lat="45.74524" lon="3.40899">
        <ele>436.5759277</ele>
        <time>2010-12-12T10:17:37Z</time>
      </trkpt>
      <trkpt lat="45.7452" lon="3.40893">
        <ele>437.0565186</ele>
        <time>2010-12-12T10:17:43Z</time>
      </trkpt>
      <trkpt lat="45.74518" lon="3.40893">
        <ele>436.0952148</ele>
        <time>2010-12-12T10:17:51Z</time>
      </trkpt>
      <trkpt lat="45.74518" lon="3.40893">
        <ele>436.0952148</ele>
        <time>2010-12-12T10:17:55Z</time>
      </trkpt>
      <trkpt lat="45.74517" lon="3.40893">
        <ele>436.5759277</ele>
        <time>2010-12-12T10:18:00Z</time>
      </trkpt>
      <trkpt lat="45.74514" lon="3.4089">
        <ele>436.5759277</ele>
        <time>2010-12-12T10:18:11Z</time>
      </trkpt>
      <trkpt lat="45.74514" lon="3.4089">
        <ele>436.0952148</ele>
        <time>2010-12-12T10:18:14Z</time>
      </trkpt>
      <trkpt lat="45.74513" lon="3.4089">
        <ele>436.5759277</ele>
        <time>2010-12-12T10:18:18Z</time>
      </trkpt>
      <trkpt lat="45.74513" lon="3.4089">
        <ele>436.5759277</ele>
        <time>2010-12-12T10:18:20Z</time>
      </trkpt>
      <trkpt lat="45.74513" lon="3.40889">
        <ele>436.5759277</ele>
        <time>2010-12-12T10:18:24Z</time>
      </trkpt>
      <trkpt lat="45.74512" lon="3.40889">
        <ele>436.5759277</ele>
        <time>2010-12-12T10:18:28Z</time>
      </trkpt>
      <trkpt lat="45.74511" lon="3.40887">
        <ele>436.5759277</ele>
        <time>2010-12-12T10:18:38Z</time>
      </trkpt>
      <trkpt lat="45.74511" lon="3.40887">
        <ele>436.5759277</ele>
        <time>2010-12-12T10:18:49Z</time>
      </trkpt>
      <trkpt lat="45.7451" lon="3.40887">
        <ele>436.5759277</ele>
        <time>2010-12-12T10:18:52Z</time>
      </trkpt>
      <trkpt lat="45.7451" lon="3.40887">
        <ele>436.5759277</ele>
        <time>2010-12-12T10:18:54Z</time>
      </trkpt>
      <trkpt lat="45.74511" lon="3.40888">
        <ele>436.5759277</ele>
        <time>2010-12-12T10:19:02Z</time>
      </trkpt>
      <trkpt lat="45.74509" lon="3.40889">
        <ele>437.0565186</ele>
        <time>2010-12-12T10:19:10Z</time>
      </trkpt>
      <trkpt lat="45.74509" lon="3.40888">
        <ele>437.0565186</ele>
        <time>2010-12-12T10:19:18Z</time>
      </trkpt>
      <trkpt lat="45.74509" lon="3.40886">
        <ele>437.0565186</ele>
        <time>2010-12-12T10:19:20Z</time>
      </trkpt>
      <trkpt lat="45.74509" lon="3.40885">
        <ele>437.5371094</ele>
        <time>2010-12-12T10:19:21Z</time>
      </trkpt>
      <trkpt lat="45.74506" lon="3.40872">
        <ele>438.979126</ele>
        <time>2010-12-12T10:19:28Z</time>
      </trkpt>
      <trkpt lat="45.745" lon="3.40855">
        <ele>439.4597168</ele>
        <time>2010-12-12T10:19:34Z</time>
      </trkpt>
      <trkpt lat="45.74495" lon="3.4084">
        <ele>439.9404297</ele>
        <time>2010-12-12T10:19:39Z</time>
      </trkpt>
      <trkpt lat="45.74488" lon="3.40826">
        <ele>440.4212646</ele>
        <time>2010-12-12T10:19:44Z</time>
      </trkpt>
      <trkpt lat="45.74481" lon="3.40817">
        <ele>440.9018555</ele>
        <time>2010-12-12T10:19:48Z</time>
      </trkpt>
      <trkpt lat="45.74476" lon="3.40808">
        <ele>441.3824463</ele>
        <time>2010-12-12T10:19:51Z</time>
      </trkpt>
      <trkpt lat="45.74471" lon="3.40791">
        <ele>441.3824463</ele>
        <time>2010-12-12T10:19:57Z</time>
      </trkpt>
      <trkpt lat="45.74469" lon="3.40775">
        <ele>442.3438721</ele>
        <time>2010-12-12T10:20:02Z</time>
      </trkpt>
      <trkpt lat="45.74467" lon="3.40766">
        <ele>442.8244629</ele>
        <time>2010-12-12T10:20:05Z</time>
      </trkpt>
      <trkpt lat="45.74466" lon="3.40763">
        <ele>443.7857666</ele>
        <time>2010-12-12T10:20:06Z</time>
      </trkpt>
      <trkpt lat="45.74465" lon="3.40757">
        <ele>444.7470703</ele>
        <time>2010-12-12T10:20:08Z</time>
      </trkpt>
      <trkpt lat="45.74462" lon="3.40743">
        <ele>445.708374</ele>
        <time>2010-12-12T10:20:13Z</time>
      </trkpt>
      <trkpt lat="45.74456" lon="3.40727">
        <ele>446.1890869</ele>
        <time>2010-12-12T10:20:19Z</time>
      </trkpt>
      <trkpt lat="45.7445" lon="3.40711">
        <ele>447.6309814</ele>
        <time>2010-12-12T10:20:25Z</time>
      </trkpt>
      <trkpt lat="45.74444" lon="3.40697">
        <ele>449.5537109</ele>
        <time>2010-12-12T10:20:31Z</time>
      </trkpt>
      <trkpt lat="45.74443" lon="3.40695">
        <ele>450.0344238</ele>
        <time>2010-12-12T10:20:32Z</time>
      </trkpt>
      <trkpt lat="45.74435" lon="3.40682">
        <ele>450.9956055</ele>
        <time>2010-12-12T10:20:39Z</time>
      </trkpt>
      <trkpt lat="45.74429" lon="3.40669">
        <ele>453.3989258</ele>
        <time>2010-12-12T10:20:45Z</time>
      </trkpt>
      <trkpt lat="45.74424" lon="3.40653">
        <ele>453.8796387</ele>
        <time>2010-12-12T10:20:51Z</time>
      </trkpt>
      <trkpt lat="45.74417" lon="3.40635">
        <ele>454.8408203</ele>
        <time>2010-12-12T10:20:57Z</time>
      </trkpt>
      <trkpt lat="45.74411" lon="3.40619">
        <ele>455.8022461</ele>
        <time>2010-12-12T10:21:03Z</time>
      </trkpt>
      <trkpt lat="45.744" lon="3.40601">
        <ele>456.7635498</ele>
        <time>2010-12-12T10:21:10Z</time>
      </trkpt>
      <trkpt lat="45.74392" lon="3.40581">
        <ele>458.2055664</ele>
        <time>2010-12-12T10:21:18Z</time>
      </trkpt>
      <trkpt lat="45.74383" lon="3.40562">
        <ele>459.647583</ele>
        <time>2010-12-12T10:21:25Z</time>
      </trkpt>
      <trkpt lat="45.74371" lon="3.40543">
        <ele>460.1281738</ele>
        <time>2010-12-12T10:21:32Z</time>
      </trkpt>
      <trkpt lat="45.74359" lon="3.40525">
        <ele>460.1281738</ele>
        <time>2010-12-12T10:21:38Z</time>
      </trkpt>
      <trkpt lat="45.7435" lon="3.40509">
        <ele>460.6087646</ele>
        <time>2010-12-12T10:21:43Z</time>
      </trkpt>
      <trkpt lat="45.74341" lon="3.40499">
        <ele>461.0894775</ele>
        <time>2010-12-12T10:21:47Z</time>
      </trkpt>
      <trkpt lat="45.74332" lon="3.40484">
        <ele>461.0894775</ele>
        <time>2010-12-12T10:21:53Z</time>
      </trkpt>
      <trkpt lat="45.74331" lon="3.40482">
        <ele>461.0894775</ele>
        <time>2010-12-12T10:21:54Z</time>
      </trkpt>
      <trkpt lat="45.74328" lon="3.40474">
        <ele>461.5701904</ele>
        <time>2010-12-12T10:21:59Z</time>
      </trkpt>
      <trkpt lat="45.74316" lon="3.40458">
        <ele>461.5701904</ele>
        <time>2010-12-12T10:22:05Z</time>
      </trkpt>
      <trkpt lat="45.74305" lon="3.40442">
        <ele>462.5313721</ele>
        <time>2010-12-12T10:22:10Z</time>
      </trkpt>
      <trkpt lat="45.74288" lon="3.40419">
        <ele>462.5313721</ele>
        <time>2010-12-12T10:22:17Z</time>
      </trkpt>
      <trkpt lat="45.74274" lon="3.40406">
        <ele>463.4927979</ele>
        <time>2010-12-12T10:22:22Z</time>
      </trkpt>
      <trkpt lat="45.74258" lon="3.40392">
        <ele>463.4927979</ele>
        <time>2010-12-12T10:22:28Z</time>
      </trkpt>
      <trkpt lat="45.74242" lon="3.40377">
        <ele>463.9733887</ele>
        <time>2010-12-12T10:22:34Z</time>
      </trkpt>
      <trkpt lat="45.74226" lon="3.40357">
        <ele>463.012085</ele>
        <time>2010-12-12T10:22:40Z</time>
      </trkpt>
      <trkpt lat="45.7421" lon="3.40342">
        <ele>463.012085</ele>
        <time>2010-12-12T10:22:45Z</time>
      </trkpt>
      <trkpt lat="45.74196" lon="3.40327">
        <ele>462.5313721</ele>
        <time>2010-12-12T10:22:50Z</time>
      </trkpt>
      <trkpt lat="45.74181" lon="3.40309">
        <ele>463.4927979</ele>
        <time>2010-12-12T10:22:56Z</time>
      </trkpt>
      <trkpt lat="45.74166" lon="3.40295">
        <ele>463.4927979</ele>
        <time>2010-12-12T10:23:01Z</time>
      </trkpt>
      <trkpt lat="45.74151" lon="3.40288">
        <ele>464.4541016</ele>
        <time>2010-12-12T10:23:06Z</time>
      </trkpt>
      <trkpt lat="45.74135" lon="3.40283">
        <ele>463.9733887</ele>
        <time>2010-12-12T10:23:11Z</time>
      </trkpt>
      <trkpt lat="45.74117" lon="3.40279">
        <ele>465.4155273</ele>
        <time>2010-12-12T10:23:17Z</time>
      </trkpt>
      <trkpt lat="45.74093" lon="3.40274">
        <ele>466.376709</ele>
        <time>2010-12-12T10:23:24Z</time>
      </trkpt>
      <trkpt lat="45.74068" lon="3.40268">
        <ele>467.3381348</ele>
        <time>2010-12-12T10:23:31Z</time>
      </trkpt>
      <trkpt lat="45.74037" lon="3.40259">
        <ele>468.7800293</ele>
        <time>2010-12-12T10:23:40Z</time>
      </trkpt>
      <trkpt lat="45.73995" lon="3.40252">
        <ele>469.2607422</ele>
        <time>2010-12-12T10:23:51Z</time>
      </trkpt>
      <trkpt lat="45.73964" lon="3.4025">
        <ele>468.7800293</ele>
        <time>2010-12-12T10:23:59Z</time>
      </trkpt>
      <trkpt lat="45.73932" lon="3.40251">
        <ele>468.2993164</ele>
        <time>2010-12-12T10:24:06Z</time>
      </trkpt>
      <trkpt lat="45.73916" lon="3.40251">
        <ele>468.2993164</ele>
        <time>2010-12-12T10:24:10Z</time>
      </trkpt>
      <trkpt lat="45.73901" lon="3.40251">
        <ele>468.2993164</ele>
        <time>2010-12-12T10:24:14Z</time>
      </trkpt>
      <trkpt lat="45.73879" lon="3.40248">
        <ele>467.8187256</ele>
        <time>2010-12-12T10:24:20Z</time>
      </trkpt>
      <trkpt lat="45.73872" lon="3.40248">
        <ele>467.3381348</ele>
        <time>2010-12-12T10:24:22Z</time>
      </trkpt>
      <trkpt lat="45.73868" lon="3.40249">
        <ele>467.3381348</ele>
        <time>2010-12-12T10:24:23Z</time>
      </trkpt>
      <trkpt lat="45.7384" lon="3.40244">
        <ele>465.4155273</ele>
        <time>2010-12-12T10:24:29Z</time>
      </trkpt>
      <trkpt lat="45.73819" lon="3.40242">
        <ele>463.9733887</ele>
        <time>2010-12-12T10:24:33Z</time>
      </trkpt>
      <trkpt lat="45.73786" lon="3.40242">
        <ele>464.9348145</ele>
        <time>2010-12-12T10:24:40Z</time>
      </trkpt>
      <trkpt lat="45.73746" lon="3.40244">
        <ele>463.012085</ele>
        <time>2010-12-12T10:24:49Z</time>
      </trkpt>
      <trkpt lat="45.73723" lon="3.40246">
        <ele>462.5313721</ele>
        <time>2010-12-12T10:24:54Z</time>
      </trkpt>
      <trkpt lat="45.73683" lon="3.40247">
        <ele>462.5313721</ele>
        <time>2010-12-12T10:25:02Z</time>
      </trkpt>
      <trkpt lat="45.73651" lon="3.40249">
        <ele>460.6087646</ele>
        <time>2010-12-12T10:25:08Z</time>
      </trkpt>
      <trkpt lat="45.73612" lon="3.40249">
        <ele>461.5701904</ele>
        <time>2010-12-12T10:25:16Z</time>
      </trkpt>
      <trkpt lat="45.73558" lon="3.40251">
        <ele>463.012085</ele>
        <time>2010-12-12T10:25:27Z</time>
      </trkpt>
      <trkpt lat="45.73549" lon="3.40251">
        <ele>462.5313721</ele>
        <time>2010-12-12T10:25:29Z</time>
      </trkpt>
      <trkpt lat="45.73545" lon="3.40251">
        <ele>462.5313721</ele>
        <time>2010-12-12T10:25:30Z</time>
      </trkpt>
      <trkpt lat="45.73508" lon="3.40251">
        <ele>463.9733887</ele>
        <time>2010-12-12T10:25:38Z</time>
      </trkpt>
      <trkpt lat="45.7349" lon="3.4024">
        <ele>463.9733887</ele>
        <time>2010-12-12T10:25:42Z</time>
      </trkpt>
      <trkpt lat="45.7345" lon="3.40205">
        <ele>464.4541016</ele>
        <time>2010-12-12T10:25:52Z</time>
      </trkpt>
      <trkpt lat="45.7341" lon="3.4017">
        <ele>466.8574219</ele>
        <time>2010-12-12T10:26:03Z</time>
      </trkpt>
      <trkpt lat="45.73389" lon="3.40154">
        <ele>469.2607422</ele>
        <time>2010-12-12T10:26:10Z</time>
      </trkpt>
      <trkpt lat="45.73387" lon="3.40152">
        <ele>469.2607422</ele>
        <time>2010-12-12T10:26:11Z</time>
      </trkpt>
      <trkpt lat="45.73381" lon="3.40132">
        <ele>469.2607422</ele>
        <time>2010-12-12T10:26:17Z</time>
      </trkpt>
      <trkpt lat="45.73375" lon="3.40104">
        <ele>469.2607422</ele>
        <time>2010-12-12T10:26:23Z</time>
      </trkpt>
      <trkpt lat="45.73368" lon="3.40081">
        <ele>468.7800293</ele>
        <time>2010-12-12T10:26:29Z</time>
      </trkpt>
      <trkpt lat="45.73357" lon="3.40067">
        <ele>469.2607422</ele>
        <time>2010-12-12T10:26:34Z</time>
      </trkpt>
      <trkpt lat="45.73331" lon="3.40066">
        <ele>469.2607422</ele>
        <time>2010-12-12T10:26:41Z</time>
      </trkpt>
      <trkpt lat="45.73305" lon="3.40078">
        <ele>471.6639404</ele>
        <time>2010-12-12T10:26:48Z</time>
      </trkpt>
      <trkpt lat="45.73284" lon="3.40089">
        <ele>474.0672607</ele>
        <time>2010-12-12T10:26:54Z</time>
      </trkpt>
      <trkpt lat="45.73281" lon="3.40091">
        <ele>474.5479736</ele>
        <time>2010-12-12T10:26:55Z</time>
      </trkpt>
      <trkpt lat="45.73262" lon="3.40102">
        <ele>476.9512939</ele>
        <time>2010-12-12T10:27:02Z</time>
      </trkpt>
      <trkpt lat="45.73253" lon="3.40096">
        <ele>476.4705811</ele>
        <time>2010-12-12T10:27:07Z</time>
      </trkpt>
      <trkpt lat="45.7325" lon="3.40088">
        <ele>475.9898682</ele>
        <time>2010-12-12T10:27:09Z</time>
      </trkpt>
      <trkpt lat="45.73246" lon="3.40077">
        <ele>474.5479736</ele>
        <time>2010-12-12T10:27:11Z</time>
      </trkpt>
      <trkpt lat="45.73243" lon="3.40064">
        <ele>473.5866699</ele>
        <time>2010-12-12T10:27:13Z</time>
      </trkpt>
      <trkpt lat="45.73235" lon="3.40031">
        <ele>470.2219238</ele>
        <time>2010-12-12T10:27:17Z</time>
      </trkpt>
      <trkpt lat="45.73219" lon="3.39971">
        <ele>466.8574219</ele>
        <time>2010-12-12T10:27:23Z</time>
      </trkpt>
      <trkpt lat="45.73209" lon="3.39939">
        <ele>464.4541016</ele>
        <time>2010-12-12T10:27:26Z</time>
      </trkpt>
      <trkpt lat="45.73201" lon="3.39917">
        <ele>463.012085</ele>
        <time>2010-12-12T10:27:28Z</time>
      </trkpt>
      <trkpt lat="45.73193" lon="3.39895">
        <ele>462.5313721</ele>
        <time>2010-12-12T10:27:30Z</time>
      </trkpt>
      <trkpt lat="45.73185" lon="3.39873">
        <ele>461.0894775</ele>
        <time>2010-12-12T10:27:32Z</time>
      </trkpt>
      <trkpt lat="45.7317" lon="3.3984">
        <ele>458.6861572</ele>
        <time>2010-12-12T10:27:35Z</time>
      </trkpt>
      <trkpt lat="45.73165" lon="3.39829">
        <ele>458.2055664</ele>
        <time>2010-12-12T10:27:36Z</time>
      </trkpt>
      <trkpt lat="45.73136" lon="3.3978">
        <ele>456.7635498</ele>
        <time>2010-12-12T10:27:41Z</time>
      </trkpt>
      <trkpt lat="45.73125" lon="3.39736">
        <ele>456.282959</ele>
        <time>2010-12-12T10:27:45Z</time>
      </trkpt>
      <trkpt lat="45.73127" lon="3.39707">
        <ele>458.2055664</ele>
        <time>2010-12-12T10:27:48Z</time>
      </trkpt>
      <trkpt lat="45.73131" lon="3.39674">
        <ele>460.6087646</ele>
        <time>2010-12-12T10:27:52Z</time>
      </trkpt>
      <trkpt lat="45.7313" lon="3.39653">
        <ele>462.5313721</ele>
        <time>2010-12-12T10:27:55Z</time>
      </trkpt>
      <trkpt lat="45.73128" lon="3.39646">
        <ele>462.5313721</ele>
        <time>2010-12-12T10:27:56Z</time>
      </trkpt>
      <trkpt lat="45.73124" lon="3.39625">
        <ele>464.4541016</ele>
        <time>2010-12-12T10:28:00Z</time>
      </trkpt>
      <trkpt lat="45.73122" lon="3.39618">
        <ele>464.9348145</ele>
        <time>2010-12-12T10:28:02Z</time>
      </trkpt>
      <trkpt lat="45.7312" lon="3.39599">
        <ele>465.4155273</ele>
        <time>2010-12-12T10:28:06Z</time>
      </trkpt>
      <trkpt lat="45.73124" lon="3.39559">
        <ele>465.8961182</ele>
        <time>2010-12-12T10:28:13Z</time>
      </trkpt>
      <trkpt lat="45.73128" lon="3.39532">
        <ele>466.8574219</ele>
        <time>2010-12-12T10:28:18Z</time>
      </trkpt>
      <trkpt lat="45.73132" lon="3.3951">
        <ele>467.8187256</ele>
        <time>2010-12-12T10:28:22Z</time>
      </trkpt>
      <trkpt lat="45.73137" lon="3.39477">
        <ele>469.2607422</ele>
        <time>2010-12-12T10:28:28Z</time>
      </trkpt>
      <trkpt lat="45.73146" lon="3.3943">
        <ele>471.6639404</ele>
        <time>2010-12-12T10:28:37Z</time>
      </trkpt>
      <trkpt lat="45.73148" lon="3.39419">
        <ele>472.6253662</ele>
        <time>2010-12-12T10:28:39Z</time>
      </trkpt>
      <trkpt lat="45.73155" lon="3.39378">
        <ele>475.0286865</ele>
        <time>2010-12-12T10:28:47Z</time>
      </trkpt>
      <trkpt lat="45.73164" lon="3.39333">
        <ele>476.9512939</ele>
        <time>2010-12-12T10:28:56Z</time>
      </trkpt>
      <trkpt lat="45.73171" lon="3.39291">
        <ele>478.3931885</ele>
        <time>2010-12-12T10:29:04Z</time>
      </trkpt>
      <trkpt lat="45.73175" lon="3.39237">
        <ele>479.835083</ele>
        <time>2010-12-12T10:29:14Z</time>
      </trkpt>
      <trkpt lat="45.7318" lon="3.39162">
        <ele>481.7578125</ele>
        <time>2010-12-12T10:29:27Z</time>
      </trkpt>
      <trkpt lat="45.73185" lon="3.3911">
        <ele>482.7192383</ele>
        <time>2010-12-12T10:29:36Z</time>
      </trkpt>
      <trkpt lat="45.73186" lon="3.39087">
        <ele>482.7192383</ele>
        <time>2010-12-12T10:29:40Z</time>
      </trkpt>
      <trkpt lat="45.73187" lon="3.39075">
        <ele>483.1998291</ele>
        <time>2010-12-12T10:29:42Z</time>
      </trkpt>
      <trkpt lat="45.73188" lon="3.39024">
        <ele>485.1224365</ele>
        <time>2010-12-12T10:29:51Z</time>
      </trkpt>
      <trkpt lat="45.73186" lon="3.38987">
        <ele>486.0837402</ele>
        <time>2010-12-12T10:29:58Z</time>
      </trkpt>
      <trkpt lat="45.73182" lon="3.38944">
        <ele>488.0064697</ele>
        <time>2010-12-12T10:30:06Z</time>
      </trkpt>
      <trkpt lat="45.73184" lon="3.38934">
        <ele>488.0064697</ele>
        <time>2010-12-12T10:30:08Z</time>
      </trkpt>
      <trkpt lat="45.73201" lon="3.38927">
        <ele>488.0064697</ele>
        <time>2010-12-12T10:30:13Z</time>
      </trkpt>
      <trkpt lat="45.73234" lon="3.38926">
        <ele>488.4871826</ele>
        <time>2010-12-12T10:30:21Z</time>
      </trkpt>
      <trkpt lat="45.73271" lon="3.38929">
        <ele>489.4483643</ele>
        <time>2010-12-12T10:30:30Z</time>
      </trkpt>
      <trkpt lat="45.73305" lon="3.38928">
        <ele>489.9290771</ele>
        <time>2010-12-12T10:30:39Z</time>
      </trkpt>
      <trkpt lat="45.73338" lon="3.38922">
        <ele>490.40979</ele>
        <time>2010-12-12T10:30:47Z</time>
      </trkpt>
      <trkpt lat="45.73373" lon="3.38912">
        <ele>490.40979</ele>
        <time>2010-12-12T10:30:55Z</time>
      </trkpt>
      <trkpt lat="45.73415" lon="3.38895">
        <ele>490.8903809</ele>
        <time>2010-12-12T10:31:04Z</time>
      </trkpt>
      <trkpt lat="45.73429" lon="3.38889">
        <ele>491.3709717</ele>
        <time>2010-12-12T10:31:07Z</time>
      </trkpt>
      <trkpt lat="45.73478" lon="3.38865">
        <ele>490.40979</ele>
        <time>2010-12-12T10:31:17Z</time>
      </trkpt>
      <trkpt lat="45.73515" lon="3.38847">
        <ele>490.8903809</ele>
        <time>2010-12-12T10:31:25Z</time>
      </trkpt>
      <trkpt lat="45.73546" lon="3.38829">
        <ele>491.3709717</ele>
        <time>2010-12-12T10:31:32Z</time>
      </trkpt>
      <trkpt lat="45.73564" lon="3.38818">
        <ele>490.8903809</ele>
        <time>2010-12-12T10:31:36Z</time>
      </trkpt>
      <trkpt lat="45.73579" lon="3.3881">
        <ele>488.9677734</ele>
        <time>2010-12-12T10:31:39Z</time>
      </trkpt>
      <trkpt lat="45.7361" lon="3.38797">
        <ele>486.0837402</ele>
        <time>2010-12-12T10:31:44Z</time>
      </trkpt>
      <trkpt lat="45.73624" lon="3.38792">
        <ele>485.6030273</ele>
        <time>2010-12-12T10:31:46Z</time>
      </trkpt>
      <trkpt lat="45.73638" lon="3.38786">
        <ele>484.1611328</ele>
        <time>2010-12-12T10:31:48Z</time>
      </trkpt>
      <trkpt lat="45.73667" lon="3.38775">
        <ele>482.2385254</ele>
        <time>2010-12-12T10:31:52Z</time>
      </trkpt>
      <trkpt lat="45.73675" lon="3.38772">
        <ele>480.7966309</ele>
        <time>2010-12-12T10:31:53Z</time>
      </trkpt>
      <trkpt lat="45.737" lon="3.38765">
        <ele>478.3931885</ele>
        <time>2010-12-12T10:31:56Z</time>
      </trkpt>
      <trkpt lat="45.73708" lon="3.38762">
        <ele>477.9124756</ele>
        <time>2010-12-12T10:31:57Z</time>
      </trkpt>
      <trkpt lat="45.73754" lon="3.38744">
        <ele>475.0286865</ele>
        <time>2010-12-12T10:32:02Z</time>
      </trkpt>
      <trkpt lat="45.73789" lon="3.38721">
        <ele>471.6639404</ele>
        <time>2010-12-12T10:32:06Z</time>
      </trkpt>
      <trkpt lat="45.73813" lon="3.38699">
        <ele>470.2219238</ele>
        <time>2010-12-12T10:32:09Z</time>
      </trkpt>
      <trkpt lat="45.7385" lon="3.38661">
        <ele>467.3381348</ele>
        <time>2010-12-12T10:32:14Z</time>
      </trkpt>
      <trkpt lat="45.73891" lon="3.38629">
        <ele>464.4541016</ele>
        <time>2010-12-12T10:32:19Z</time>
      </trkpt>
      <trkpt lat="45.73938" lon="3.38598">
        <ele>462.5313721</ele>
        <time>2010-12-12T10:32:25Z</time>
      </trkpt>
      <trkpt lat="45.73975" lon="3.38558">
        <ele>461.5701904</ele>
        <time>2010-12-12T10:32:31Z</time>
      </trkpt>
      <trkpt lat="45.7399" lon="3.3852">
        <ele>462.5313721</ele>
        <time>2010-12-12T10:32:36Z</time>
      </trkpt>
      <trkpt lat="45.73989" lon="3.385">
        <ele>463.012085</ele>
        <time>2010-12-12T10:32:39Z</time>
      </trkpt>
      <trkpt lat="45.73987" lon="3.38488">
        <ele>462.5313721</ele>
        <time>2010-12-12T10:32:41Z</time>
      </trkpt>
      <trkpt lat="45.73983" lon="3.38453">
        <ele>463.012085</ele>
        <time>2010-12-12T10:32:46Z</time>
      </trkpt>
      <trkpt lat="45.73982" lon="3.38446">
        <ele>463.4927979</ele>
        <time>2010-12-12T10:32:47Z</time>
      </trkpt>
      <trkpt lat="45.73978" lon="3.38405">
        <ele>463.9733887</ele>
        <time>2010-12-12T10:32:53Z</time>
      </trkpt>
      <trkpt lat="45.73976" lon="3.38385">
        <ele>463.9733887</ele>
        <time>2010-12-12T10:32:56Z</time>
      </trkpt>
      <trkpt lat="45.73973" lon="3.38365">
        <ele>463.9733887</ele>
        <time>2010-12-12T10:32:59Z</time>
      </trkpt>
      <trkpt lat="45.73966" lon="3.38303">
        <ele>464.9348145</ele>
        <time>2010-12-12T10:33:08Z</time>
      </trkpt>
      <trkpt lat="45.73961" lon="3.38271">
        <ele>465.4155273</ele>
        <time>2010-12-12T10:33:13Z</time>
      </trkpt>
      <trkpt lat="45.73956" lon="3.38234">
        <ele>466.8574219</ele>
        <time>2010-12-12T10:33:19Z</time>
      </trkpt>
      <trkpt lat="45.73953" lon="3.38217">
        <ele>468.2993164</ele>
        <time>2010-12-12T10:33:22Z</time>
      </trkpt>
      <trkpt lat="45.73948" lon="3.38182">
        <ele>469.741333</ele>
        <time>2010-12-12T10:33:28Z</time>
      </trkpt>
      <trkpt lat="45.73944" lon="3.38147">
        <ele>470.2219238</ele>
        <time>2010-12-12T10:33:34Z</time>
      </trkpt>
      <trkpt lat="45.73943" lon="3.38142">
        <ele>470.2219238</ele>
        <time>2010-12-12T10:33:35Z</time>
      </trkpt>
      <trkpt lat="45.73939" lon="3.38096">
        <ele>469.741333</ele>
        <time>2010-12-12T10:33:42Z</time>
      </trkpt>
      <trkpt lat="45.73931" lon="3.38041">
        <ele>470.2219238</ele>
        <time>2010-12-12T10:33:51Z</time>
      </trkpt>
      <trkpt lat="45.73916" lon="3.37997">
        <ele>472.1446533</ele>
        <time>2010-12-12T10:33:59Z</time>
      </trkpt>
      <trkpt lat="45.73911" lon="3.37987">
        <ele>472.6253662</ele>
        <time>2010-12-12T10:34:01Z</time>
      </trkpt>
      <trkpt lat="45.73886" lon="3.3794">
        <ele>475.0286865</ele>
        <time>2010-12-12T10:34:11Z</time>
      </trkpt>
      <trkpt lat="45.7386" lon="3.37901">
        <ele>476.9512939</ele>
        <time>2010-12-12T10:34:20Z</time>
      </trkpt>
      <trkpt lat="45.73836" lon="3.37865">
        <ele>478.3931885</ele>
        <time>2010-12-12T10:34:28Z</time>
      </trkpt>
      <trkpt lat="45.73822" lon="3.37843">
        <ele>479.835083</ele>
        <time>2010-12-12T10:34:33Z</time>
      </trkpt>
      <trkpt lat="45.73812" lon="3.37823">
        <ele>480.315918</ele>
        <time>2010-12-12T10:34:37Z</time>
      </trkpt>
      <trkpt lat="45.73788" lon="3.37774">
        <ele>483.1998291</ele>
        <time>2010-12-12T10:34:47Z</time>
      </trkpt>
      <trkpt lat="45.73781" lon="3.37753">
        <ele>484.1611328</ele>
        <time>2010-12-12T10:34:51Z</time>
      </trkpt>
      <trkpt lat="45.73773" lon="3.37701">
        <ele>485.6030273</ele>
        <time>2010-12-12T10:35:00Z</time>
      </trkpt>
      <trkpt lat="45.73771" lon="3.37678">
        <ele>486.5644531</ele>
        <time>2010-12-12T10:35:06Z</time>
      </trkpt>
      <trkpt lat="45.73769" lon="3.37653">
        <ele>487.0450439</ele>
        <time>2010-12-12T10:35:12Z</time>
      </trkpt>
      <trkpt lat="45.73768" lon="3.37624">
        <ele>486.0837402</ele>
        <time>2010-12-12T10:35:18Z</time>
      </trkpt>
      <trkpt lat="45.7377" lon="3.37594">
        <ele>482.7192383</ele>
        <time>2010-12-12T10:35:22Z</time>
      </trkpt>
      <trkpt lat="45.73777" lon="3.37554">
        <ele>479.3544922</ele>
        <time>2010-12-12T10:35:26Z</time>
      </trkpt>
      <trkpt lat="45.73778" lon="3.37542">
        <ele>478.8739014</ele>
        <time>2010-12-12T10:35:27Z</time>
      </trkpt>
      <trkpt lat="45.73787" lon="3.37493">
        <ele>481.2772217</ele>
        <time>2010-12-12T10:35:32Z</time>
      </trkpt>
      <trkpt lat="45.73791" lon="3.37465">
        <ele>483.1998291</ele>
        <time>2010-12-12T10:35:36Z</time>
      </trkpt>
      <trkpt lat="45.73794" lon="3.37425">
        <ele>483.1998291</ele>
        <time>2010-12-12T10:35:42Z</time>
      </trkpt>
      <trkpt lat="45.73796" lon="3.37402">
        <ele>481.7578125</ele>
        <time>2010-12-12T10:35:45Z</time>
      </trkpt>
      <trkpt lat="45.73797" lon="3.37375">
        <ele>479.835083</ele>
        <time>2010-12-12T10:35:48Z</time>
      </trkpt>
      <trkpt lat="45.73804" lon="3.37332">
        <ele>481.2772217</ele>
        <time>2010-12-12T10:35:53Z</time>
      </trkpt>
      <trkpt lat="45.73818" lon="3.37281">
        <ele>481.7578125</ele>
        <time>2010-12-12T10:36:00Z</time>
      </trkpt>
      <trkpt lat="45.73835" lon="3.37224">
        <ele>479.835083</ele>
        <time>2010-12-12T10:36:07Z</time>
      </trkpt>
      <trkpt lat="45.73851" lon="3.37186">
        <ele>478.8739014</ele>
        <time>2010-12-12T10:36:12Z</time>
      </trkpt>
      <trkpt lat="45.73855" lon="3.37179">
        <ele>479.3544922</ele>
        <time>2010-12-12T10:36:13Z</time>
      </trkpt>
      <trkpt lat="45.73876" lon="3.37138">
        <ele>478.3931885</ele>
        <time>2010-12-12T10:36:19Z</time>
      </trkpt>
      <trkpt lat="45.73901" lon="3.37087">
        <ele>476.9512939</ele>
        <time>2010-12-12T10:36:26Z</time>
      </trkpt>
      <trkpt lat="45.73918" lon="3.37059">
        <ele>476.4705811</ele>
        <time>2010-12-12T10:36:30Z</time>
      </trkpt>
      <trkpt lat="45.73931" lon="3.37046">
        <ele>476.4705811</ele>
        <time>2010-12-12T10:36:33Z</time>
      </trkpt>
      <trkpt lat="45.73946" lon="3.37014">
        <ele>475.0286865</ele>
        <time>2010-12-12T10:36:38Z</time>
      </trkpt>
      <trkpt lat="45.73976" lon="3.36967">
        <ele>474.5479736</ele>
        <time>2010-12-12T10:36:45Z</time>
      </trkpt>
      <trkpt lat="45.73984" lon="3.36955">
        <ele>475.5092773</ele>
        <time>2010-12-12T10:36:47Z</time>
      </trkpt>
      <trkpt lat="45.73992" lon="3.36943">
        <ele>475.9898682</ele>
        <time>2010-12-12T10:36:49Z</time>
      </trkpt>
      <trkpt lat="45.74018" lon="3.36902">
        <ele>475.5092773</ele>
        <time>2010-12-12T10:36:56Z</time>
      </trkpt>
      <trkpt lat="45.74039" lon="3.36873">
        <ele>473.1060791</ele>
        <time>2010-12-12T10:37:01Z</time>
      </trkpt>
      <trkpt lat="45.74051" lon="3.36854">
        <ele>469.741333</ele>
        <time>2010-12-12T10:37:04Z</time>
      </trkpt>
      <trkpt lat="45.74066" lon="3.36831">
        <ele>466.376709</ele>
        <time>2010-12-12T10:37:07Z</time>
      </trkpt>
      <trkpt lat="45.74086" lon="3.36799">
        <ele>464.4541016</ele>
        <time>2010-12-12T10:37:11Z</time>
      </trkpt>
      <trkpt lat="45.74097" lon="3.36783">
        <ele>463.9733887</ele>
        <time>2010-12-12T10:37:13Z</time>
      </trkpt>
      <trkpt lat="45.74112" lon="3.36761">
        <ele>463.012085</ele>
        <time>2010-12-12T10:37:16Z</time>
      </trkpt>
      <trkpt lat="45.74131" lon="3.36731">
        <ele>461.5701904</ele>
        <time>2010-12-12T10:37:20Z</time>
      </trkpt>
      <trkpt lat="45.74141" lon="3.36716">
        <ele>460.6087646</ele>
        <time>2010-12-12T10:37:22Z</time>
      </trkpt>
      <trkpt lat="45.74157" lon="3.36693">
        <ele>458.6861572</ele>
        <time>2010-12-12T10:37:25Z</time>
      </trkpt>
      <trkpt lat="45.74181" lon="3.36656">
        <ele>456.7635498</ele>
        <time>2010-12-12T10:37:29Z</time>
      </trkpt>
      <trkpt lat="45.74193" lon="3.36638">
        <ele>458.2055664</ele>
        <time>2010-12-12T10:37:31Z</time>
      </trkpt>
      <trkpt lat="45.74204" lon="3.36621">
        <ele>458.2055664</ele>
        <time>2010-12-12T10:37:33Z</time>
      </trkpt>
      <trkpt lat="45.74221" lon="3.36594">
        <ele>458.6861572</ele>
        <time>2010-12-12T10:37:36Z</time>
      </trkpt>
      <trkpt lat="45.74232" lon="3.36578">
        <ele>459.647583</ele>
        <time>2010-12-12T10:37:38Z</time>
      </trkpt>
      <trkpt lat="45.74243" lon="3.36562">
        <ele>459.1668701</ele>
        <time>2010-12-12T10:37:40Z</time>
      </trkpt>
      <trkpt lat="45.74271" lon="3.36528">
        <ele>458.2055664</ele>
        <time>2010-12-12T10:37:45Z</time>
      </trkpt>
      <trkpt lat="45.74292" lon="3.36503">
        <ele>457.7249756</ele>
        <time>2010-12-12T10:37:49Z</time>
      </trkpt>
      <trkpt lat="45.74324" lon="3.36482">
        <ele>456.282959</ele>
        <time>2010-12-12T10:37:54Z</time>
      </trkpt>
      <trkpt lat="45.74366" lon="3.36465">
        <ele>458.2055664</ele>
        <time>2010-12-12T10:38:01Z</time>
      </trkpt>
      <trkpt lat="45.74375" lon="3.36462">
        <ele>459.1668701</ele>
        <time>2010-12-12T10:38:04Z</time>
      </trkpt>
      <trkpt lat="45.74378" lon="3.36462">
        <ele>459.647583</ele>
        <time>2010-12-12T10:38:08Z</time>
      </trkpt>
      <trkpt lat="45.74378" lon="3.36462">
        <ele>459.647583</ele>
        <time>2010-12-12T10:38:15Z</time>
      </trkpt>
      <trkpt lat="45.74377" lon="3.36463">
        <ele>459.647583</ele>
        <time>2010-12-12T10:38:19Z</time>
      </trkpt>
      <trkpt lat="45.74377" lon="3.36463">
        <ele>459.1668701</ele>
        <time>2010-12-12T10:38:24Z</time>
      </trkpt>
      <trkpt lat="45.7438" lon="3.36465">
        <ele>459.1668701</ele>
        <time>2010-12-12T10:38:28Z</time>
      </trkpt>
      <trkpt lat="45.74389" lon="3.3647">
        <ele>460.6087646</ele>
        <time>2010-12-12T10:38:34Z</time>
      </trkpt>
      <trkpt lat="45.74401" lon="3.36476">
        <ele>461.0894775</ele>
        <time>2010-12-12T10:38:39Z</time>
      </trkpt>
      <trkpt lat="45.74411" lon="3.36482">
        <ele>461.5701904</ele>
        <time>2010-12-12T10:38:43Z</time>
      </trkpt>
      <trkpt lat="45.74428" lon="3.36492">
        <ele>461.5701904</ele>
        <time>2010-12-12T10:38:49Z</time>
      </trkpt>
      <trkpt lat="45.74443" lon="3.36507">
        <ele>463.012085</ele>
        <time>2010-12-12T10:38:55Z</time>
      </trkpt>
      <trkpt lat="45.74462" lon="3.36534">
        <ele>463.012085</ele>
        <time>2010-12-12T10:39:03Z</time>
      </trkpt>
      <trkpt lat="45.74488" lon="3.36571">
        <ele>463.4927979</ele>
        <time>2010-12-12T10:39:13Z</time>
      </trkpt>
      <trkpt lat="45.74505" lon="3.36592">
        <ele>463.012085</ele>
        <time>2010-12-12T10:39:19Z</time>
      </trkpt>
      <trkpt lat="45.74525" lon="3.36616">
        <ele>463.012085</ele>
        <time>2010-12-12T10:39:26Z</time>
      </trkpt>
      <trkpt lat="45.74551" lon="3.36641">
        <ele>463.012085</ele>
        <time>2010-12-12T10:39:35Z</time>
      </trkpt>
      <trkpt lat="45.74568" lon="3.36657">
        <ele>463.4927979</ele>
        <time>2010-12-12T10:39:41Z</time>
      </trkpt>
      <trkpt lat="45.74588" lon="3.3667">
        <ele>463.4927979</ele>
        <time>2010-12-12T10:39:47Z</time>
      </trkpt>
      <trkpt lat="45.74612" lon="3.36689">
        <ele>463.012085</ele>
        <time>2010-12-12T10:39:54Z</time>
      </trkpt>
      <trkpt lat="45.74634" lon="3.36707">
        <ele>462.5313721</ele>
        <time>2010-12-12T10:40:01Z</time>
      </trkpt>
      <trkpt lat="45.74643" lon="3.36718">
        <ele>463.012085</ele>
        <time>2010-12-12T10:40:06Z</time>
      </trkpt>
      <trkpt lat="45.74658" lon="3.36734">
        <ele>461.5701904</ele>
        <time>2010-12-12T10:40:12Z</time>
      </trkpt>
      <trkpt lat="45.7467" lon="3.36746">
        <ele>461.5701904</ele>
        <time>2010-12-12T10:40:17Z</time>
      </trkpt>
      <trkpt lat="45.74686" lon="3.36764">
        <ele>461.5701904</ele>
        <time>2010-12-12T10:40:23Z</time>
      </trkpt>
      <trkpt lat="45.74706" lon="3.36781">
        <ele>462.0507813</ele>
        <time>2010-12-12T10:40:30Z</time>
      </trkpt>
      <trkpt lat="45.74724" lon="3.368">
        <ele>463.012085</ele>
        <time>2010-12-12T10:40:37Z</time>
      </trkpt>
      <trkpt lat="45.74743" lon="3.36821">
        <ele>463.4927979</ele>
        <time>2010-12-12T10:40:44Z</time>
      </trkpt>
      <trkpt lat="45.74755" lon="3.3684">
        <ele>464.4541016</ele>
        <time>2010-12-12T10:40:50Z</time>
      </trkpt>
      <trkpt lat="45.74766" lon="3.36853">
        <ele>464.4541016</ele>
        <time>2010-12-12T10:40:57Z</time>
      </trkpt>
      <trkpt lat="45.74767" lon="3.36854">
        <ele>465.4155273</ele>
        <time>2010-12-12T10:41:01Z</time>
      </trkpt>
      <trkpt lat="45.74767" lon="3.36854">
        <ele>464.9348145</ele>
        <time>2010-12-12T10:41:06Z</time>
      </trkpt>
      <trkpt lat="45.74767" lon="3.36854">
        <ele>465.4155273</ele>
        <time>2010-12-12T10:41:10Z</time>
      </trkpt>
      <trkpt lat="45.74767" lon="3.36854">
        <ele>464.9348145</ele>
        <time>2010-12-12T10:41:16Z</time>
      </trkpt>
      <trkpt lat="45.74767" lon="3.36854">
        <ele>464.9348145</ele>
        <time>2010-12-12T10:41:18Z</time>
      </trkpt>
      <trkpt lat="45.74767" lon="3.36854">
        <ele>465.4155273</ele>
        <time>2010-12-12T10:41:27Z</time>
      </trkpt>
      <trkpt lat="45.74767" lon="3.36854">
        <ele>465.4155273</ele>
        <time>2010-12-12T10:41:30Z</time>
      </trkpt>
      <trkpt lat="45.74767" lon="3.36854">
        <ele>464.9348145</ele>
        <time>2010-12-12T10:41:31Z</time>
      </trkpt>
      <trkpt lat="45.74767" lon="3.36854">
        <ele>465.4155273</ele>
        <time>2010-12-12T10:41:34Z</time>
      </trkpt>
      <trkpt lat="45.74767" lon="3.36854">
        <ele>464.4541016</ele>
        <time>2010-12-12T10:41:36Z</time>
      </trkpt>
      <trkpt lat="45.74767" lon="3.36854">
        <ele>464.9348145</ele>
        <time>2010-12-12T10:41:40Z</time>
      </trkpt>
      <trkpt lat="45.74767" lon="3.36854">
        <ele>464.9348145</ele>
        <time>2010-12-12T10:41:41Z</time>
      </trkpt>
      <trkpt lat="45.74767" lon="3.36852">
        <ele>464.9348145</ele>
        <time>2010-12-12T10:41:43Z</time>
      </trkpt>
      <trkpt lat="45.74764" lon="3.36837">
        <ele>463.4927979</ele>
        <time>2010-12-12T10:41:49Z</time>
      </trkpt>
      <trkpt lat="45.7477" lon="3.3682">
        <ele>461.0894775</ele>
        <time>2010-12-12T10:41:53Z</time>
      </trkpt>
      <trkpt lat="45.7478" lon="3.36798">
        <ele>457.7249756</ele>
        <time>2010-12-12T10:41:58Z</time>
      </trkpt>
      <trkpt lat="45.74791" lon="3.36777">
        <ele>454.3602295</ele>
        <time>2010-12-12T10:42:03Z</time>
      </trkpt>
      <trkpt lat="45.74807" lon="3.36751">
        <ele>451.4763184</ele>
        <time>2010-12-12T10:42:09Z</time>
      </trkpt>
      <trkpt lat="45.74821" lon="3.3673">
        <ele>447.6309814</ele>
        <time>2010-12-12T10:42:13Z</time>
      </trkpt>
      <trkpt lat="45.74842" lon="3.36697">
        <ele>444.2664795</ele>
        <time>2010-12-12T10:42:18Z</time>
      </trkpt>
      <trkpt lat="45.74848" lon="3.36683">
        <ele>443.7857666</ele>
        <time>2010-12-12T10:42:20Z</time>
      </trkpt>
      <trkpt lat="45.74852" lon="3.36669">
        <ele>442.8244629</ele>
        <time>2010-12-12T10:42:22Z</time>
      </trkpt>
      <trkpt lat="45.74861" lon="3.36624">
        <ele>439.4597168</ele>
        <time>2010-12-12T10:42:28Z</time>
      </trkpt>
      <trkpt lat="45.74864" lon="3.3661">
        <ele>437.5371094</ele>
        <time>2010-12-12T10:42:30Z</time>
      </trkpt>
      <trkpt lat="45.74876" lon="3.36563">
        <ele>434.6533203</ele>
        <time>2010-12-12T10:42:37Z</time>
      </trkpt>
      <trkpt lat="45.74879" lon="3.36551">
        <ele>434.1726074</ele>
        <time>2010-12-12T10:42:39Z</time>
      </trkpt>
      <trkpt lat="45.7488" lon="3.36546">
        <ele>432.7307129</ele>
        <time>2010-12-12T10:42:40Z</time>
      </trkpt>
      <trkpt lat="45.7488" lon="3.36541">
        <ele>432.7307129</ele>
        <time>2010-12-12T10:42:41Z</time>
      </trkpt>
      <trkpt lat="45.74884" lon="3.36511">
        <ele>429.8465576</ele>
        <time>2010-12-12T10:42:47Z</time>
      </trkpt>
      <trkpt lat="45.74886" lon="3.36495">
        <ele>426.4820557</ele>
        <time>2010-12-12T10:42:50Z</time>
      </trkpt>
      <trkpt lat="45.74887" lon="3.36489">
        <ele>426.9627686</ele>
        <time>2010-12-12T10:42:51Z</time>
      </trkpt>
      <trkpt lat="45.7489" lon="3.36464">
        <ele>422.6367188</ele>
        <time>2010-12-12T10:42:56Z</time>
      </trkpt>
      <trkpt lat="45.74891" lon="3.36448">
        <ele>419.7528076</ele>
        <time>2010-12-12T10:42:59Z</time>
      </trkpt>
      <trkpt lat="45.74894" lon="3.36424">
        <ele>416.3881836</ele>
        <time>2010-12-12T10:43:03Z</time>
      </trkpt>
      <trkpt lat="45.74895" lon="3.364">
        <ele>413.0235596</ele>
        <time>2010-12-12T10:43:07Z</time>
      </trkpt>
      <trkpt lat="45.74895" lon="3.36374">
        <ele>410.1396484</ele>
        <time>2010-12-12T10:43:11Z</time>
      </trkpt>
      <trkpt lat="45.74895" lon="3.36355">
        <ele>407.2556152</ele>
        <time>2010-12-12T10:43:14Z</time>
      </trkpt>
      <trkpt lat="45.74896" lon="3.36334">
        <ele>403.4104004</ele>
        <time>2010-12-12T10:43:17Z</time>
      </trkpt>
      <trkpt lat="45.74898" lon="3.36296">
        <ele>397.6424561</ele>
        <time>2010-12-12T10:43:22Z</time>
      </trkpt>
      <trkpt lat="45.74898" lon="3.36287">
        <ele>397.6424561</ele>
        <time>2010-12-12T10:43:23Z</time>
      </trkpt>
      <trkpt lat="45.74908" lon="3.36253">
        <ele>392.8359375</ele>
        <time>2010-12-12T10:43:27Z</time>
      </trkpt>
      <trkpt lat="45.7492" lon="3.36224">
        <ele>390.4326172</ele>
        <time>2010-12-12T10:43:30Z</time>
      </trkpt>
      <trkpt lat="45.74929" lon="3.36182">
        <ele>388.5100098</ele>
        <time>2010-12-12T10:43:34Z</time>
      </trkpt>
      <trkpt lat="45.74938" lon="3.36129">
        <ele>384.6647949</ele>
        <time>2010-12-12T10:43:39Z</time>
      </trkpt>
      <trkpt lat="45.7494" lon="3.3612">
        <ele>384.6647949</ele>
        <time>2010-12-12T10:43:40Z</time>
      </trkpt>
      <trkpt lat="45.74949" lon="3.36093">
        <ele>383.7032471</ele>
        <time>2010-12-12T10:43:44Z</time>
      </trkpt>
      <trkpt lat="45.74955" lon="3.3608">
        <ele>383.2226563</ele>
        <time>2010-12-12T10:43:47Z</time>
      </trkpt>
      <trkpt lat="45.74957" lon="3.36056">
        <ele>381.7806396</ele>
        <time>2010-12-12T10:43:51Z</time>
      </trkpt>
      <trkpt lat="45.74954" lon="3.36006">
        <ele>380.819458</ele>
        <time>2010-12-12T10:43:59Z</time>
      </trkpt>
      <trkpt lat="45.74954" lon="3.35993">
        <ele>380.3387451</ele>
        <time>2010-12-12T10:44:01Z</time>
      </trkpt>
      <trkpt lat="45.74951" lon="3.35967">
        <ele>378.8968506</ele>
        <time>2010-12-12T10:44:05Z</time>
      </trkpt>
      <trkpt lat="45.74952" lon="3.35949">
        <ele>378.8968506</ele>
        <time>2010-12-12T10:44:09Z</time>
      </trkpt>
      <trkpt lat="45.7496" lon="3.35933">
        <ele>377.9354248</ele>
        <time>2010-12-12T10:44:14Z</time>
      </trkpt>
      <trkpt lat="45.74967" lon="3.35911">
        <ele>377.9354248</ele>
        <time>2010-12-12T10:44:19Z</time>
      </trkpt>
      <trkpt lat="45.74973" lon="3.35883">
        <ele>376.0128174</ele>
        <time>2010-12-12T10:44:24Z</time>
      </trkpt>
      <trkpt lat="45.74981" lon="3.35838">
        <ele>374.0900879</ele>
        <time>2010-12-12T10:44:30Z</time>
      </trkpt>
      <trkpt lat="45.7499" lon="3.35807">
        <ele>373.1289063</ele>
        <time>2010-12-12T10:44:34Z</time>
      </trkpt>
      <trkpt lat="45.74997" lon="3.35784">
        <ele>373.1289063</ele>
        <time>2010-12-12T10:44:37Z</time>
      </trkpt>
      <trkpt lat="45.75002" lon="3.35726">
        <ele>371.6868896</ele>
        <time>2010-12-12T10:44:44Z</time>
      </trkpt>
      <trkpt lat="45.75005" lon="3.35692">
        <ele>370.7255859</ele>
        <time>2010-12-12T10:44:48Z</time>
      </trkpt>
      <trkpt lat="45.75007" lon="3.35667">
        <ele>371.2062988</ele>
        <time>2010-12-12T10:44:51Z</time>
      </trkpt>
      <trkpt lat="45.75012" lon="3.35644">
        <ele>370.244873</ele>
        <time>2010-12-12T10:44:54Z</time>
      </trkpt>
      <trkpt lat="45.75031" lon="3.35605">
        <ele>369.2836914</ele>
        <time>2010-12-12T10:45:00Z</time>
      </trkpt>
      <trkpt lat="45.7506" lon="3.35571">
        <ele>368.3222656</ele>
        <time>2010-12-12T10:45:07Z</time>
      </trkpt>
      <trkpt lat="45.75091" lon="3.35539">
        <ele>366.880249</ele>
        <time>2010-12-12T10:45:14Z</time>
      </trkpt>
      <trkpt lat="45.75106" lon="3.35516">
        <ele>365.9189453</ele>
        <time>2010-12-12T10:45:18Z</time>
      </trkpt>
      <trkpt lat="45.75115" lon="3.35494">
        <ele>365.9189453</ele>
        <time>2010-12-12T10:45:21Z</time>
      </trkpt>
      <trkpt lat="45.75122" lon="3.3547">
        <ele>364.4769287</ele>
        <time>2010-12-12T10:45:24Z</time>
      </trkpt>
      <trkpt lat="45.75135" lon="3.35412">
        <ele>363.5157471</ele>
        <time>2010-12-12T10:45:31Z</time>
      </trkpt>
      <trkpt lat="45.75143" lon="3.35393">
        <ele>363.9963379</ele>
        <time>2010-12-12T10:45:36Z</time>
      </trkpt>
      <trkpt lat="45.75145" lon="3.35387">
        <ele>363.9963379</ele>
        <time>2010-12-12T10:45:41Z</time>
      </trkpt>
      <trkpt lat="45.75145" lon="3.35386">
        <ele>363.9963379</ele>
        <time>2010-12-12T10:45:45Z</time>
      </trkpt>
      <trkpt lat="45.75146" lon="3.35366">
        <ele>363.0350342</ele>
        <time>2010-12-12T10:45:51Z</time>
      </trkpt>
      <trkpt lat="45.75147" lon="3.3536">
        <ele>362.0737305</ele>
        <time>2010-12-12T10:45:52Z</time>
      </trkpt>
      <trkpt lat="45.75146" lon="3.35349">
        <ele>361.1124268</ele>
        <time>2010-12-12T10:45:54Z</time>
      </trkpt>
      <trkpt lat="45.75144" lon="3.35303">
        <ele>360.151123</ele>
        <time>2010-12-12T10:46:01Z</time>
      </trkpt>
      <trkpt lat="45.75144" lon="3.35256">
        <ele>358.7089844</ele>
        <time>2010-12-12T10:46:08Z</time>
      </trkpt>
      <trkpt lat="45.75143" lon="3.3519">
        <ele>356.3057861</ele>
        <time>2010-12-12T10:46:17Z</time>
      </trkpt>
      <trkpt lat="45.75143" lon="3.35126">
        <ele>353.9025879</ele>
        <time>2010-12-12T10:46:25Z</time>
      </trkpt>
      <trkpt lat="45.75143" lon="3.3509">
        <ele>353.421875</ele>
        <time>2010-12-12T10:46:29Z</time>
      </trkpt>
      <trkpt lat="45.75142" lon="3.35061">
        <ele>352.9411621</ele>
        <time>2010-12-12T10:46:32Z</time>
      </trkpt>
      <trkpt lat="45.75141" lon="3.3503">
        <ele>350.5378418</ele>
        <time>2010-12-12T10:46:35Z</time>
      </trkpt>
      <trkpt lat="45.7514" lon="3.34998">
        <ele>348.6152344</ele>
        <time>2010-12-12T10:46:38Z</time>
      </trkpt>
      <trkpt lat="45.75136" lon="3.34951">
        <ele>345.2506104</ele>
        <time>2010-12-12T10:46:42Z</time>
      </trkpt>
      <trkpt lat="45.75135" lon="3.34939">
        <ele>345.2506104</ele>
        <time>2010-12-12T10:46:43Z</time>
      </trkpt>
      <trkpt lat="45.7513" lon="3.3488">
        <ele>342.3666992</ele>
        <time>2010-12-12T10:46:48Z</time>
      </trkpt>
      <trkpt lat="45.75126" lon="3.34806">
        <ele>340.9246826</ele>
        <time>2010-12-12T10:46:54Z</time>
      </trkpt>
      <trkpt lat="45.75132" lon="3.34714">
        <ele>339.9633789</ele>
        <time>2010-12-12T10:47:02Z</time>
      </trkpt>
      <trkpt lat="45.75135" lon="3.34682">
        <ele>339.9633789</ele>
        <time>2010-12-12T10:47:05Z</time>
      </trkpt>
      <trkpt lat="45.75137" lon="3.34653">
        <ele>339.9633789</ele>
        <time>2010-12-12T10:47:08Z</time>
      </trkpt>
      <trkpt lat="45.75138" lon="3.34643">
        <ele>339.482666</ele>
        <time>2010-12-12T10:47:09Z</time>
      </trkpt>
      <trkpt lat="45.75143" lon="3.34584">
        <ele>339.0020752</ele>
        <time>2010-12-12T10:47:15Z</time>
      </trkpt>
      <trkpt lat="45.75144" lon="3.34545">
        <ele>339.482666</ele>
        <time>2010-12-12T10:47:19Z</time>
      </trkpt>
      <trkpt lat="45.75145" lon="3.34525">
        <ele>339.482666</ele>
        <time>2010-12-12T10:47:21Z</time>
      </trkpt>
      <trkpt lat="45.75141" lon="3.34462">
        <ele>340.4440918</ele>
        <time>2010-12-12T10:47:28Z</time>
      </trkpt>
      <trkpt lat="45.75137" lon="3.34427">
        <ele>340.4440918</ele>
        <time>2010-12-12T10:47:32Z</time>
      </trkpt>
      <trkpt lat="45.75136" lon="3.34391">
        <ele>342.3666992</ele>
        <time>2010-12-12T10:47:36Z</time>
      </trkpt>
      <trkpt lat="45.75135" lon="3.34374">
        <ele>343.3278809</ele>
        <time>2010-12-12T10:47:38Z</time>
      </trkpt>
      <trkpt lat="45.75135" lon="3.34348">
        <ele>343.8085938</ele>
        <time>2010-12-12T10:47:41Z</time>
      </trkpt>
      <trkpt lat="45.75137" lon="3.34289">
        <ele>345.2506104</ele>
        <time>2010-12-12T10:47:48Z</time>
      </trkpt>
      <trkpt lat="45.75138" lon="3.34274">
        <ele>347.1732178</ele>
        <time>2010-12-12T10:47:50Z</time>
      </trkpt>
      <trkpt lat="45.75139" lon="3.34259">
        <ele>348.1346436</ele>
        <time>2010-12-12T10:47:52Z</time>
      </trkpt>
      <trkpt lat="45.75139" lon="3.34218">
        <ele>349.0958252</ele>
        <time>2010-12-12T10:47:59Z</time>
      </trkpt>
      <trkpt lat="45.75136" lon="3.3418">
        <ele>350.057251</ele>
        <time>2010-12-12T10:48:07Z</time>
      </trkpt>
      <trkpt lat="45.75134" lon="3.34141">
        <ele>349.5765381</ele>
        <time>2010-12-12T10:48:15Z</time>
      </trkpt>
      <trkpt lat="45.75133" lon="3.34104">
        <ele>348.1346436</ele>
        <time>2010-12-12T10:48:21Z</time>
      </trkpt>
      <trkpt lat="45.75131" lon="3.34036">
        <ele>347.1732178</ele>
        <time>2010-12-12T10:48:30Z</time>
      </trkpt>
      <trkpt lat="45.75127" lon="3.33999">
        <ele>343.8085938</ele>
        <time>2010-12-12T10:48:34Z</time>
      </trkpt>
      <trkpt lat="45.75123" lon="3.33969">
        <ele>342.84729</ele>
        <time>2010-12-12T10:48:37Z</time>
      </trkpt>
      <trkpt lat="45.75118" lon="3.33938">
        <ele>342.3666992</ele>
        <time>2010-12-12T10:48:40Z</time>
      </trkpt>
      <trkpt lat="45.75112" lon="3.33908">
        <ele>341.8859863</ele>
        <time>2010-12-12T10:48:43Z</time>
      </trkpt>
      <trkpt lat="45.75108" lon="3.33877">
        <ele>340.9246826</ele>
        <time>2010-12-12T10:48:46Z</time>
      </trkpt>
      <trkpt lat="45.75102" lon="3.33826">
        <ele>339.482666</ele>
        <time>2010-12-12T10:48:51Z</time>
      </trkpt>
      <trkpt lat="45.75099" lon="3.33798">
        <ele>339.482666</ele>
        <time>2010-12-12T10:48:54Z</time>
      </trkpt>
      <trkpt lat="45.75096" lon="3.33779">
        <ele>339.0020752</ele>
        <time>2010-12-12T10:48:56Z</time>
      </trkpt>
      <trkpt lat="45.75095" lon="3.3377">
        <ele>339.0020752</ele>
        <time>2010-12-12T10:48:57Z</time>
      </trkpt>
      <trkpt lat="45.75093" lon="3.33753">
        <ele>339.0020752</ele>
        <time>2010-12-12T10:48:59Z</time>
      </trkpt>
      <trkpt lat="45.75092" lon="3.33693">
        <ele>338.5214844</ele>
        <time>2010-12-12T10:49:06Z</time>
      </trkpt>
      <trkpt lat="45.75094" lon="3.33635">
        <ele>338.0407715</ele>
        <time>2010-12-12T10:49:13Z</time>
      </trkpt>
      <trkpt lat="45.75096" lon="3.33614">
        <ele>338.0407715</ele>
        <time>2010-12-12T10:49:16Z</time>
      </trkpt>
      <trkpt lat="45.75097" lon="3.33609">
        <ele>338.0407715</ele>
        <time>2010-12-12T10:49:17Z</time>
      </trkpt>
      <trkpt lat="45.75106" lon="3.33608">
        <ele>338.0407715</ele>
        <time>2010-12-12T10:49:21Z</time>
      </trkpt>
      <trkpt lat="45.75115" lon="3.33614">
        <ele>338.0407715</ele>
        <time>2010-12-12T10:49:25Z</time>
      </trkpt>
      <trkpt lat="45.75125" lon="3.33612">
        <ele>337.5600586</ele>
        <time>2010-12-12T10:49:29Z</time>
      </trkpt>
      <trkpt lat="45.75127" lon="3.33613">
        <ele>338.0407715</ele>
        <time>2010-12-12T10:49:34Z</time>
      </trkpt>
      <trkpt lat="45.75127" lon="3.33613">
        <ele>338.0407715</ele>
        <time>2010-12-12T10:49:52Z</time>
      </trkpt>
      <trkpt lat="45.75127" lon="3.33613">
        <ele>338.5214844</ele>
        <time>2010-12-12T10:49:59Z</time>
      </trkpt>
      <trkpt lat="45.75128" lon="3.33614">
        <ele>338.5214844</ele>
        <time>2010-12-12T10:50:08Z</time>
      </trkpt>
      <trkpt lat="45.75126" lon="3.33614">
        <ele>338.0407715</ele>
        <time>2010-12-12T10:52:57Z</time>
      </trkpt>
      <trkpt lat="45.75126" lon="3.33614">
        <ele>338.0407715</ele>
        <time>2010-12-12T10:52:58Z</time>
      </trkpt>
      <trkpt lat="45.75126" lon="3.33614">
        <ele>339.0020752</ele>
        <time>2010-12-12T10:53:07Z</time>
      </trkpt>
      <trkpt lat="45.75127" lon="3.33615">
        <ele>339.0020752</ele>
        <time>2010-12-12T10:53:17Z</time>
      </trkpt>
      <trkpt lat="45.75133" lon="3.33621">
        <ele>338.5214844</ele>
        <time>2010-12-12T10:53:21Z</time>
      </trkpt>
      <trkpt lat="45.75143" lon="3.33634">
        <ele>338.0407715</ele>
        <time>2010-12-12T10:53:25Z</time>
      </trkpt>
      <trkpt lat="45.75156" lon="3.33644">
        <ele>338.0407715</ele>
        <time>2010-12-12T10:53:29Z</time>
      </trkpt>
      <trkpt lat="45.75167" lon="3.33654">
        <ele>338.5214844</ele>
        <time>2010-12-12T10:53:32Z</time>
      </trkpt>
      <trkpt lat="45.7518" lon="3.33671">
        <ele>338.0407715</ele>
        <time>2010-12-12T10:53:36Z</time>
      </trkpt>
      <trkpt lat="45.7519" lon="3.33686">
        <ele>338.5214844</ele>
        <time>2010-12-12T10:53:39Z</time>
      </trkpt>
      <trkpt lat="45.75213" lon="3.3372">
        <ele>339.0020752</ele>
        <time>2010-12-12T10:53:46Z</time>
      </trkpt>
      <trkpt lat="45.75234" lon="3.33757">
        <ele>339.482666</ele>
        <time>2010-12-12T10:53:53Z</time>
      </trkpt>
      <trkpt lat="45.7526" lon="3.33801">
        <ele>339.482666</ele>
        <time>2010-12-12T10:54:01Z</time>
      </trkpt>
      <trkpt lat="45.75285" lon="3.33841">
        <ele>340.9246826</ele>
        <time>2010-12-12T10:54:09Z</time>
      </trkpt>
      <trkpt lat="45.75294" lon="3.33855">
        <ele>341.4052734</ele>
        <time>2010-12-12T10:54:14Z</time>
      </trkpt>
      <trkpt lat="45.75297" lon="3.33856">
        <ele>341.4052734</ele>
        <time>2010-12-12T10:54:17Z</time>
      </trkpt>
      <trkpt lat="45.753" lon="3.33863">
        <ele>341.4052734</ele>
        <time>2010-12-12T10:54:22Z</time>
      </trkpt>
      <trkpt lat="45.75299" lon="3.33865">
        <ele>341.4052734</ele>
        <time>2010-12-12T10:54:32Z</time>
      </trkpt>
      <trkpt lat="45.75297" lon="3.33858">
        <ele>341.4052734</ele>
        <time>2010-12-12T10:54:36Z</time>
      </trkpt>
      <trkpt lat="45.75309" lon="3.33851">
        <ele>340.9246826</ele>
        <time>2010-12-12T10:54:41Z</time>
      </trkpt>
      <trkpt lat="45.75318" lon="3.33848">
        <ele>339.9633789</ele>
        <time>2010-12-12T10:54:44Z</time>
      </trkpt>
      <trkpt lat="45.7534" lon="3.33846">
        <ele>339.9633789</ele>
        <time>2010-12-12T10:54:49Z</time>
      </trkpt>
      <trkpt lat="45.75366" lon="3.33842">
        <ele>339.9633789</ele>
        <time>2010-12-12T10:54:54Z</time>
      </trkpt>
      <trkpt lat="45.75381" lon="3.33841">
        <ele>340.4440918</ele>
        <time>2010-12-12T10:54:57Z</time>
      </trkpt>
      <trkpt lat="45.75387" lon="3.3384">
        <ele>339.9633789</ele>
        <time>2010-12-12T10:54:58Z</time>
      </trkpt>
      <trkpt lat="45.75397" lon="3.33838">
        <ele>340.4440918</ele>
        <time>2010-12-12T10:55:00Z</time>
      </trkpt>
      <trkpt lat="45.7544" lon="3.33833">
        <ele>340.4440918</ele>
        <time>2010-12-12T10:55:08Z</time>
      </trkpt>
      <trkpt lat="45.75477" lon="3.33828">
        <ele>340.4440918</ele>
        <time>2010-12-12T10:55:15Z</time>
      </trkpt>
      <trkpt lat="45.75529" lon="3.33821">
        <ele>339.9633789</ele>
        <time>2010-12-12T10:55:25Z</time>
      </trkpt>
      <trkpt lat="45.75568" lon="3.33815">
        <ele>339.9633789</ele>
        <time>2010-12-12T10:55:33Z</time>
      </trkpt>
      <trkpt lat="45.75613" lon="3.33809">
        <ele>338.5214844</ele>
        <time>2010-12-12T10:55:41Z</time>
      </trkpt>
      <trkpt lat="45.75657" lon="3.33804">
        <ele>338.5214844</ele>
        <time>2010-12-12T10:55:48Z</time>
      </trkpt>
      <trkpt lat="45.75699" lon="3.33798">
        <ele>339.482666</ele>
        <time>2010-12-12T10:55:55Z</time>
      </trkpt>
      <trkpt lat="45.75733" lon="3.33794">
        <ele>339.9633789</ele>
        <time>2010-12-12T10:56:01Z</time>
      </trkpt>
      <trkpt lat="45.75748" lon="3.33793">
        <ele>340.9246826</ele>
        <time>2010-12-12T10:56:05Z</time>
      </trkpt>
      <trkpt lat="45.7575" lon="3.33792">
        <ele>340.9246826</ele>
        <time>2010-12-12T10:56:06Z</time>
      </trkpt>
      <trkpt lat="45.75756" lon="3.3379">
        <ele>340.4440918</ele>
        <time>2010-12-12T10:56:11Z</time>
      </trkpt>
      <trkpt lat="45.75753" lon="3.3378">
        <ele>340.4440918</ele>
        <time>2010-12-12T10:56:15Z</time>
      </trkpt>
      <trkpt lat="45.75752" lon="3.33776">
        <ele>339.9633789</ele>
        <time>2010-12-12T10:56:16Z</time>
      </trkpt>
      <trkpt lat="45.75742" lon="3.3373">
        <ele>339.0020752</ele>
        <time>2010-12-12T10:56:25Z</time>
      </trkpt>
      <trkpt lat="45.75734" lon="3.33691">
        <ele>340.4440918</ele>
        <time>2010-12-12T10:56:33Z</time>
      </trkpt>
      <trkpt lat="45.75727" lon="3.33653">
        <ele>340.4440918</ele>
        <time>2010-12-12T10:56:41Z</time>
      </trkpt>
      <trkpt lat="45.75718" lon="3.33607">
        <ele>340.4440918</ele>
        <time>2010-12-12T10:56:50Z</time>
      </trkpt>
      <trkpt lat="45.75713" lon="3.33573">
        <ele>341.4052734</ele>
        <time>2010-12-12T10:56:57Z</time>
      </trkpt>
      <trkpt lat="45.75724" lon="3.33564">
        <ele>341.8859863</ele>
        <time>2010-12-12T10:57:01Z</time>
      </trkpt>
      <trkpt lat="45.75728" lon="3.33563">
        <ele>341.8859863</ele>
        <time>2010-12-12T10:57:02Z</time>
      </trkpt>
      <trkpt lat="45.75771" lon="3.33565">
        <ele>341.8859863</ele>
        <time>2010-12-12T10:57:11Z</time>
      </trkpt>
      <trkpt lat="45.7581" lon="3.33568">
        <ele>341.8859863</ele>
        <time>2010-12-12T10:57:19Z</time>
      </trkpt>
      <trkpt lat="45.75847" lon="3.33569">
        <ele>340.9246826</ele>
        <time>2010-12-12T10:57:26Z</time>
      </trkpt>
      <trkpt lat="45.7589" lon="3.33571">
        <ele>340.9246826</ele>
        <time>2010-12-12T10:57:34Z</time>
      </trkpt>
      <trkpt lat="45.75943" lon="3.33574">
        <ele>340.4440918</ele>
        <time>2010-12-12T10:57:44Z</time>
      </trkpt>
      <trkpt lat="45.75997" lon="3.33577">
        <ele>340.4440918</ele>
        <time>2010-12-12T10:57:54Z</time>
      </trkpt>
      <trkpt lat="45.76035" lon="3.33579">
        <ele>340.4440918</ele>
        <time>2010-12-12T10:58:01Z</time>
      </trkpt>
      <trkpt lat="45.76072" lon="3.3358">
        <ele>340.4440918</ele>
        <time>2010-12-12T10:58:08Z</time>
      </trkpt>
      <trkpt lat="45.76077" lon="3.3358">
        <ele>339.9633789</ele>
        <time>2010-12-12T10:58:09Z</time>
      </trkpt>
      <trkpt lat="45.76131" lon="3.33581">
        <ele>339.9633789</ele>
        <time>2010-12-12T10:58:19Z</time>
      </trkpt>
      <trkpt lat="45.7619" lon="3.3358">
        <ele>337.5600586</ele>
        <time>2010-12-12T10:58:29Z</time>
      </trkpt>
      <trkpt lat="45.76237" lon="3.33567">
        <ele>336.1181641</ele>
        <time>2010-12-12T10:58:37Z</time>
      </trkpt>
      <trkpt lat="45.76253" lon="3.33559">
        <ele>335.1567383</ele>
        <time>2010-12-12T10:58:40Z</time>
      </trkpt>
      <trkpt lat="45.76305" lon="3.33531">
        <ele>334.1954346</ele>
        <time>2010-12-12T10:58:49Z</time>
      </trkpt>
      <trkpt lat="45.76367" lon="3.33497">
        <ele>332.75354</ele>
        <time>2010-12-12T10:59:00Z</time>
      </trkpt>
      <trkpt lat="45.76393" lon="3.33484">
        <ele>331.3115234</ele>
        <time>2010-12-12T10:59:05Z</time>
      </trkpt>
      <trkpt lat="45.76449" lon="3.33461">
        <ele>331.7921143</ele>
        <time>2010-12-12T10:59:15Z</time>
      </trkpt>
      <trkpt lat="45.76481" lon="3.33448">
        <ele>331.3115234</ele>
        <time>2010-12-12T10:59:22Z</time>
      </trkpt>
      <trkpt lat="45.76508" lon="3.33439">
        <ele>331.7921143</ele>
        <time>2010-12-12T10:59:29Z</time>
      </trkpt>
      <trkpt lat="45.76524" lon="3.33432">
        <ele>330.8309326</ele>
        <time>2010-12-12T10:59:33Z</time>
      </trkpt>
      <trkpt lat="45.76529" lon="3.3343">
        <ele>330.8309326</ele>
        <time>2010-12-12T10:59:34Z</time>
      </trkpt>
      <trkpt lat="45.76559" lon="3.33419">
        <ele>329.8695068</ele>
        <time>2010-12-12T10:59:40Z</time>
      </trkpt>
      <trkpt lat="45.76581" lon="3.33415">
        <ele>329.388916</ele>
        <time>2010-12-12T10:59:44Z</time>
      </trkpt>
      <trkpt lat="45.76614" lon="3.33426">
        <ele>329.388916</ele>
        <time>2010-12-12T10:59:50Z</time>
      </trkpt>
      <trkpt lat="45.76634" lon="3.33436">
        <ele>330.3502197</ele>
        <time>2010-12-12T10:59:55Z</time>
      </trkpt>
      <trkpt lat="45.76653" lon="3.33442">
        <ele>329.8695068</ele>
        <time>2010-12-12T11:00:01Z</time>
      </trkpt>
      <trkpt lat="45.7668" lon="3.33448">
        <ele>330.3502197</ele>
        <time>2010-12-12T11:00:08Z</time>
      </trkpt>
      <trkpt lat="45.76711" lon="3.33452">
        <ele>329.388916</ele>
        <time>2010-12-12T11:00:15Z</time>
      </trkpt>
      <trkpt lat="45.76733" lon="3.33451">
        <ele>329.8695068</ele>
        <time>2010-12-12T11:00:20Z</time>
      </trkpt>
      <trkpt lat="45.76755" lon="3.33444">
        <ele>330.3502197</ele>
        <time>2010-12-12T11:00:26Z</time>
      </trkpt>
      <trkpt lat="45.76765" lon="3.33437">
        <ele>330.3502197</ele>
        <time>2010-12-12T11:00:30Z</time>
      </trkpt>
      <trkpt lat="45.76767" lon="3.33435">
        <ele>330.3502197</ele>
        <time>2010-12-12T11:00:31Z</time>
      </trkpt>
      <trkpt lat="45.7677" lon="3.33435">
        <ele>330.3502197</ele>
        <time>2010-12-12T11:00:34Z</time>
      </trkpt>
      <trkpt lat="45.7677" lon="3.33435">
        <ele>330.3502197</ele>
        <time>2010-12-12T11:00:35Z</time>
      </trkpt>
      <trkpt lat="45.76769" lon="3.33436">
        <ele>330.3502197</ele>
        <time>2010-12-12T11:00:49Z</time>
      </trkpt>
      <trkpt lat="45.76771" lon="3.33436">
        <ele>330.3502197</ele>
        <time>2010-12-12T11:00:54Z</time>
      </trkpt>
      <trkpt lat="45.76771" lon="3.33435">
        <ele>330.3502197</ele>
        <time>2010-12-12T11:01:09Z</time>
      </trkpt>
      <trkpt lat="45.7677" lon="3.33435">
        <ele>330.3502197</ele>
        <time>2010-12-12T11:01:21Z</time>
      </trkpt>
      <trkpt lat="45.7677" lon="3.33435">
        <ele>330.3502197</ele>
        <time>2010-12-12T11:01:23Z</time>
      </trkpt>
      <trkpt lat="45.7677" lon="3.33435">
        <ele>329.8695068</ele>
        <time>2010-12-12T11:01:24Z</time>
      </trkpt>
      <trkpt lat="45.76769" lon="3.33435">
        <ele>330.3502197</ele>
        <time>2010-12-12T11:01:37Z</time>
      </trkpt>
      <trkpt lat="45.76769" lon="3.33435">
        <ele>330.8309326</ele>
        <time>2010-12-12T11:01:41Z</time>
      </trkpt>
      <trkpt lat="45.76769" lon="3.33435">
        <ele>329.8695068</ele>
        <time>2010-12-12T11:01:44Z</time>
      </trkpt>
      <trkpt lat="45.76769" lon="3.33435">
        <ele>330.8309326</ele>
        <time>2010-12-12T11:01:55Z</time>
      </trkpt>
      <trkpt lat="45.76769" lon="3.33435">
        <ele>331.3115234</ele>
        <time>2010-12-12T11:02:05Z</time>
      </trkpt>
      <trkpt lat="45.76769" lon="3.33435">
        <ele>330.8309326</ele>
        <time>2010-12-12T11:02:07Z</time>
      </trkpt>
      <trkpt lat="45.76769" lon="3.33435">
        <ele>330.8309326</ele>
        <time>2010-12-12T11:02:11Z</time>
      </trkpt>
      <trkpt lat="45.76769" lon="3.33435">
        <ele>331.7921143</ele>
        <time>2010-12-12T11:02:24Z</time>
      </trkpt>
      <trkpt lat="45.76768" lon="3.33435">
        <ele>331.3115234</ele>
        <time>2010-12-12T11:02:28Z</time>
      </trkpt>
      <trkpt lat="45.76768" lon="3.33435">
        <ele>330.8309326</ele>
        <time>2010-12-12T11:02:40Z</time>
      </trkpt>
      <trkpt lat="45.76768" lon="3.33435">
        <ele>330.8309326</ele>
        <time>2010-12-12T11:03:08Z</time>
      </trkpt>
      <trkpt lat="45.76769" lon="3.33435">
        <ele>330.8309326</ele>
        <time>2010-12-12T11:03:26Z</time>
      </trkpt>
      <trkpt lat="45.76769" lon="3.33435">
        <ele>330.8309326</ele>
        <time>2010-12-12T11:03:34Z</time>
      </trkpt>
      <trkpt lat="45.7677" lon="3.33434">
        <ele>330.3502197</ele>
        <time>2010-12-12T11:04:20Z</time>
      </trkpt>
      <trkpt lat="45.7677" lon="3.33434">
        <ele>329.8695068</ele>
        <time>2010-12-12T11:04:37Z</time>
      </trkpt>
      <trkpt lat="45.76775" lon="3.33436">
        <ele>329.8695068</ele>
        <time>2010-12-12T11:04:47Z</time>
      </trkpt>
      <trkpt lat="45.76779" lon="3.33442">
        <ele>329.388916</ele>
        <time>2010-12-12T11:04:50Z</time>
      </trkpt>
      <trkpt lat="45.76783" lon="3.33447">
        <ele>329.8695068</ele>
        <time>2010-12-12T11:04:52Z</time>
      </trkpt>
      <trkpt lat="45.76807" lon="3.33474">
        <ele>329.388916</ele>
        <time>2010-12-12T11:05:00Z</time>
      </trkpt>
      <trkpt lat="45.76824" lon="3.3351">
        <ele>327.9467773</ele>
        <time>2010-12-12T11:05:06Z</time>
      </trkpt>
      <trkpt lat="45.76825" lon="3.33526">
        <ele>326.9855957</ele>
        <time>2010-12-12T11:05:08Z</time>
      </trkpt>
      <trkpt lat="45.76824" lon="3.33622">
        <ele>326.9855957</ele>
        <time>2010-12-12T11:05:20Z</time>
      </trkpt>
      <trkpt lat="45.76829" lon="3.33672">
        <ele>326.0241699</ele>
        <time>2010-12-12T11:05:26Z</time>
      </trkpt>
      <trkpt lat="45.76846" lon="3.33724">
        <ele>325.5435791</ele>
        <time>2010-12-12T11:05:33Z</time>
      </trkpt>
      <trkpt lat="45.76852" lon="3.33738">
        <ele>325.5435791</ele>
        <time>2010-12-12T11:05:35Z</time>
      </trkpt>
      <trkpt lat="45.76869" lon="3.33761">
        <ele>325.5435791</ele>
        <time>2010-12-12T11:05:39Z</time>
      </trkpt>
      <trkpt lat="45.76923" lon="3.33806">
        <ele>325.5435791</ele>
        <time>2010-12-12T11:05:50Z</time>
      </trkpt>
      <trkpt lat="45.76973" lon="3.33846">
        <ele>326.0241699</ele>
        <time>2010-12-12T11:06:00Z</time>
      </trkpt>
      <trkpt lat="45.76998" lon="3.33868">
        <ele>325.5435791</ele>
        <time>2010-12-12T11:06:05Z</time>
      </trkpt>
      <trkpt lat="45.77052" lon="3.33917">
        <ele>325.5435791</ele>
        <time>2010-12-12T11:06:16Z</time>
      </trkpt>
      <trkpt lat="45.77097" lon="3.33963">
        <ele>326.5048828</ele>
        <time>2010-12-12T11:06:26Z</time>
      </trkpt>
      <trkpt lat="45.77136" lon="3.34002">
        <ele>326.5048828</ele>
        <time>2010-12-12T11:06:35Z</time>
      </trkpt>
      <trkpt lat="45.77162" lon="3.34026">
        <ele>326.5048828</ele>
        <time>2010-12-12T11:06:41Z</time>
      </trkpt>
      <trkpt lat="45.77218" lon="3.34074">
        <ele>326.0241699</ele>
        <time>2010-12-12T11:06:53Z</time>
      </trkpt>
      <trkpt lat="45.7724" lon="3.34093">
        <ele>326.0241699</ele>
        <time>2010-12-12T11:06:58Z</time>
      </trkpt>
      <trkpt lat="45.77252" lon="3.34103">
        <ele>325.5435791</ele>
        <time>2010-12-12T11:07:01Z</time>
      </trkpt>
      <trkpt lat="45.77256" lon="3.34106">
        <ele>325.5435791</ele>
        <time>2010-12-12T11:07:02Z</time>
      </trkpt>
      <trkpt lat="45.77271" lon="3.34122">
        <ele>326.5048828</ele>
        <time>2010-12-12T11:07:06Z</time>
      </trkpt>
      <trkpt lat="45.77283" lon="3.34151">
        <ele>326.9855957</ele>
        <time>2010-12-12T11:07:11Z</time>
      </trkpt>
      <trkpt lat="45.77284" lon="3.34158">
        <ele>326.9855957</ele>
        <time>2010-12-12T11:07:12Z</time>
      </trkpt>
      <trkpt lat="45.77282" lon="3.34227">
        <ele>326.5048828</ele>
        <time>2010-12-12T11:07:22Z</time>
      </trkpt>
      <trkpt lat="45.77277" lon="3.34323">
        <ele>326.5048828</ele>
        <time>2010-12-12T11:07:35Z</time>
      </trkpt>
      <trkpt lat="45.77273" lon="3.34406">
        <ele>326.5048828</ele>
        <time>2010-12-12T11:07:46Z</time>
      </trkpt>
      <trkpt lat="45.77269" lon="3.34443">
        <ele>326.9855957</ele>
        <time>2010-12-12T11:07:51Z</time>
      </trkpt>
      <trkpt lat="45.7726" lon="3.34502">
        <ele>326.5048828</ele>
        <time>2010-12-12T11:07:59Z</time>
      </trkpt>
      <trkpt lat="45.77253" lon="3.34547">
        <ele>326.5048828</ele>
        <time>2010-12-12T11:08:05Z</time>
      </trkpt>
      <trkpt lat="45.7724" lon="3.34615">
        <ele>326.5048828</ele>
        <time>2010-12-12T11:08:14Z</time>
      </trkpt>
      <trkpt lat="45.77237" lon="3.34644">
        <ele>327.4661865</ele>
        <time>2010-12-12T11:08:18Z</time>
      </trkpt>
      <trkpt lat="45.77241" lon="3.34716">
        <ele>329.388916</ele>
        <time>2010-12-12T11:08:28Z</time>
      </trkpt>
      <trkpt lat="45.77245" lon="3.34765">
        <ele>330.3502197</ele>
        <time>2010-12-12T11:08:35Z</time>
      </trkpt>
      <trkpt lat="45.77246" lon="3.34799">
        <ele>331.7921143</ele>
        <time>2010-12-12T11:08:40Z</time>
      </trkpt>
      <trkpt lat="45.77246" lon="3.34848">
        <ele>332.75354</ele>
        <time>2010-12-12T11:08:48Z</time>
      </trkpt>
      <trkpt lat="45.77246" lon="3.34883">
        <ele>335.1567383</ele>
        <time>2010-12-12T11:08:55Z</time>
      </trkpt>
      <trkpt lat="45.7725" lon="3.34932">
        <ele>338.0407715</ele>
        <time>2010-12-12T11:09:05Z</time>
      </trkpt>
      <trkpt lat="45.77262" lon="3.34957">
        <ele>339.0020752</ele>
        <time>2010-12-12T11:09:11Z</time>
      </trkpt>
      <trkpt lat="45.77269" lon="3.34966">
        <ele>339.9633789</ele>
        <time>2010-12-12T11:09:14Z</time>
      </trkpt>
      <trkpt lat="45.77286" lon="3.34973">
        <ele>341.8859863</ele>
        <time>2010-12-12T11:09:19Z</time>
      </trkpt>
      <trkpt lat="45.77317" lon="3.34973">
        <ele>342.3666992</ele>
        <time>2010-12-12T11:09:27Z</time>
      </trkpt>
      <trkpt lat="45.77355" lon="3.34977">
        <ele>341.8859863</ele>
        <time>2010-12-12T11:09:35Z</time>
      </trkpt>
      <trkpt lat="45.77406" lon="3.34989">
        <ele>342.3666992</ele>
        <time>2010-12-12T11:09:45Z</time>
      </trkpt>
      <trkpt lat="45.77449" lon="3.34998">
        <ele>342.3666992</ele>
        <time>2010-12-12T11:09:53Z</time>
      </trkpt>
      <trkpt lat="45.77492" lon="3.35007">
        <ele>342.3666992</ele>
        <time>2010-12-12T11:10:01Z</time>
      </trkpt>
      <trkpt lat="45.77519" lon="3.35012">
        <ele>342.84729</ele>
        <time>2010-12-12T11:10:06Z</time>
      </trkpt>
      <trkpt lat="45.77551" lon="3.35016">
        <ele>342.3666992</ele>
        <time>2010-12-12T11:10:12Z</time>
      </trkpt>
      <trkpt lat="45.77608" lon="3.35025">
        <ele>340.9246826</ele>
        <time>2010-12-12T11:10:22Z</time>
      </trkpt>
      <trkpt lat="45.77631" lon="3.35028">
        <ele>340.4440918</ele>
        <time>2010-12-12T11:10:26Z</time>
      </trkpt>
      <trkpt lat="45.77655" lon="3.35032">
        <ele>339.9633789</ele>
        <time>2010-12-12T11:10:30Z</time>
      </trkpt>
      <trkpt lat="45.77667" lon="3.35034">
        <ele>339.9633789</ele>
        <time>2010-12-12T11:10:32Z</time>
      </trkpt>
      <trkpt lat="45.77733" lon="3.35046">
        <ele>338.5214844</ele>
        <time>2010-12-12T11:10:43Z</time>
      </trkpt>
      <trkpt lat="45.77756" lon="3.35049">
        <ele>338.5214844</ele>
        <time>2010-12-12T11:10:47Z</time>
      </trkpt>
      <trkpt lat="45.77802" lon="3.35046">
        <ele>338.0407715</ele>
        <time>2010-12-12T11:10:55Z</time>
      </trkpt>
      <trkpt lat="45.77824" lon="3.35044">
        <ele>337.5600586</ele>
        <time>2010-12-12T11:10:59Z</time>
      </trkpt>
      <trkpt lat="45.77875" lon="3.35039">
        <ele>336.1181641</ele>
        <time>2010-12-12T11:11:08Z</time>
      </trkpt>
      <trkpt lat="45.7788" lon="3.35039">
        <ele>336.598877</ele>
        <time>2010-12-12T11:11:09Z</time>
      </trkpt>
      <trkpt lat="45.77927" lon="3.35052">
        <ele>337.5600586</ele>
        <time>2010-12-12T11:11:18Z</time>
      </trkpt>
      <trkpt lat="45.77937" lon="3.35055">
        <ele>338.0407715</ele>
        <time>2010-12-12T11:11:20Z</time>
      </trkpt>
      <trkpt lat="45.77962" lon="3.35063">
        <ele>338.5214844</ele>
        <time>2010-12-12T11:11:25Z</time>
      </trkpt>
      <trkpt lat="45.77988" lon="3.35087">
        <ele>338.0407715</ele>
        <time>2010-12-12T11:11:32Z</time>
      </trkpt>
      <trkpt lat="45.78" lon="3.35096">
        <ele>336.598877</ele>
        <time>2010-12-12T11:11:36Z</time>
      </trkpt>
      <trkpt lat="45.7801" lon="3.35101">
        <ele>336.598877</ele>
        <time>2010-12-12T11:11:39Z</time>
      </trkpt>
      <trkpt lat="45.78015" lon="3.35103">
        <ele>337.5600586</ele>
        <time>2010-12-12T11:11:42Z</time>
      </trkpt>
      <trkpt lat="45.78017" lon="3.35103">
        <ele>337.0794678</ele>
        <time>2010-12-12T11:11:50Z</time>
      </trkpt>
      <trkpt lat="45.78032" lon="3.35096">
        <ele>336.598877</ele>
        <time>2010-12-12T11:11:55Z</time>
      </trkpt>
      <trkpt lat="45.7804" lon="3.35091">
        <ele>336.1181641</ele>
        <time>2010-12-12T11:11:57Z</time>
      </trkpt>
      <trkpt lat="45.78082" lon="3.35071">
        <ele>333.7147217</ele>
        <time>2010-12-12T11:12:06Z</time>
      </trkpt>
      <trkpt lat="45.78104" lon="3.35063">
        <ele>331.3115234</ele>
        <time>2010-12-12T11:12:10Z</time>
      </trkpt>
      <trkpt lat="45.78148" lon="3.35053">
        <ele>329.8695068</ele>
        <time>2010-12-12T11:12:17Z</time>
      </trkpt>
      <trkpt lat="45.78202" lon="3.35049">
        <ele>327.4661865</ele>
        <time>2010-12-12T11:12:25Z</time>
      </trkpt>
      <trkpt lat="45.78209" lon="3.35049">
        <ele>327.4661865</ele>
        <time>2010-12-12T11:12:26Z</time>
      </trkpt>
      <trkpt lat="45.78229" lon="3.35048">
        <ele>326.9855957</ele>
        <time>2010-12-12T11:12:29Z</time>
      </trkpt>
      <trkpt lat="45.78279" lon="3.35041">
        <ele>324.5822754</ele>
        <time>2010-12-12T11:12:36Z</time>
      </trkpt>
      <trkpt lat="45.78343" lon="3.3503">
        <ele>323.1403809</ele>
        <time>2010-12-12T11:12:45Z</time>
      </trkpt>
      <trkpt lat="45.78378" lon="3.35025">
        <ele>322.659668</ele>
        <time>2010-12-12T11:12:50Z</time>
      </trkpt>
      <trkpt lat="45.78427" lon="3.35015">
        <ele>322.659668</ele>
        <time>2010-12-12T11:12:57Z</time>
      </trkpt>
      <trkpt lat="45.78458" lon="3.34996">
        <ele>322.659668</ele>
        <time>2010-12-12T11:13:02Z</time>
      </trkpt>
      <trkpt lat="45.78464" lon="3.34991">
        <ele>322.659668</ele>
        <time>2010-12-12T11:13:03Z</time>
      </trkpt>
      <trkpt lat="45.78494" lon="3.34941">
        <ele>322.1789551</ele>
        <time>2010-12-12T11:13:10Z</time>
      </trkpt>
      <trkpt lat="45.78513" lon="3.34882">
        <ele>321.6983643</ele>
        <time>2010-12-12T11:13:17Z</time>
      </trkpt>
      <trkpt lat="45.78536" lon="3.34807">
        <ele>321.2177734</ele>
        <time>2010-12-12T11:13:26Z</time>
      </trkpt>
      <trkpt lat="45.78544" lon="3.34782">
        <ele>323.1403809</ele>
        <time>2010-12-12T11:13:29Z</time>
      </trkpt>
      <trkpt lat="45.78566" lon="3.34713">
        <ele>323.1403809</ele>
        <time>2010-12-12T11:13:37Z</time>
      </trkpt>
      <trkpt lat="45.78573" lon="3.34697">
        <ele>323.1403809</ele>
        <time>2010-12-12T11:13:39Z</time>
      </trkpt>
      <trkpt lat="45.78597" lon="3.34667">
        <ele>321.2177734</ele>
        <time>2010-12-12T11:13:44Z</time>
      </trkpt>
      <trkpt lat="45.78603" lon="3.34664">
        <ele>321.2177734</ele>
        <time>2010-12-12T11:13:45Z</time>
      </trkpt>
      <trkpt lat="45.78609" lon="3.34661">
        <ele>320.7370605</ele>
        <time>2010-12-12T11:13:46Z</time>
      </trkpt>
      <trkpt lat="45.78661" lon="3.34651">
        <ele>321.2177734</ele>
        <time>2010-12-12T11:13:54Z</time>
      </trkpt>
      <trkpt lat="45.78713" lon="3.34643">
        <ele>321.2177734</ele>
        <time>2010-12-12T11:14:02Z</time>
      </trkpt>
      <trkpt lat="45.78786" lon="3.3463">
        <ele>321.6983643</ele>
        <time>2010-12-12T11:14:13Z</time>
      </trkpt>
      <trkpt lat="45.78865" lon="3.34617">
        <ele>321.2177734</ele>
        <time>2010-12-12T11:14:25Z</time>
      </trkpt>
      <trkpt lat="45.78918" lon="3.34611">
        <ele>321.2177734</ele>
        <time>2010-12-12T11:14:33Z</time>
      </trkpt>
      <trkpt lat="45.78956" lon="3.34598">
        <ele>321.2177734</ele>
        <time>2010-12-12T11:14:39Z</time>
      </trkpt>
      <trkpt lat="45.79019" lon="3.34571">
        <ele>321.2177734</ele>
        <time>2010-12-12T11:14:49Z</time>
      </trkpt>
      <trkpt lat="45.79081" lon="3.34545">
        <ele>320.7370605</ele>
        <time>2010-12-12T11:14:59Z</time>
      </trkpt>
      <trkpt lat="45.79109" lon="3.34526">
        <ele>320.2563477</ele>
        <time>2010-12-12T11:15:04Z</time>
      </trkpt>
      <trkpt lat="45.79143" lon="3.34485">
        <ele>320.2563477</ele>
        <time>2010-12-12T11:15:11Z</time>
      </trkpt>
      <trkpt lat="45.79175" lon="3.34443">
        <ele>320.7370605</ele>
        <time>2010-12-12T11:15:18Z</time>
      </trkpt>
      <trkpt lat="45.79221" lon="3.34384">
        <ele>320.7370605</ele>
        <time>2010-12-12T11:15:28Z</time>
      </trkpt>
      <trkpt lat="45.79274" lon="3.34317">
        <ele>319.2950439</ele>
        <time>2010-12-12T11:15:39Z</time>
      </trkpt>
      <trkpt lat="45.79284" lon="3.34306">
        <ele>319.7756348</ele>
        <time>2010-12-12T11:15:41Z</time>
      </trkpt>
      <trkpt lat="45.79315" lon="3.34289">
        <ele>319.7756348</ele>
        <time>2010-12-12T11:15:46Z</time>
      </trkpt>
      <trkpt lat="45.79392" lon="3.34279">
        <ele>319.7756348</ele>
        <time>2010-12-12T11:15:58Z</time>
      </trkpt>
      <trkpt lat="45.79429" lon="3.34263">
        <ele>320.2563477</ele>
        <time>2010-12-12T11:16:04Z</time>
      </trkpt>
      <trkpt lat="45.79488" lon="3.34228">
        <ele>319.2950439</ele>
        <time>2010-12-12T11:16:14Z</time>
      </trkpt>
      <trkpt lat="45.79545" lon="3.34211">
        <ele>319.7756348</ele>
        <time>2010-12-12T11:16:23Z</time>
      </trkpt>
      <trkpt lat="45.7959" lon="3.34207">
        <ele>318.3336182</ele>
        <time>2010-12-12T11:16:30Z</time>
      </trkpt>
      <trkpt lat="45.79641" lon="3.34218">
        <ele>319.7756348</ele>
        <time>2010-12-12T11:16:38Z</time>
      </trkpt>
      <trkpt lat="45.79711" lon="3.34239">
        <ele>318.8143311</ele>
        <time>2010-12-12T11:16:49Z</time>
      </trkpt>
      <trkpt lat="45.7973" lon="3.34246">
        <ele>318.8143311</ele>
        <time>2010-12-12T11:16:52Z</time>
      </trkpt>
      <trkpt lat="45.79754" lon="3.34242">
        <ele>318.8143311</ele>
        <time>2010-12-12T11:16:56Z</time>
      </trkpt>
      <trkpt lat="45.79768" lon="3.34227">
        <ele>320.7370605</ele>
        <time>2010-12-12T11:16:59Z</time>
      </trkpt>
      <trkpt lat="45.79798" lon="3.34167">
        <ele>319.7756348</ele>
        <time>2010-12-12T11:17:08Z</time>
      </trkpt>
      <trkpt lat="45.79836" lon="3.34105">
        <ele>318.8143311</ele>
        <time>2010-12-12T11:17:17Z</time>
      </trkpt>
      <trkpt lat="45.79885" lon="3.34034">
        <ele>316.8917236</ele>
        <time>2010-12-12T11:17:28Z</time>
      </trkpt>
      <trkpt lat="45.799" lon="3.34018">
        <ele>318.3336182</ele>
        <time>2010-12-12T11:17:31Z</time>
      </trkpt>
      <trkpt lat="45.79943" lon="3.3397">
        <ele>318.8143311</ele>
        <time>2010-12-12T11:17:40Z</time>
      </trkpt>
      <trkpt lat="45.79992" lon="3.33918">
        <ele>318.3336182</ele>
        <time>2010-12-12T11:17:50Z</time>
      </trkpt>
      <trkpt lat="45.8004" lon="3.33881">
        <ele>319.7756348</ele>
        <time>2010-12-12T11:17:59Z</time>
      </trkpt>
      <trkpt lat="45.8008" lon="3.33862">
        <ele>320.2563477</ele>
        <time>2010-12-12T11:18:06Z</time>
      </trkpt>
      <trkpt lat="45.80131" lon="3.33849">
        <ele>320.2563477</ele>
        <time>2010-12-12T11:18:15Z</time>
      </trkpt>
      <trkpt lat="45.80174" lon="3.33851">
        <ele>319.2950439</ele>
        <time>2010-12-12T11:18:22Z</time>
      </trkpt>
      <trkpt lat="45.80209" lon="3.33868">
        <ele>319.7756348</ele>
        <time>2010-12-12T11:18:28Z</time>
      </trkpt>
      <trkpt lat="45.80255" lon="3.33892">
        <ele>318.8143311</ele>
        <time>2010-12-12T11:18:36Z</time>
      </trkpt>
      <trkpt lat="45.80299" lon="3.33899">
        <ele>317.8530273</ele>
        <time>2010-12-12T11:18:43Z</time>
      </trkpt>
      <trkpt lat="45.80329" lon="3.33897">
        <ele>318.3336182</ele>
        <time>2010-12-12T11:18:48Z</time>
      </trkpt>
      <trkpt lat="45.80357" lon="3.33909">
        <ele>319.7756348</ele>
        <time>2010-12-12T11:18:53Z</time>
      </trkpt>
      <trkpt lat="45.80387" lon="3.3393">
        <ele>319.7756348</ele>
        <time>2010-12-12T11:18:59Z</time>
      </trkpt>
      <trkpt lat="45.80393" lon="3.33933">
        <ele>319.2950439</ele>
        <time>2010-12-12T11:19:00Z</time>
      </trkpt>
      <trkpt lat="45.80421" lon="3.33939">
        <ele>318.8143311</ele>
        <time>2010-12-12T11:19:05Z</time>
      </trkpt>
      <trkpt lat="45.80461" lon="3.33927">
        <ele>319.2950439</ele>
        <time>2010-12-12T11:19:12Z</time>
      </trkpt>
      <trkpt lat="45.80482" lon="3.33913">
        <ele>320.2563477</ele>
        <time>2010-12-12T11:19:16Z</time>
      </trkpt>
      <trkpt lat="45.80497" lon="3.33909">
        <ele>319.2950439</ele>
        <time>2010-12-12T11:19:19Z</time>
      </trkpt>
      <trkpt lat="45.80535" lon="3.33907">
        <ele>318.3336182</ele>
        <time>2010-12-12T11:19:25Z</time>
      </trkpt>
      <trkpt lat="45.80578" lon="3.33906">
        <ele>318.8143311</ele>
        <time>2010-12-12T11:19:32Z</time>
      </trkpt>
      <trkpt lat="45.80613" lon="3.33907">
        <ele>318.8143311</ele>
        <time>2010-12-12T11:19:38Z</time>
      </trkpt>
      <trkpt lat="45.8066" lon="3.33903">
        <ele>318.8143311</ele>
        <time>2010-12-12T11:19:46Z</time>
      </trkpt>
      <trkpt lat="45.80725" lon="3.33889">
        <ele>318.8143311</ele>
        <time>2010-12-12T11:19:57Z</time>
      </trkpt>
      <trkpt lat="45.80771" lon="3.3388">
        <ele>317.8530273</ele>
        <time>2010-12-12T11:20:05Z</time>
      </trkpt>
      <trkpt lat="45.80789" lon="3.33876">
        <ele>317.8530273</ele>
        <time>2010-12-12T11:20:08Z</time>
      </trkpt>
      <trkpt lat="45.8081" lon="3.33867">
        <ele>318.3336182</ele>
        <time>2010-12-12T11:20:12Z</time>
      </trkpt>
      <trkpt lat="45.80839" lon="3.3386">
        <ele>319.2950439</ele>
        <time>2010-12-12T11:20:19Z</time>
      </trkpt>
      <trkpt lat="45.80863" lon="3.33855">
        <ele>319.2950439</ele>
        <time>2010-12-12T11:20:26Z</time>
      </trkpt>
      <trkpt lat="45.80878" lon="3.33851">
        <ele>319.2950439</ele>
        <time>2010-12-12T11:20:33Z</time>
      </trkpt>
      <trkpt lat="45.80884" lon="3.33851">
        <ele>320.2563477</ele>
        <time>2010-12-12T11:20:37Z</time>
      </trkpt>
      <trkpt lat="45.80885" lon="3.33851">
        <ele>319.7756348</ele>
        <time>2010-12-12T11:20:42Z</time>
      </trkpt>
      <trkpt lat="45.80886" lon="3.33851">
        <ele>319.7756348</ele>
        <time>2010-12-12T11:20:47Z</time>
      </trkpt>
      <trkpt lat="45.8089" lon="3.3385">
        <ele>319.2950439</ele>
        <time>2010-12-12T11:20:53Z</time>
      </trkpt>
      <trkpt lat="45.80889" lon="3.33848">
        <ele>320.2563477</ele>
        <time>2010-12-12T11:20:58Z</time>
      </trkpt>
      <trkpt lat="45.80889" lon="3.33849">
        <ele>319.7756348</ele>
        <time>2010-12-12T11:21:02Z</time>
      </trkpt>
      <trkpt lat="45.80889" lon="3.33849">
        <ele>319.7756348</ele>
        <time>2010-12-12T11:21:12Z</time>
      </trkpt>
      <trkpt lat="45.80889" lon="3.33849">
        <ele>320.2563477</ele>
        <time>2010-12-12T11:21:32Z</time>
      </trkpt>
      <trkpt lat="45.80889" lon="3.33849">
        <ele>320.2563477</ele>
        <time>2010-12-12T11:21:38Z</time>
      </trkpt>
      <trkpt lat="45.80889" lon="3.33849">
        <ele>320.2563477</ele>
        <time>2010-12-12T11:21:40Z</time>
      </trkpt>
      <trkpt lat="45.8089" lon="3.33848">
        <ele>320.2563477</ele>
        <time>2010-12-12T11:21:57Z</time>
      </trkpt>
    </trkseg>
  </trk>
</gpx>